Saint Francis River (Missouri), Saco (07036100)

StateMissouriLatestHigh (1820 cfs)
RiverSaint Francis RiverRatingObservedEstimated
Updated2021-03-03 14:30 (44 minutes ago)Flood - The river is flooding. Obstacles can be treacherous or deadly. The river should be avoided at this stage for casual trips and definitely for the inexperienced. Trips should be attempted only with protective gear and equipment.Flood(none)4236
Discharge1820 cfs (median: 699 cfs)High - The river is high and potentially dangerous, especially for the young and / or inexperienced. Normal stream obstacles are sometimes difficult to navigate. Extended distances can be attempted, but canoe travel may not be advisable.High(none)1799
Height5.71 feetGood - Conditions are ideal for a canoe or kayak. Boats typically will drag on fewer than one-quarter of riffles, if at all, and portages are unnecessary or rare. Normal float lengths can be attempted without a problem.Good(none)648
TrendFalling (falling over 24 hours)Low - River is low but can still be floated. Some riffles are okay but most come with significant dragging and might need a portage. Float lengths should be reduced to accommodate low flow, dragging, and portages.Low(none)195
USGSExternal icon USGS Site (External icon Google Maps)Poor - River is too low to float comfortably. Most or all riffles will drag or must be portaged and some obstacles (such as slick shelf rock) cause undue problems. Avoid the river at this stage for casual paddling trips.Poor(none)47

Trending Data

Plot Image

Trips for Saint Francis River (Missouri), Saco (07036100)

DateStartEndDistanceConditionDischargeHeightFishingDetails

A total of 0 rows are displayed.

Condition Descriptions

Fishing Conditions

Fish Species

Notes

Classic Trip List

The classic River Trips application is still available for use. It is updated with the new system using a data retrofit. It is no longer maintained. The original River Trips application is no longer updated (as of 1 Dec 2016) but can be checked for errors or for the condition of the data before it was converted to the new system.

Gauge Data Table

ObservationHeightDischargeMaximum
Discharge
Minimum
Discharge
Mean
Discharge
P05P10P20P25P50
(Median)
P75P80P90P95
2021-03-03 14:30 5.71 1820 7760 (1993) 123 (1996) 1200 173 262 329 408 699 1170 1220 3130 5760
2021-03-03 14:00 5.73 1830 7760 (1993) 123 (1996) 1200 173 262 329 408 699 1170 1220 3130 5760
2021-03-03 13:30 5.74 1840 7760 (1993) 123 (1996) 1200 173 262 329 408 699 1170 1220 3130 5760
2021-03-03 13:00 5.76 1850 7760 (1993) 123 (1996) 1200 173 262 329 408 699 1170 1220 3130 5760
2021-03-03 12:30 5.78 1870 7760 (1993) 123 (1996) 1200 173 262 329 408 699 1170 1220 3130 5760
2021-03-03 12:00 5.79 1870 7760 (1993) 123 (1996) 1200 173 262 329 408 699 1170 1220 3130 5760
2021-03-03 11:30 5.81 1890 7760 (1993) 123 (1996) 1200 173 262 329 408 699 1170 1220 3130 5760
2021-03-03 11:00 5.83 1900 7760 (1993) 123 (1996) 1200 173 262 329 408 699 1170 1220 3130 5760
2021-03-03 10:30 5.85 1920 7760 (1993) 123 (1996) 1200 173 262 329 408 699 1170 1220 3130 5760
2021-03-03 10:00 5.87 1930 7760 (1993) 123 (1996) 1200 173 262 329 408 699 1170 1220 3130 5760
2021-03-03 09:30 5.88 1940 7760 (1993) 123 (1996) 1200 173 262 329 408 699 1170 1220 3130 5760
2021-03-03 09:00 5.91 1960 7760 (1993) 123 (1996) 1200 173 262 329 408 699 1170 1220 3130 5760
2021-03-03 08:30 5.92 1970 7760 (1993) 123 (1996) 1200 173 262 329 408 699 1170 1220 3130 5760
2021-03-03 08:00 5.95 1990 7760 (1993) 123 (1996) 1200 173 262 329 408 699 1170 1220 3130 5760
2021-03-03 07:30 5.97 2010 7760 (1993) 123 (1996) 1200 173 262 329 408 699 1170 1220 3130 5760
2021-03-03 07:00 5.99 2020 7760 (1993) 123 (1996) 1200 173 262 329 408 699 1170 1220 3130 5760
2021-03-03 06:30 6.01 2040 7760 (1993) 123 (1996) 1200 173 262 329 408 699 1170 1220 3130 5760
2021-03-03 06:00 6.03 2060 7760 (1993) 123 (1996) 1200 173 262 329 408 699 1170 1220 3130 5760
2021-03-03 05:30 6.05 2070 7760 (1993) 123 (1996) 1200 173 262 329 408 699 1170 1220 3130 5760
2021-03-03 05:00 6.07 2090 7760 (1993) 123 (1996) 1200 173 262 329 408 699 1170 1220 3130 5760
2021-03-03 04:30 6.10 2110 7760 (1993) 123 (1996) 1200 173 262 329 408 699 1170 1220 3130 5760
2021-03-03 04:00 6.12 2130 7760 (1993) 123 (1996) 1200 173 262 329 408 699 1170 1220 3130 5760
2021-03-03 03:30 6.14 2140 7760 (1993) 123 (1996) 1200 173 262 329 408 699 1170 1220 3130 5760
2021-03-03 03:00 6.17 2170 7760 (1993) 123 (1996) 1200 173 262 329 408 699 1170 1220 3130 5760
2021-03-03 02:30 6.20 2190 7760 (1993) 123 (1996) 1200 173 262 329 408 699 1170 1220 3130 5760
2021-03-03 02:00 6.21 2200 7760 (1993) 123 (1996) 1200 173 262 329 408 699 1170 1220 3130 5760
2021-03-03 01:30 6.23 2210 7760 (1993) 123 (1996) 1200 173 262 329 408 699 1170 1220 3130 5760
2021-03-03 01:00 6.25 2230 7760 (1993) 123 (1996) 1200 173 262 329 408 699 1170 1220 3130 5760
2021-03-03 00:30 6.29 2260 7760 (1993) 123 (1996) 1200 173 262 329 408 699 1170 1220 3130 5760
2021-03-03 00:00 6.32 2290 7760 (1993) 123 (1996) 1200 173 262 329 408 699 1170 1220 3130 5760
2021-03-02 23:30 6.34 2300 7510 (1997) 129 (1996) 1170 184 262 348 378 679 1210 1340 2990 6110
2021-03-02 23:00 6.36 2320 7510 (1997) 129 (1996) 1170 184 262 348 378 679 1210 1340 2990 6110
2021-03-02 22:30 6.40 2350 7510 (1997) 129 (1996) 1170 184 262 348 378 679 1210 1340 2990 6110
2021-03-02 22:00 6.42 2370 7510 (1997) 129 (1996) 1170 184 262 348 378 679 1210 1340 2990 6110
2021-03-02 21:30 6.45 2390 7510 (1997) 129 (1996) 1170 184 262 348 378 679 1210 1340 2990 6110
2021-03-02 21:00 6.48 2420 7510 (1997) 129 (1996) 1170 184 262 348 378 679 1210 1340 2990 6110
2021-03-02 20:30 6.51 2440 7510 (1997) 129 (1996) 1170 184 262 348 378 679 1210 1340 2990 6110
2021-03-02 20:00 6.54 2470 7510 (1997) 129 (1996) 1170 184 262 348 378 679 1210 1340 2990 6110
2021-03-02 19:30 6.57 2500 7510 (1997) 129 (1996) 1170 184 262 348 378 679 1210 1340 2990 6110
2021-03-02 19:00 6.60 2520 7510 (1997) 129 (1996) 1170 184 262 348 378 679 1210 1340 2990 6110
2021-03-02 18:30 6.63 2550 7510 (1997) 129 (1996) 1170 184 262 348 378 679 1210 1340 2990 6110
2021-03-02 18:00 6.66 2570 7510 (1997) 129 (1996) 1170 184 262 348 378 679 1210 1340 2990 6110
2021-03-02 17:30 6.70 2610 7510 (1997) 129 (1996) 1170 184 262 348 378 679 1210 1340 2990 6110
2021-03-02 17:00 6.73 2640 7510 (1997) 129 (1996) 1170 184 262 348 378 679 1210 1340 2990 6110
2021-03-02 16:30 6.76 2660 7510 (1997) 129 (1996) 1170 184 262 348 378 679 1210 1340 2990 6110
2021-03-02 16:00 6.79 2690 7510 (1997) 129 (1996) 1170 184 262 348 378 679 1210 1340 2990 6110
2021-03-02 15:30 6.83 2720 7510 (1997) 129 (1996) 1170 184 262 348 378 679 1210 1340 2990 6110
2021-03-02 15:00 6.88 2770 7510 (1997) 129 (1996) 1170 184 262 348 378 679 1210 1340 2990 6110
2021-03-02 14:30 6.90 2790 7510 (1997) 129 (1996) 1170 184 262 348 378 679 1210 1340 2990 6110
2021-03-02 14:00 6.93 2820 7510 (1997) 129 (1996) 1170 184 262 348 378 679 1210 1340 2990 6110
2021-03-02 13:30 6.97 2850 7510 (1997) 129 (1996) 1170 184 262 348 378 679 1210 1340 2990 6110
2021-03-02 13:00 7.01 2890 7510 (1997) 129 (1996) 1170 184 262 348 378 679 1210 1340 2990 6110
2021-03-02 12:30 7.05 2930 7510 (1997) 129 (1996) 1170 184 262 348 378 679 1210 1340 2990 6110
2021-03-02 12:00 7.08 2960 7510 (1997) 129 (1996) 1170 184 262 348 378 679 1210 1340 2990 6110
2021-03-02 11:00 7.17 3060 7510 (1997) 129 (1996) 1170 184 262 348 378 679 1210 1340 2990 6110
2021-03-02 10:30 7.22 3110 7510 (1997) 129 (1996) 1170 184 262 348 378 679 1210 1340 2990 6110
2021-03-02 10:00 7.26 3150 7510 (1997) 129 (1996) 1170 184 262 348 378 679 1210 1340 2990 6110
2021-03-02 09:30 7.31 3210 7510 (1997) 129 (1996) 1170 184 262 348 378 679 1210 1340 2990 6110
2021-03-02 09:00 7.34 3240 7510 (1997) 129 (1996) 1170 184 262 348 378 679 1210 1340 2990 6110
2021-03-02 08:30 7.40 3300 7510 (1997) 129 (1996) 1170 184 262 348 378 679 1210 1340 2990 6110
2021-03-02 08:00 7.43 3340 7510 (1997) 129 (1996) 1170 184 262 348 378 679 1210 1340 2990 6110
2021-03-02 07:30 7.49 3400 7510 (1997) 129 (1996) 1170 184 262 348 378 679 1210 1340 2990 6110
2021-03-02 07:00 7.53 3450 7510 (1997) 129 (1996) 1170 184 262 348 378 679 1210 1340 2990 6110
2021-03-02 06:30 7.58 3500 7510 (1997) 129 (1996) 1170 184 262 348 378 679 1210 1340 2990 6110
2021-03-02 06:00 7.65 3580 7510 (1997) 129 (1996) 1170 184 262 348 378 679 1210 1340 2990 6110
2021-03-02 05:30 7.69 3630 7510 (1997) 129 (1996) 1170 184 262 348 378 679 1210 1340 2990 6110
2021-03-02 05:00 7.74 3690 7510 (1997) 129 (1996) 1170 184 262 348 378 679 1210 1340 2990 6110
2021-03-02 04:30 7.80 3760 7510 (1997) 129 (1996) 1170 184 262 348 378 679 1210 1340 2990 6110
2021-03-02 04:00 7.83 3790 7510 (1997) 129 (1996) 1170 184 262 348 378 679 1210 1340 2990 6110
2021-03-02 03:30 7.91 3890 7510 (1997) 129 (1996) 1170 184 262 348 378 679 1210 1340 2990 6110
2021-03-02 03:00 7.97 3960 7510 (1997) 129 (1996) 1170 184 262 348 378 679 1210 1340 2990 6110
2021-03-02 02:30 8.02 4020 7510 (1997) 129 (1996) 1170 184 262 348 378 679 1210 1340 2990 6110
2021-03-02 02:00 8.08 4100 7510 (1997) 129 (1996) 1170 184 262 348 378 679 1210 1340 2990 6110
2021-03-02 01:30 8.14 4170 7510 (1997) 129 (1996) 1170 184 262 348 378 679 1210 1340 2990 6110
2021-03-02 01:00 8.19 4230 7510 (1997) 129 (1996) 1170 184 262 348 378 679 1210 1340 2990 6110
2021-03-02 00:30 8.25 4310 7510 (1997) 129 (1996) 1170 184 262 348 378 679 1210 1340 2990 6110
2021-03-02 00:00 8.31 4380 7510 (1997) 129 (1996) 1170 184 262 348 378 679 1210 1340 2990 6110
2021-03-01 23:30 8.38 4470 7000 (1987) 131 (1996) 1160 191 255 329 379 656 1320 1560 3560 5500
2021-03-01 23:00 8.45 4570 7000 (1987) 131 (1996) 1160 191 255 329 379 656 1320 1560 3560 5500
2021-03-01 22:30 8.50 4630 7000 (1987) 131 (1996) 1160 191 255 329 379 656 1320 1560 3560 5500
2021-03-01 22:00 8.59 4750 7000 (1987) 131 (1996) 1160 191 255 329 379 656 1320 1560 3560 5500
2021-03-01 21:30 8.65 4830 7000 (1987) 131 (1996) 1160 191 255 329 379 656 1320 1560 3560 5500
2021-03-01 21:00 8.70 4900 7000 (1987) 131 (1996) 1160 191 255 329 379 656 1320 1560 3560 5500
2021-03-01 20:30 8.76 4980 7000 (1987) 131 (1996) 1160 191 255 329 379 656 1320 1560 3560 5500
2021-03-01 20:00 8.85 5110 7000 (1987) 131 (1996) 1160 191 255 329 379 656 1320 1560 3560 5500
2021-03-01 19:30 8.94 5230 7000 (1987) 131 (1996) 1160 191 255 329 379 656 1320 1560 3560 5500
2021-03-01 19:00 9.01 5330 7000 (1987) 131 (1996) 1160 191 255 329 379 656 1320 1560 3560 5500
2021-03-01 18:30 9.08 5430 7000 (1987) 131 (1996) 1160 191 255 329 379 656 1320 1560 3560 5500
2021-03-01 18:00 9.16 5550 7000 (1987) 131 (1996) 1160 191 255 329 379 656 1320 1560 3560 5500
2021-03-01 17:30 9.25 5680 7000 (1987) 131 (1996) 1160 191 255 329 379 656 1320 1560 3560 5500
2021-03-01 17:00 9.35 5820 7000 (1987) 131 (1996) 1160 191 255 329 379 656 1320 1560 3560 5500
2021-03-01 16:30 9.45 5970 7000 (1987) 131 (1996) 1160 191 255 329 379 656 1320 1560 3560 5500
2021-03-01 16:00 9.54 6110 7000 (1987) 131 (1996) 1160 191 255 329 379 656 1320 1560 3560 5500
2021-03-01 15:30 9.62 6230 7000 (1987) 131 (1996) 1160 191 255 329 379 656 1320 1560 3560 5500
2021-03-01 15:00 9.74 6420 7000 (1987) 131 (1996) 1160 191 255 329 379 656 1320 1560 3560 5500
2021-03-01 14:30 9.84 6580 7000 (1987) 131 (1996) 1160 191 255 329 379 656 1320 1560 3560 5500
2021-03-01 14:00 9.96 6770 7000 (1987) 131 (1996) 1160 191 255 329 379 656 1320 1560 3560 5500
2021-03-01 13:30 10.09 6980 7000 (1987) 131 (1996) 1160 191 255 329 379 656 1320 1560 3560 5500
2021-03-01 13:00 10.19 7150 7000 (1987) 131 (1996) 1160 191 255 329 379 656 1320 1560 3560 5500
2021-03-01 12:30 10.30 7330 7000 (1987) 131 (1996) 1160 191 255 329 379 656 1320 1560 3560 5500
2021-03-01 12:00 10.40 7500 7000 (1987) 131 (1996) 1160 191 255 329 379 656 1320 1560 3560 5500
2021-03-01 11:30 10.62 7880 7000 (1987) 131 (1996) 1160 191 255 329 379 656 1320 1560 3560 5500
2021-03-01 11:00 10.71 8040 7000 (1987) 131 (1996) 1160 191 255 329 379 656 1320 1560 3560 5500
2021-03-01 10:30 10.87 8330 7000 (1987) 131 (1996) 1160 191 255 329 379 656 1320 1560 3560 5500
2021-03-01 10:00 10.99 8550 7000 (1987) 131 (1996) 1160 191 255 329 379 656 1320 1560 3560 5500
2021-03-01 09:30 11.04 8640 7000 (1987) 131 (1996) 1160 191 255 329 379 656 1320 1560 3560 5500
2021-03-01 09:00 11.26 9050 7000 (1987) 131 (1996) 1160 191 255 329 379 656 1320 1560 3560 5500
2021-03-01 08:30 11.32 9160 7000 (1987) 131 (1996) 1160 191 255 329 379 656 1320 1560 3560 5500
2021-03-01 08:00 11.46 9430 7000 (1987) 131 (1996) 1160 191 255 329 379 656 1320 1560 3560 5500
2021-03-01 07:30 11.55 9600 7000 (1987) 131 (1996) 1160 191 255 329 379 656 1320 1560 3560 5500
2021-03-01 07:00 11.68 9860 7000 (1987) 131 (1996) 1160 191 255 329 379 656 1320 1560 3560 5500
2021-03-01 06:30 11.83 10200 7000 (1987) 131 (1996) 1160 191 255 329 379 656 1320 1560 3560 5500
2021-03-01 06:00 11.96 10400 7000 (1987) 131 (1996) 1160 191 255 329 379 656 1320 1560 3560 5500
2021-03-01 05:30 12.07 10600 7000 (1987) 131 (1996) 1160 191 255 329 379 656 1320 1560 3560 5500
2021-03-01 05:00 12.22 10900 7000 (1987) 131 (1996) 1160 191 255 329 379 656 1320 1560 3560 5500
2021-03-01 04:30 12.33 11100 7000 (1987) 131 (1996) 1160 191 255 329 379 656 1320 1560 3560 5500
2021-03-01 04:00 12.49 11400 7000 (1987) 131 (1996) 1160 191 255 329 379 656 1320 1560 3560 5500
2021-03-01 03:30 12.61 11700 7000 (1987) 131 (1996) 1160 191 255 329 379 656 1320 1560 3560 5500
2021-03-01 03:00 12.71 11900 7000 (1987) 131 (1996) 1160 191 255 329 379 656 1320 1560 3560 5500
2021-03-01 02:30 12.76 12000 7000 (1987) 131 (1996) 1160 191 255 329 379 656 1320 1560 3560 5500
2021-03-01 02:00 12.94 12400 7000 (1987) 131 (1996) 1160 191 255 329 379 656 1320 1560 3560 5500
2021-03-01 01:30 12.98 12400 7000 (1987) 131 (1996) 1160 191 255 329 379 656 1320 1560 3560 5500
2021-03-01 01:00 13.12 12700 7000 (1987) 131 (1996) 1160 191 255 329 379 656 1320 1560 3560 5500
2021-03-01 00:30 13.19 12900 7000 (1987) 131 (1996) 1160 191 255 329 379 656 1320 1560 3560 5500
2021-03-01 00:00 13.24 13000 7000 (1987) 131 (1996) 1160 191 255 329 379 656 1320 1560 3560 5500
2021-02-28 23:30 13.19 12900 5170 (1997) 132 (1996) 1270 162 260 311 350 720 1570 1730 3790 4780
2021-02-28 23:00 13.34 13200 5170 (1997) 132 (1996) 1270 162 260 311 350 720 1570 1730 3790 4780
2021-02-28 22:30 13.28 13100 5170 (1997) 132 (1996) 1270 162 260 311 350 720 1570 1730 3790 4780
2021-02-28 22:00 13.26 13000 5170 (1997) 132 (1996) 1270 162 260 311 350 720 1570 1730 3790 4780
2021-02-28 21:30 13.13 12800 5170 (1997) 132 (1996) 1270 162 260 311 350 720 1570 1730 3790 4780
2021-02-28 21:00 13.06 12600 5170 (1997) 132 (1996) 1270 162 260 311 350 720 1570 1730 3790 4780
2021-02-28 20:30 12.78 12000 5170 (1997) 132 (1996) 1270 162 260 311 350 720 1570 1730 3790 4780
2021-02-28 20:00 12.65 11800 5170 (1997) 132 (1996) 1270 162 260 311 350 720 1570 1730 3790 4780
2021-02-28 19:30 12.40 11300 5170 (1997) 132 (1996) 1270 162 260 311 350 720 1570 1730 3790 4780
2021-02-28 19:00 12.20 10900 5170 (1997) 132 (1996) 1270 162 260 311 350 720 1570 1730 3790 4780
2021-02-28 18:30 11.99 10500 5170 (1997) 132 (1996) 1270 162 260 311 350 720 1570 1730 3790 4780
2021-02-28 18:00 11.83 10200 5170 (1997) 132 (1996) 1270 162 260 311 350 720 1570 1730 3790 4780
2021-02-28 17:30 11.66 9820 5170 (1997) 132 (1996) 1270 162 260 311 350 720 1570 1730 3790 4780
2021-02-28 17:00 11.48 9470 5170 (1997) 132 (1996) 1270 162 260 311 350 720 1570 1730 3790 4780
2021-02-28 16:30 11.55 9600 5170 (1997) 132 (1996) 1270 162 260 311 350 720 1570 1730 3790 4780
2021-02-28 16:00 11.52 9550 5170 (1997) 132 (1996) 1270 162 260 311 350 720 1570 1730 3790 4780
2021-02-28 15:30 11.57 9640 5170 (1997) 132 (1996) 1270 162 260 311 350 720 1570 1730 3790 4780
2021-02-28 15:00 11.57 9640 5170 (1997) 132 (1996) 1270 162 260 311 350 720 1570 1730 3790 4780
2021-02-28 14:30 11.59 9680 5170 (1997) 132 (1996) 1270 162 260 311 350 720 1570 1730 3790 4780
2021-02-28 14:00 11.59 9680 5170 (1997) 132 (1996) 1270 162 260 311 350 720 1570 1730 3790 4780
2021-02-28 13:30 11.65 9800 5170 (1997) 132 (1996) 1270 162 260 311 350 720 1570 1730 3790 4780
2021-02-28 13:00 11.65 9800 5170 (1997) 132 (1996) 1270 162 260 311 350 720 1570 1730 3790 4780
2021-02-28 12:30 11.62 9740 5170 (1997) 132 (1996) 1270 162 260 311 350 720 1570 1730 3790 4780
2021-02-28 12:00 11.68 9860 5170 (1997) 132 (1996) 1270 162 260 311 350 720 1570 1730 3790 4780
2021-02-28 11:30 11.65 9800 5170 (1997) 132 (1996) 1270 162 260 311 350 720 1570 1730 3790 4780
2021-02-28 11:00 11.49 9490 5170 (1997) 132 (1996) 1270 162 260 311 350 720 1570 1730 3790 4780
2021-02-28 10:30 11.39 9300 5170 (1997) 132 (1996) 1270 162 260 311 350 720 1570 1730 3790 4780
2021-02-28 10:00 11.18 8900 5170 (1997) 132 (1996) 1270 162 260 311 350 720 1570 1730 3790 4780
2021-02-28 09:30 10.89 8360 5170 (1997) 132 (1996) 1270 162 260 311 350 720 1570 1730 3790 4780
2021-02-28 09:00 10.56 7780 5170 (1997) 132 (1996) 1270 162 260 311 350 720 1570 1730 3790 4780
2021-02-28 08:30 10.24 7230 5170 (1997) 132 (1996) 1270 162 260 311 350 720 1570 1730 3790 4780
2021-02-28 08:00 9.99 6820 5170 (1997) 132 (1996) 1270 162 260 311 350 720 1570 1730 3790 4780
2021-02-28 07:30 9.77 6470 5170 (1997) 132 (1996) 1270 162 260 311 350 720 1570 1730 3790 4780
2021-02-28 07:00 9.50 6050 5170 (1997) 132 (1996) 1270 162 260 311 350 720 1570 1730 3790 4780
2021-02-28 06:30 9.27 5710 5170 (1997) 132 (1996) 1270 162 260 311 350 720 1570 1730 3790 4780
2021-02-28 06:00 9.00 5320 5170 (1997) 132 (1996) 1270 162 260 311 350 720 1570 1730 3790 4780
2021-02-28 05:30 8.69 4890 5170 (1997) 132 (1996) 1270 162 260 311 350 720 1570 1730 3790 4780
2021-02-28 05:00 8.41 4510 5170 (1997) 132 (1996) 1270 162 260 311 350 720 1570 1730 3790 4780
2021-02-28 04:30 8.12 4150 5170 (1997) 132 (1996) 1270 162 260 311 350 720 1570 1730 3790 4780
2021-02-28 04:00 7.75 3700 5170 (1997) 132 (1996) 1270 162 260 311 350 720 1570 1730 3790 4780
2021-02-28 03:30 7.26 3150 5170 (1997) 132 (1996) 1270 162 260 311 350 720 1570 1730 3790 4780
2021-02-28 03:00 6.74 2640 5170 (1997) 132 (1996) 1270 162 260 311 350 720 1570 1730 3790 4780
2021-02-28 02:30 6.23 2210 5170 (1997) 132 (1996) 1270 162 260 311 350 720 1570 1730 3790 4780
2021-02-28 02:00 5.76 1850 5170 (1997) 132 (1996) 1270 162 260 311 350 720 1570 1730 3790 4780
2021-02-28 01:30 5.44 1630 5170 (1997) 132 (1996) 1270 162 260 311 350 720 1570 1730 3790 4780
2021-02-28 01:00 5.23 1490 5170 (1997) 132 (1996) 1270 162 260 311 350 720 1570 1730 3790 4780
2021-02-28 00:30 5.06 1380 5170 (1997) 132 (1996) 1270 162 260 311 350 720 1570 1730 3790 4780
2021-02-28 00:00 4.91 1290 5170 (1997) 132 (1996) 1270 162 260 311 350 720 1570 1730 3790 4780
2021-02-27 23:30 4.78 1210 16500 (1997) 134 (1996) 1630 160 274 341 365 710 1790 2000 2510 11500
2021-02-27 23:00 4.69 1160 16500 (1997) 134 (1996) 1630 160 274 341 365 710 1790 2000 2510 11500
2021-02-27 22:30 4.66 1140 16500 (1997) 134 (1996) 1630 160 274 341 365 710 1790 2000 2510 11500
2021-02-27 22:00 4.64 1130 16500 (1997) 134 (1996) 1630 160 274 341 365 710 1790 2000 2510 11500
2021-02-27 21:30 4.63 1120 16500 (1997) 134 (1996) 1630 160 274 341 365 710 1790 2000 2510 11500
2021-02-27 21:00 4.62 1120 16500 (1997) 134 (1996) 1630 160 274 341 365 710 1790 2000 2510 11500
2021-02-27 20:30 4.61 1110 16500 (1997) 134 (1996) 1630 160 274 341 365 710 1790 2000 2510 11500
2021-02-27 20:00 4.61 1110 16500 (1997) 134 (1996) 1630 160 274 341 365 710 1790 2000 2510 11500
2021-02-27 19:30 4.61 1110 16500 (1997) 134 (1996) 1630 160 274 341 365 710 1790 2000 2510 11500
2021-02-27 19:00 4.62 1120 16500 (1997) 134 (1996) 1630 160 274 341 365 710 1790 2000 2510 11500
2021-02-27 18:30 4.63 1120 16500 (1997) 134 (1996) 1630 160 274 341 365 710 1790 2000 2510 11500
2021-02-27 18:00 4.63 1120 16500 (1997) 134 (1996) 1630 160 274 341 365 710 1790 2000 2510 11500
2021-02-27 17:30 4.64 1130 16500 (1997) 134 (1996) 1630 160 274 341 365 710 1790 2000 2510 11500
2021-02-27 17:00 4.65 1140 16500 (1997) 134 (1996) 1630 160 274 341 365 710 1790 2000 2510 11500
2021-02-27 16:30 4.66 1140 16500 (1997) 134 (1996) 1630 160 274 341 365 710 1790 2000 2510 11500
2021-02-27 16:00 4.67 1150 16500 (1997) 134 (1996) 1630 160 274 341 365 710 1790 2000 2510 11500
2021-02-27 15:30 4.68 1150 16500 (1997) 134 (1996) 1630 160 274 341 365 710 1790 2000 2510 11500
2021-02-27 15:00 4.68 1150 16500 (1997) 134 (1996) 1630 160 274 341 365 710 1790 2000 2510 11500
2021-02-27 14:30 4.69 1160 16500 (1997) 134 (1996) 1630 160 274 341 365 710 1790 2000 2510 11500
2021-02-27 14:00 4.70 1160 16500 (1997) 134 (1996) 1630 160 274 341 365 710 1790 2000 2510 11500
2021-02-27 13:30 4.72 1180 16500 (1997) 134 (1996) 1630 160 274 341 365 710 1790 2000 2510 11500
2021-02-27 13:00 4.72 1180 16500 (1997) 134 (1996) 1630 160 274 341 365 710 1790 2000 2510 11500
2021-02-27 12:30 4.73 1180 16500 (1997) 134 (1996) 1630 160 274 341 365 710 1790 2000 2510 11500
2021-02-27 12:00 4.73 1180 16500 (1997) 134 (1996) 1630 160 274 341 365 710 1790 2000 2510 11500
2021-02-27 11:30 4.75 1190 16500 (1997) 134 (1996) 1630 160 274 341 365 710 1790 2000 2510 11500
2021-02-27 11:00 4.76 1200 16500 (1997) 134 (1996) 1630 160 274 341 365 710 1790 2000 2510 11500
2021-02-27 10:30 4.76 1200 16500 (1997) 134 (1996) 1630 160 274 341 365 710 1790 2000 2510 11500
2021-02-27 10:00 4.78 1210 16500 (1997) 134 (1996) 1630 160 274 341 365 710 1790 2000 2510 11500
2021-02-27 09:30 4.78 1210 16500 (1997) 134 (1996) 1630 160 274 341 365 710 1790 2000 2510 11500
2021-02-27 09:00 4.78 1210 16500 (1997) 134 (1996) 1630 160 274 341 365 710 1790 2000 2510 11500
2021-02-27 08:30 4.80 1220 16500 (1997) 134 (1996) 1630 160 274 341 365 710 1790 2000 2510 11500
2021-02-27 08:00 4.81 1230 16500 (1997) 134 (1996) 1630 160 274 341 365 710 1790 2000 2510 11500
2021-02-27 07:30 4.82 1230 16500 (1997) 134 (1996) 1630 160 274 341 365 710 1790 2000 2510 11500
2021-02-27 07:00 4.83 1240 16500 (1997) 134 (1996) 1630 160 274 341 365 710 1790 2000 2510 11500
2021-02-27 06:30 4.84 1250 16500 (1997) 134 (1996) 1630 160 274 341 365 710 1790 2000 2510 11500
2021-02-27 06:00 4.85 1250 16500 (1997) 134 (1996) 1630 160 274 341 365 710 1790 2000 2510 11500
2021-02-27 05:30 4.85 1250 16500 (1997) 134 (1996) 1630 160 274 341 365 710 1790 2000 2510 11500
2021-02-27 05:00 4.86 1260 16500 (1997) 134 (1996) 1630 160 274 341 365 710 1790 2000 2510 11500
2021-02-27 04:30 4.87 1260 16500 (1997) 134 (1996) 1630 160 274 341 365 710 1790 2000 2510 11500
2021-02-27 04:00 4.88 1270 16500 (1997) 134 (1996) 1630 160 274 341 365 710 1790 2000 2510 11500
2021-02-27 03:30 4.89 1270 16500 (1997) 134 (1996) 1630 160 274 341 365 710 1790 2000 2510 11500
2021-02-27 03:00 4.90 1280 16500 (1997) 134 (1996) 1630 160 274 341 365 710 1790 2000 2510 11500
2021-02-27 02:30 4.91 1290 16500 (1997) 134 (1996) 1630 160 274 341 365 710 1790 2000 2510 11500
2021-02-27 02:00 4.92 1290 16500 (1997) 134 (1996) 1630 160 274 341 365 710 1790 2000 2510 11500
2021-02-27 01:30 4.93 1300 16500 (1997) 134 (1996) 1630 160 274 341 365 710 1790 2000 2510 11500
2021-02-27 01:00 4.94 1300 16500 (1997) 134 (1996) 1630 160 274 341 365 710 1790 2000 2510 11500
2021-02-27 00:30 4.95 1310 16500 (1997) 134 (1996) 1630 160 274 341 365 710 1790 2000 2510 11500
2021-02-27 00:00 4.97 1320 16500 (1997) 134 (1996) 1630 160 274 341 365 710 1790 2000 2510 11500
2021-02-26 23:30 4.98 1330 10600 (2013) 136 (1996) 1510 164 286 329 359 626 1850 2880 3500 7730
2021-02-26 23:00 4.99 1340 10600 (2013) 136 (1996) 1510 164 286 329 359 626 1850 2880 3500 7730
2021-02-26 22:30 5.00 1340 10600 (2013) 136 (1996) 1510 164 286 329 359 626 1850 2880 3500 7730
2021-02-26 22:00 5.01 1350 10600 (2013) 136 (1996) 1510 164 286 329 359 626 1850 2880 3500 7730
2021-02-26 21:30 5.02 1350 10600 (2013) 136 (1996) 1510 164 286 329 359 626 1850 2880 3500 7730
2021-02-26 21:00 5.03 1360 10600 (2013) 136 (1996) 1510 164 286 329 359 626 1850 2880 3500 7730
2021-02-26 20:30 5.04 1370 10600 (2013) 136 (1996) 1510 164 286 329 359 626 1850 2880 3500 7730
2021-02-26 20:00 5.05 1370 10600 (2013) 136 (1996) 1510 164 286 329 359 626 1850 2880 3500 7730
2021-02-26 19:30 5.07 1380 10600 (2013) 136 (1996) 1510 164 286 329 359 626 1850 2880 3500 7730
2021-02-26 19:00 5.08 1390 10600 (2013) 136 (1996) 1510 164 286 329 359 626 1850 2880 3500 7730
2021-02-26 18:30 5.09 1400 10600 (2013) 136 (1996) 1510 164 286 329 359 626 1850 2880 3500 7730
2021-02-26 18:00 5.11 1410 10600 (2013) 136 (1996) 1510 164 286 329 359 626 1850 2880 3500 7730
2021-02-26 17:30 5.11 1410 10600 (2013) 136 (1996) 1510 164 286 329 359 626 1850 2880 3500 7730
2021-02-26 17:00 5.13 1420 10600 (2013) 136 (1996) 1510 164 286 329 359 626 1850 2880 3500 7730
2021-02-26 16:30 5.14 1430 10600 (2013) 136 (1996) 1510 164 286 329 359 626 1850 2880 3500 7730
2021-02-26 16:00 5.16 1440 10600 (2013) 136 (1996) 1510 164 286 329 359 626 1850 2880 3500 7730
2021-02-26 15:30 5.17 1450 10600 (2013) 136 (1996) 1510 164 286 329 359 626 1850 2880 3500 7730
2021-02-26 15:00 5.18 1450 10600 (2013) 136 (1996) 1510 164 286 329 359 626 1850 2880 3500 7730
2021-02-26 14:30 5.20 1470 10600 (2013) 136 (1996) 1510 164 286 329 359 626 1850 2880 3500 7730
2021-02-26 14:00 5.21 1470 10600 (2013) 136 (1996) 1510 164 286 329 359 626 1850 2880 3500 7730
2021-02-26 13:30 5.23 1490 10600 (2013) 136 (1996) 1510 164 286 329 359 626 1850 2880 3500 7730
2021-02-26 13:00 5.24 1490 10600 (2013) 136 (1996) 1510 164 286 329 359 626 1850 2880 3500 7730
2021-02-26 12:30 5.26 1510 10600 (2013) 136 (1996) 1510 164 286 329 359 626 1850 2880 3500 7730
2021-02-26 12:00 5.27 1510 10600 (2013) 136 (1996) 1510 164 286 329 359 626 1850 2880 3500 7730
2021-02-26 11:30 5.29 1530 10600 (2013) 136 (1996) 1510 164 286 329 359 626 1850 2880 3500 7730
2021-02-26 11:00 5.31 1540 10600 (2013) 136 (1996) 1510 164 286 329 359 626 1850 2880 3500 7730
2021-02-26 10:30 5.32 1550 10600 (2013) 136 (1996) 1510 164 286 329 359 626 1850 2880 3500 7730
2021-02-26 10:00 5.34 1560 10600 (2013) 136 (1996) 1510 164 286 329 359 626 1850 2880 3500 7730
2021-02-26 09:30 5.35 1570 10600 (2013) 136 (1996) 1510 164 286 329 359 626 1850 2880 3500 7730
2021-02-26 09:00 5.37 1580 10600 (2013) 136 (1996) 1510 164 286 329 359 626 1850 2880 3500 7730
2021-02-26 08:30 5.40 1600 10600 (2013) 136 (1996) 1510 164 286 329 359 626 1850 2880 3500 7730
2021-02-26 08:00 5.41 1610 10600 (2013) 136 (1996) 1510 164 286 329 359 626 1850 2880 3500 7730
2021-02-26 07:30 5.43 1620 10600 (2013) 136 (1996) 1510 164 286 329 359 626 1850 2880 3500 7730
2021-02-26 07:00 5.44 1630 10600 (2013) 136 (1996) 1510 164 286 329 359 626 1850 2880 3500 7730
2021-02-26 06:30 5.47 1650 10600 (2013) 136 (1996) 1510 164 286 329 359 626 1850 2880 3500 7730
2021-02-26 06:00 5.49 1660 10600 (2013) 136 (1996) 1510 164 286 329 359 626 1850 2880 3500 7730
2021-02-26 05:30 5.51 1670 10600 (2013) 136 (1996) 1510 164 286 329 359 626 1850 2880 3500 7730
2021-02-26 05:00 5.53 1690 10600 (2013) 136 (1996) 1510 164 286 329 359 626 1850 2880 3500 7730
2021-02-26 04:30 5.55 1700 10600 (2013) 136 (1996) 1510 164 286 329 359 626 1850 2880 3500 7730
2021-02-26 04:00 5.57 1720 10600 (2013) 136 (1996) 1510 164 286 329 359 626 1850 2880 3500 7730
2021-02-26 03:30 5.59 1730 10600 (2013) 136 (1996) 1510 164 286 329 359 626 1850 2880 3500 7730
2021-02-26 03:00 5.61 1740 10600 (2013) 136 (1996) 1510 164 286 329 359 626 1850 2880 3500 7730
2021-02-26 02:30 5.63 1760 10600 (2013) 136 (1996) 1510 164 286 329 359 626 1850 2880 3500 7730
2021-02-26 02:00 5.65 1770 10600 (2013) 136 (1996) 1510 164 286 329 359 626 1850 2880 3500 7730
2021-02-26 01:30 5.68 1790 10600 (2013) 136 (1996) 1510 164 286 329 359 626 1850 2880 3500 7730
2021-02-26 01:00 5.70 1810 10600 (2013) 136 (1996) 1510 164 286 329 359 626 1850 2880 3500 7730
2021-02-26 00:30 5.73 1830 10600 (2013) 136 (1996) 1510 164 286 329 359 626 1850 2880 3500 7730
2021-02-26 00:00 5.74 1840 10600 (2013) 136 (1996) 1510 164 286 329 359 626 1850 2880 3500 7730
2021-02-25 23:30 5.77 1860 19900 (2018) 140 (1996) 2110 170 280 340 397 719 1660 2560 7040 13500
2021-02-25 23:00 5.80 1880 19900 (2018) 140 (1996) 2110 170 280 340 397 719 1660 2560 7040 13500
2021-02-25 22:30 5.81 1890 19900 (2018) 140 (1996) 2110 170 280 340 397 719 1660 2560 7040 13500
2021-02-25 22:00 5.84 1910 19900 (2018) 140 (1996) 2110 170 280 340 397 719 1660 2560 7040 13500
2021-02-25 21:30 5.87 1930 19900 (2018) 140 (1996) 2110 170 280 340 397 719 1660 2560 7040 13500
2021-02-25 21:00 5.90 1960 19900 (2018) 140 (1996) 2110 170 280 340 397 719 1660 2560 7040 13500
2021-02-25 20:30 5.92 1970 19900 (2018) 140 (1996) 2110 170 280 340 397 719 1660 2560 7040 13500
2021-02-25 20:00 5.95 1990 19900 (2018) 140 (1996) 2110 170 280 340 397 719 1660 2560 7040 13500
2021-02-25 19:30 5.99 2020 19900 (2018) 140 (1996) 2110 170 280 340 397 719 1660 2560 7040 13500
2021-02-25 19:00 6.01 2040 19900 (2018) 140 (1996) 2110 170 280 340 397 719 1660 2560 7040 13500
2021-02-25 18:30 6.04 2060 19900 (2018) 140 (1996) 2110 170 280 340 397 719 1660 2560 7040 13500
2021-02-25 18:00 6.07 2090 19900 (2018) 140 (1996) 2110 170 280 340 397 719 1660 2560 7040 13500
2021-02-25 17:30 6.11 2120 19900 (2018) 140 (1996) 2110 170 280 340 397 719 1660 2560 7040 13500
2021-02-25 17:00 6.12 2130 19900 (2018) 140 (1996) 2110 170 280 340 397 719 1660 2560 7040 13500
2021-02-25 16:30 6.16 2160 19900 (2018) 140 (1996) 2110 170 280 340 397 719 1660 2560 7040 13500
2021-02-25 16:00 6.19 2180 19900 (2018) 140 (1996) 2110 170 280 340 397 719 1660 2560 7040 13500
2021-02-25 15:30 6.22 2210 19900 (2018) 140 (1996) 2110 170 280 340 397 719 1660 2560 7040 13500
2021-02-25 15:00 6.26 2240 19900 (2018) 140 (1996) 2110 170 280 340 397 719 1660 2560 7040 13500
2021-02-25 14:30 6.28 2250 19900 (2018) 140 (1996) 2110 170 280 340 397 719 1660 2560 7040 13500
2021-02-25 14:00 6.33 2290 19900 (2018) 140 (1996) 2110 170 280 340 397 719 1660 2560 7040 13500
2021-02-25 13:30 6.35 2310 19900 (2018) 140 (1996) 2110 170 280 340 397 719 1660 2560 7040 13500
2021-02-25 13:00 6.38 2340 19900 (2018) 140 (1996) 2110 170 280 340 397 719 1660 2560 7040 13500
2021-02-25 12:30 6.41 2360 19900 (2018) 140 (1996) 2110 170 280 340 397 719 1660 2560 7040 13500
2021-02-25 12:00 6.44 2390 19900 (2018) 140 (1996) 2110 170 280 340 397 719 1660 2560 7040 13500
2021-02-25 11:30 6.48 2420 19900 (2018) 140 (1996) 2110 170 280 340 397 719 1660 2560 7040 13500
2021-02-25 11:00 6.51 2440 19900 (2018) 140 (1996) 2110 170 280 340 397 719 1660 2560 7040 13500
2021-02-25 10:30 6.54 2470 19900 (2018) 140 (1996) 2110 170 280 340 397 719 1660 2560 7040 13500
2021-02-25 10:00 6.58 2500 19900 (2018) 140 (1996) 2110 170 280 340 397 719 1660 2560 7040 13500
2021-02-25 09:30 6.60 2520 19900 (2018) 140 (1996) 2110 170 280 340 397 719 1660 2560 7040 13500
2021-02-25 09:00 6.64 2560 19900 (2018) 140 (1996) 2110 170 280 340 397 719 1660 2560 7040 13500
2021-02-25 08:30 6.68 2590 19900 (2018) 140 (1996) 2110 170 280 340 397 719 1660 2560 7040 13500
2021-02-25 08:00 6.71 2620 19900 (2018) 140 (1996) 2110 170 280 340 397 719 1660 2560 7040 13500
2021-02-25 07:30 6.74 2640 19900 (2018) 140 (1996) 2110 170 280 340 397 719 1660 2560 7040 13500
2021-02-25 07:00 6.79 2690 19900 (2018) 140 (1996) 2110 170 280 340 397 719 1660 2560 7040 13500
2021-02-25 06:30 6.82 2720 19900 (2018) 140 (1996) 2110 170 280 340 397 719 1660 2560 7040 13500
2021-02-25 06:00 6.86 2750 19900 (2018) 140 (1996) 2110 170 280 340 397 719 1660 2560 7040 13500
2021-02-25 05:30 6.90 2790 19900 (2018) 140 (1996) 2110 170 280 340 397 719 1660 2560 7040 13500
2021-02-25 05:00 6.94 2820 19900 (2018) 140 (1996) 2110 170 280 340 397 719 1660 2560 7040 13500
2021-02-25 04:30 6.97 2850 19900 (2018) 140 (1996) 2110 170 280 340 397 719 1660 2560 7040 13500
2021-02-25 04:00 7.01 2890 19900 (2018) 140 (1996) 2110 170 280 340 397 719 1660 2560 7040 13500
2021-02-25 03:30 7.05 2930 19900 (2018) 140 (1996) 2110 170 280 340 397 719 1660 2560 7040 13500
2021-02-25 03:00 7.09 2970 19900 (2018) 140 (1996) 2110 170 280 340 397 719 1660 2560 7040 13500
2021-02-25 02:30 7.11 2990 19900 (2018) 140 (1996) 2110 170 280 340 397 719 1660 2560 7040 13500
2021-02-25 02:00 7.16 3050 19900 (2018) 140 (1996) 2110 170 280 340 397 719 1660 2560 7040 13500
2021-02-25 01:30 7.21 3100 19900 (2018) 140 (1996) 2110 170 280 340 397 719 1660 2560 7040 13500
2021-02-25 01:00 7.23 3120 19900 (2018) 140 (1996) 2110 170 280 340 397 719 1660 2560 7040 13500
2021-02-25 00:30 7.27 3160 19900 (2018) 140 (1996) 2110 170 280 340 397 719 1660 2560 7040 13500
2021-02-25 00:00 7.31 3210 19900 (2018) 140 (1996) 2110 170 280 340 397 719 1660 2560 7040 13500
2021-02-24 23:30 7.34 3240 19700 (1985) 145 (1996) 1860 175 281 356 380 737 1240 1510 2620 15700
2021-02-24 23:00 7.38 3280 19700 (1985) 145 (1996) 1860 175 281 356 380 737 1240 1510 2620 15700
2021-02-24 22:30 7.41 3310 19700 (1985) 145 (1996) 1860 175 281 356 380 737 1240 1510 2620 15700
2021-02-24 22:00 7.44 3350 19700 (1985) 145 (1996) 1860 175 281 356 380 737 1240 1510 2620 15700
2021-02-24 21:30 7.46 3370 19700 (1985) 145 (1996) 1860 175 281 356 380 737 1240 1510 2620 15700
2021-02-24 21:00 7.49 3400 19700 (1985) 145 (1996) 1860 175 281 356 380 737 1240 1510 2620 15700
2021-02-24 20:30 7.50 3410 19700 (1985) 145 (1996) 1860 175 281 356 380 737 1240 1510 2620 15700
2021-02-24 20:00 7.53 3450 19700 (1985) 145 (1996) 1860 175 281 356 380 737 1240 1510 2620 15700
2021-02-24 19:30 7.55 3470 19700 (1985) 145 (1996) 1860 175 281 356 380 737 1240 1510 2620 15700
2021-02-24 19:00 7.56 3480 19700 (1985) 145 (1996) 1860 175 281 356 380 737 1240 1510 2620 15700
2021-02-24 18:30 7.58 3500 19700 (1985) 145 (1996) 1860 175 281 356 380 737 1240 1510 2620 15700
2021-02-24 18:00 7.59 3520 19700 (1985) 145 (1996) 1860 175 281 356 380 737 1240 1510 2620 15700
2021-02-24 17:30 7.63 3560 19700 (1985) 145 (1996) 1860 175 281 356 380 737 1240 1510 2620 15700
2021-02-24 17:00 7.64 3570 19700 (1985) 145 (1996) 1860 175 281 356 380 737 1240 1510 2620 15700
2021-02-24 16:30 7.66 3600 19700 (1985) 145 (1996) 1860 175 281 356 380 737 1240 1510 2620 15700
2021-02-24 16:00 7.68 3620 19700 (1985) 145 (1996) 1860 175 281 356 380 737 1240 1510 2620 15700
2021-02-24 15:30 7.70 3640 19700 (1985) 145 (1996) 1860 175 281 356 380 737 1240 1510 2620 15700
2021-02-24 15:00 7.74 3690 19700 (1985) 145 (1996) 1860 175 281 356 380 737 1240 1510 2620 15700
2021-02-24 14:30 7.78 3740 19700 (1985) 145 (1996) 1860 175 281 356 380 737 1240 1510 2620 15700
2021-02-24 14:00 7.81 3770 19700 (1985) 145 (1996) 1860 175 281 356 380 737 1240 1510 2620 15700
2021-02-24 13:30 7.84 3810 19700 (1985) 145 (1996) 1860 175 281 356 380 737 1240 1510 2620 15700
2021-02-24 13:00 7.88 3850 19700 (1985) 145 (1996) 1860 175 281 356 380 737 1240 1510 2620 15700
2021-02-24 12:30 7.88 3850 19700 (1985) 145 (1996) 1860 175 281 356 380 737 1240 1510 2620 15700
2021-02-24 12:00 7.91 3890 19700 (1985) 145 (1996) 1860 175 281 356 380 737 1240 1510 2620 15700
2021-02-24 11:30 7.92 3900 19700 (1985) 145 (1996) 1860 175 281 356 380 737 1240 1510 2620 15700
2021-02-24 11:00 7.93 3910 19700 (1985) 145 (1996) 1860 175 281 356 380 737 1240 1510 2620 15700
2021-02-24 10:30 7.95 3940 19700 (1985) 145 (1996) 1860 175 281 356 380 737 1240 1510 2620 15700
2021-02-24 10:00 7.94 3930 19700 (1985) 145 (1996) 1860 175 281 356 380 737 1240 1510 2620 15700
2021-02-24 09:30 7.93 3910 19700 (1985) 145 (1996) 1860 175 281 356 380 737 1240 1510 2620 15700
2021-02-24 09:00 7.92 3900 19700 (1985) 145 (1996) 1860 175 281 356 380 737 1240 1510 2620 15700
2021-02-24 08:30 7.88 3850 19700 (1985) 145 (1996) 1860 175 281 356 380 737 1240 1510 2620 15700
2021-02-24 08:00 7.85 3820 19700 (1985) 145 (1996) 1860 175 281 356 380 737 1240 1510 2620 15700
2021-02-24 07:30 7.81 3770 19700 (1985) 145 (1996) 1860 175 281 356 380 737 1240 1510 2620 15700
2021-02-24 07:00 7.77 3720 19700 (1985) 145 (1996) 1860 175 281 356 380 737 1240 1510 2620 15700
2021-02-24 06:30 7.72 3660 19700 (1985) 145 (1996) 1860 175 281 356 380 737 1240 1510 2620 15700
2021-02-24 06:00 7.68 3620 19700 (1985) 145 (1996) 1860 175 281 356 380 737 1240 1510 2620 15700
2021-02-24 05:30 7.63 3560 19700 (1985) 145 (1996) 1860 175 281 356 380 737 1240 1510 2620 15700
2021-02-24 05:00 7.60 3530 19700 (1985) 145 (1996) 1860 175 281 356 380 737 1240 1510 2620 15700
2021-02-24 04:30 7.55 3470 19700 (1985) 145 (1996) 1860 175 281 356 380 737 1240 1510 2620 15700
2021-02-24 04:00 7.49 3400 19700 (1985) 145 (1996) 1860 175 281 356 380 737 1240 1510 2620 15700
2021-02-24 03:30 7.46 3370 19700 (1985) 145 (1996) 1860 175 281 356 380 737 1240 1510 2620 15700
2021-02-24 03:00 7.41 3310 19700 (1985) 145 (1996) 1860 175 281 356 380 737 1240 1510 2620 15700
2021-02-24 02:30 7.34 3240 19700 (1985) 145 (1996) 1860 175 281 356 380 737 1240 1510 2620 15700
2021-02-24 02:00 7.28 3170 19700 (1985) 145 (1996) 1860 175 281 356 380 737 1240 1510 2620 15700
2021-02-24 01:30 7.21 3100 19700 (1985) 145 (1996) 1860 175 281 356 380 737 1240 1510 2620 15700
2021-02-24 01:00 7.15 3030 19700 (1985) 145 (1996) 1860 175 281 356 380 737 1240 1510 2620 15700
2021-02-24 00:30 7.07 2950 19700 (1985) 145 (1996) 1860 175 281 356 380 737 1240 1510 2620 15700
2021-02-24 00:00 7.02 2900 19700 (1985) 145 (1996) 1860 175 281 356 380 737 1240 1510 2620 15700
2021-02-23 23:30 6.97 2850 24300 (1985) 150 (1996) 1960 175 283 384 386 640 1640 1940 4470 15300
2021-02-23 23:00 6.91 2800 24300 (1985) 150 (1996) 1960 175 283 384 386 640 1640 1940 4470 15300
2021-02-23 22:30 6.80 2700 24300 (1985) 150 (1996) 1960 175 283 384 386 640 1640 1940 4470 15300
2021-02-23 22:00 6.72 2630 24300 (1985) 150 (1996) 1960 175 283 384 386 640 1640 1940 4470 15300
2021-02-23 21:30 6.64 2560 24300 (1985) 150 (1996) 1960 175 283 384 386 640 1640 1940 4470 15300
2021-02-23 21:00 6.60 2520 24300 (1985) 150 (1996) 1960 175 283 384 386 640 1640 1940 4470 15300
2021-02-23 20:30 6.55 2480 24300 (1985) 150 (1996) 1960 175 283 384 386 640 1640 1940 4470 15300
2021-02-23 20:00 6.50 2440 24300 (1985) 150 (1996) 1960 175 283 384 386 640 1640 1940 4470 15300
2021-02-23 19:30 6.47 2410 24300 (1985) 150 (1996) 1960 175 283 384 386 640 1640 1940 4470 15300
2021-02-23 19:00 6.45 2390 24300 (1985) 150 (1996) 1960 175 283 384 386 640 1640 1940 4470 15300
2021-02-23 18:30 6.43 2380 24300 (1985) 150 (1996) 1960 175 283 384 386 640 1640 1940 4470 15300
2021-02-23 18:00 6.42 2370 24300 (1985) 150 (1996) 1960 175 283 384 386 640 1640 1940 4470 15300
2021-02-23 17:30 6.40 2350 24300 (1985) 150 (1996) 1960 175 283 384 386 640 1640 1940 4470 15300
2021-02-23 17:00 6.41 2360 24300 (1985) 150 (1996) 1960 175 283 384 386 640 1640 1940 4470 15300
2021-02-23 16:30 6.43 2380 24300 (1985) 150 (1996) 1960 175 283 384 386 640 1640 1940 4470 15300
2021-02-23 16:00 6.43 2380 24300 (1985) 150 (1996) 1960 175 283 384 386 640 1640 1940 4470 15300
2021-02-23 15:30 6.41 2360 24300 (1985) 150 (1996) 1960 175 283 384 386 640 1640 1940 4470 15300
2021-02-23 15:00 6.40 2350 24300 (1985) 150 (1996) 1960 175 283 384 386 640 1640 1940 4470 15300
2021-02-23 14:30 6.38 2340 24300 (1985) 150 (1996) 1960 175 283 384 386 640 1640 1940 4470 15300
2021-02-23 14:00 6.37 2330 24300 (1985) 150 (1996) 1960 175 283 384 386 640 1640 1940 4470 15300
2021-02-23 13:30 6.34 2300 24300 (1985) 150 (1996) 1960 175 283 384 386 640 1640 1940 4470 15300
2021-02-23 13:00 6.28 2250 24300 (1985) 150 (1996) 1960 175 283 384 386 640 1640 1940 4470 15300
2021-02-23 12:30 6.21 2200 24300 (1985) 150 (1996) 1960 175 283 384 386 640 1640 1940 4470 15300
2021-02-23 12:00 6.12 2130 24300 (1985) 150 (1996) 1960 175 283 384 386 640 1640 1940 4470 15300
2021-02-23 11:30 6.00 2030 24300 (1985) 150 (1996) 1960 175 283 384 386 640 1640 1940 4470 15300
2021-02-23 11:00 5.87 1930 24300 (1985) 150 (1996) 1960 175 283 384 386 640 1640 1940 4470 15300
2021-02-23 10:30 5.75 1850 24300 (1985) 150 (1996) 1960 175 283 384 386 640 1640 1940 4470 15300
2021-02-23 10:00 5.62 1750 24300 (1985) 150 (1996) 1960 175 283 384 386 640 1640 1940 4470 15300
2021-02-23 09:30 5.49 1660 24300 (1985) 150 (1996) 1960 175 283 384 386 640 1640 1940 4470 15300
2021-02-23 09:00 5.41 1610 24300 (1985) 150 (1996) 1960 175 283 384 386 640 1640 1940 4470 15300
2021-02-23 08:30 5.34 1560 24300 (1985) 150 (1996) 1960 175 283 384 386 640 1640 1940 4470 15300
2021-02-23 08:00 5.26 1510 24300 (1985) 150 (1996) 1960 175 283 384 386 640 1640 1940 4470 15300
2021-02-23 07:30 5.21 1470 24300 (1985) 150 (1996) 1960 175 283 384 386 640 1640 1940 4470 15300
2021-02-23 07:00 5.12 1420 24300 (1985) 150 (1996) 1960 175 283 384 386 640 1640 1940 4470 15300
2021-02-23 06:30 5.04 1370 24300 (1985) 150 (1996) 1960 175 283 384 386 640 1640 1940 4470 15300
2021-02-23 06:00 4.94 1300 24300 (1985) 150 (1996) 1960 175 283 384 386 640 1640 1940 4470 15300
2021-02-23 05:30 4.83 1240 24300 (1985) 150 (1996) 1960 175 283 384 386 640 1640 1940 4470 15300
2021-02-23 05:00 4.74 1190 24300 (1985) 150 (1996) 1960 175 283 384 386 640 1640 1940 4470 15300
2021-02-23 04:30 4.65 1140 24300 (1985) 150 (1996) 1960 175 283 384 386 640 1640 1940 4470 15300
2021-02-23 04:00 4.57 1090 24300 (1985) 150 (1996) 1960 175 283 384 386 640 1640 1940 4470 15300
2021-02-23 03:30 4.47 1040 24300 (1985) 150 (1996) 1960 175 283 384 386 640 1640 1940 4470 15300
2021-02-23 03:00 4.36 972 24300 (1985) 150 (1996) 1960 175 283 384 386 640 1640 1940 4470 15300
2021-02-23 02:30 4.22 894 24300 (1985) 150 (1996) 1960 175 283 384 386 640 1640 1940 4470 15300
2021-02-23 02:00 4.07 814 24300 (1985) 150 (1996) 1960 175 283 384 386 640 1640 1940 4470 15300
2021-02-23 01:30 3.92 738 24300 (1985) 150 (1996) 1960 175 283 384 386 640 1640 1940 4470 15300
2021-02-23 01:00 3.78 671 24300 (1985) 150 (1996) 1960 175 283 384 386 640 1640 1940 4470 15300
2021-02-23 00:30 3.66 617 24300 (1985) 150 (1996) 1960 175 283 384 386 640 1640 1940 4470 15300
2021-02-23 00:00 3.57 577 24300 (1985) 150 (1996) 1960 175 283 384 386 640 1640 1940 4470 15300
2021-02-22 23:30 3.48 539 9150 (2018) 155 (1996) 1420 178 271 402 422 717 1310 1420 3510 7500
2021-02-22 23:00 3.42 515 9150 (2018) 155 (1996) 1420 178 271 402 422 717 1310 1420 3510 7500
2021-02-22 22:30 3.37 495 9150 (2018) 155 (1996) 1420 178 271 402 422 717 1310 1420 3510 7500
2021-02-22 22:00 3.32 475 9150 (2018) 155 (1996) 1420 178 271 402 422 717 1310 1420 3510 7500
2021-02-22 21:30 3.28 460 9150 (2018) 155 (1996) 1420 178 271 402 422 717 1310 1420 3510 7500
2021-02-22 21:00 3.26 452 9150 (2018) 155 (1996) 1420 178 271 402 422 717 1310 1420 3510 7500
2021-02-22 20:30 3.23 441 9150 (2018) 155 (1996) 1420 178 271 402 422 717 1310 1420 3510 7500
2021-02-22 20:00 3.21 433 9150 (2018) 155 (1996) 1420 178 271 402 422 717 1310 1420 3510 7500
2021-02-22 19:30 3.20 430 9150 (2018) 155 (1996) 1420 178 271 402 422 717 1310 1420 3510 7500
2021-02-22 19:00 3.18 422 9150 (2018) 155 (1996) 1420 178 271 402 422 717 1310 1420 3510 7500
2021-02-22 18:30 3.17 419 9150 (2018) 155 (1996) 1420 178 271 402 422 717 1310 1420 3510 7500
2021-02-22 18:00 3.15 412 9150 (2018) 155 (1996) 1420 178 271 402 422 717 1310 1420 3510 7500
2021-02-22 17:30 3.13 404 9150 (2018) 155 (1996) 1420 178 271 402 422 717 1310 1420 3510 7500
2021-02-22 17:00 3.12 401 9150 (2018) 155 (1996) 1420 178 271 402 422 717 1310 1420 3510 7500
2021-02-22 16:30 3.11 397 9150 (2018) 155 (1996) 1420 178 271 402 422 717 1310 1420 3510 7500
2021-02-22 16:00 3.10 394 9150 (2018) 155 (1996) 1420 178 271 402 422 717 1310 1420 3510 7500
2021-02-22 15:30 3.09 390 9150 (2018) 155 (1996) 1420 178 271 402 422 717 1310 1420 3510 7500
2021-02-22 15:00 3.07 383 9150 (2018) 155 (1996) 1420 178 271 402 422 717 1310 1420 3510 7500
2021-02-22 14:30 3.05 377 9150 (2018) 155 (1996) 1420 178 271 402 422 717 1310 1420 3510 7500
2021-02-22 14:00 3.03 370 9150 (2018) 155 (1996) 1420 178 271 402 422 717 1310 1420 3510 7500
2021-02-22 13:30 3.02 366 9150 (2018) 155 (1996) 1420 178 271 402 422 717 1310 1420 3510 7500
2021-02-22 13:00 3.01 363 9150 (2018) 155 (1996) 1420 178 271 402 422 717 1310 1420 3510 7500
2021-02-22 12:30 3.01 363 9150 (2018) 155 (1996) 1420 178 271 402 422 717 1310 1420 3510 7500
2021-02-22 12:00 3.00 360 9150 (2018) 155 (1996) 1420 178 271 402 422 717 1310 1420 3510 7500
2021-02-22 11:30 2.99 356 9150 (2018) 155 (1996) 1420 178 271 402 422 717 1310 1420 3510 7500
2021-02-22 11:00 2.99 356 9150 (2018) 155 (1996) 1420 178 271 402 422 717 1310 1420 3510 7500
2021-02-22 10:30 2.99 356 9150 (2018) 155 (1996) 1420 178 271 402 422 717 1310 1420 3510 7500
2021-02-22 10:00 2.98 353 9150 (2018) 155 (1996) 1420 178 271 402 422 717 1310 1420 3510 7500
2021-02-22 09:30 2.98 353 9150 (2018) 155 (1996) 1420 178 271 402 422 717 1310 1420 3510 7500
2021-02-22 09:00 2.97 350 9150 (2018) 155 (1996) 1420 178 271 402 422 717 1310 1420 3510 7500
2021-02-22 08:30 2.97 350 9150 (2018) 155 (1996) 1420 178 271 402 422 717 1310 1420 3510 7500
2021-02-22 08:00 2.97 350 9150 (2018) 155 (1996) 1420 178 271 402 422 717 1310 1420 3510 7500
2021-02-22 07:30 2.96 346 9150 (2018) 155 (1996) 1420 178 271 402 422 717 1310 1420 3510 7500
2021-02-22 07:00 2.96 346 9150 (2018) 155 (1996) 1420 178 271 402 422 717 1310 1420 3510 7500
2021-02-22 06:30 2.96 346 9150 (2018) 155 (1996) 1420 178 271 402 422 717 1310 1420 3510 7500
2021-02-22 06:00 2.96 346 9150 (2018) 155 (1996) 1420 178 271 402 422 717 1310 1420 3510 7500
2021-02-22 05:30 2.96 346 9150 (2018) 155 (1996) 1420 178 271 402 422 717 1310 1420 3510 7500
2021-02-22 05:00 2.95 343 9150 (2018) 155 (1996) 1420 178 271 402 422 717 1310 1420 3510 7500
2021-02-22 04:30 2.95 343 9150 (2018) 155 (1996) 1420 178 271 402 422 717 1310 1420 3510 7500
2021-02-22 04:00 2.95 343 9150 (2018) 155 (1996) 1420 178 271 402 422 717 1310 1420 3510 7500
2021-02-22 03:30 2.95 343 9150 (2018) 155 (1996) 1420 178 271 402 422 717 1310 1420 3510 7500
2021-02-22 03:00 2.94 340 9150 (2018) 155 (1996) 1420 178 271 402 422 717 1310 1420 3510 7500
2021-02-22 02:30 2.94 340 9150 (2018) 155 (1996) 1420 178 271 402 422 717 1310 1420 3510 7500
2021-02-22 02:00 2.94 340 9150 (2018) 155 (1996) 1420 178 271 402 422 717 1310 1420 3510 7500
2021-02-22 01:30 2.94 340 9150 (2018) 155 (1996) 1420 178 271 402 422 717 1310 1420 3510 7500
2021-02-22 01:00 2.94 340 9150 (2018) 155 (1996) 1420 178 271 402 422 717 1310 1420 3510 7500
2021-02-22 00:30 2.94 340 9150 (2018) 155 (1996) 1420 178 271 402 422 717 1310 1420 3510 7500
2021-02-22 00:00 2.94 340 9150 (2018) 155 (1996) 1420 178 271 402 422 717 1310 1420 3510 7500
2021-02-21 23:30 2.93 337 13500 (2018) 159 (1996) 1530 181 208 419 467 682 1080 1520 4380 10600
2021-02-21 23:00 2.93 337 13500 (2018) 159 (1996) 1530 181 208 419 467 682 1080 1520 4380 10600
2021-02-21 22:30 2.93 337 13500 (2018) 159 (1996) 1530 181 208 419 467 682 1080 1520 4380 10600
2021-02-21 22:00 2.93 337 13500 (2018) 159 (1996) 1530 181 208 419 467 682 1080 1520 4380 10600
2021-02-21 21:30 2.93 337 13500 (2018) 159 (1996) 1530 181 208 419 467 682 1080 1520 4380 10600
2021-02-21 21:00 2.93 337 13500 (2018) 159 (1996) 1530 181 208 419 467 682 1080 1520 4380 10600
2021-02-21 20:30 2.93 337 13500 (2018) 159 (1996) 1530 181 208 419 467 682 1080 1520 4380 10600
2021-02-21 20:00 2.93 337 13500 (2018) 159 (1996) 1530 181 208 419 467 682 1080 1520 4380 10600
2021-02-21 19:30 2.93 337 13500 (2018) 159 (1996) 1530 181 208 419 467 682 1080 1520 4380 10600
2021-02-21 19:00 2.93 337 13500 (2018) 159 (1996) 1530 181 208 419 467 682 1080 1520 4380 10600
2021-02-21 18:30 2.92 333 13500 (2018) 159 (1996) 1530 181 208 419 467 682 1080 1520 4380 10600
2021-02-21 18:00 2.92 333 13500 (2018) 159 (1996) 1530 181 208 419 467 682 1080 1520 4380 10600
2021-02-21 17:30 2.92 333 13500 (2018) 159 (1996) 1530 181 208 419 467 682 1080 1520 4380 10600
2021-02-21 17:00 2.92 333 13500 (2018) 159 (1996) 1530 181 208 419 467 682 1080 1520 4380 10600
2021-02-21 16:30 2.92 333 13500 (2018) 159 (1996) 1530 181 208 419 467 682 1080 1520 4380 10600
2021-02-21 16:00 2.92 333 13500 (2018) 159 (1996) 1530 181 208 419 467 682 1080 1520 4380 10600
2021-02-21 15:30 2.93 337 13500 (2018) 159 (1996) 1530 181 208 419 467 682 1080 1520 4380 10600
2021-02-21 15:00 2.92 333 13500 (2018) 159 (1996) 1530 181 208 419 467 682 1080 1520 4380 10600
2021-02-21 14:30 2.91 330 13500 (2018) 159 (1996) 1530 181 208 419 467 682 1080 1520 4380 10600
2021-02-21 14:00 2.92 333 13500 (2018) 159 (1996) 1530 181 208 419 467 682 1080 1520 4380 10600
2021-02-21 13:30 2.93 337 13500 (2018) 159 (1996) 1530 181 208 419 467 682 1080 1520 4380 10600
2021-02-21 13:00 2.92 333 13500 (2018) 159 (1996) 1530 181 208 419 467 682 1080 1520 4380 10600
2021-02-21 12:30 2.92 333 13500 (2018) 159 (1996) 1530 181 208 419 467 682 1080 1520 4380 10600
2021-02-21 12:00 2.93 337 13500 (2018) 159 (1996) 1530 181 208 419 467 682 1080 1520 4380 10600
2021-02-21 11:30 2.93 337 13500 (2018) 159 (1996) 1530 181 208 419 467 682 1080 1520 4380 10600
2021-02-21 11:00 2.93 337 13500 (2018) 159 (1996) 1530 181 208 419 467 682 1080 1520 4380 10600
2021-02-21 10:30 2.93 337 13500 (2018) 159 (1996) 1530 181 208 419 467 682 1080 1520 4380 10600
2021-02-21 10:00 2.93 337 13500 (2018) 159 (1996) 1530 181 208 419 467 682 1080 1520 4380 10600
2021-02-21 09:30 2.93 337 13500 (2018) 159 (1996) 1530 181 208 419 467 682 1080 1520 4380 10600
2021-02-21 09:00 2.93 337 13500 (2018) 159 (1996) 1530 181 208 419 467 682 1080 1520 4380 10600
2021-02-21 08:30 2.94 340 13500 (2018) 159 (1996) 1530 181 208 419 467 682 1080 1520 4380 10600
2021-02-21 08:00 2.94 340 13500 (2018) 159 (1996) 1530 181 208 419 467 682 1080 1520 4380 10600
2021-02-21 07:30 2.94 340 13500 (2018) 159 (1996) 1530 181 208 419 467 682 1080 1520 4380 10600
2021-02-21 07:00 2.94 340 13500 (2018) 159 (1996) 1530 181 208 419 467 682 1080 1520 4380 10600
2021-02-21 06:30 2.94 340 13500 (2018) 159 (1996) 1530 181 208 419 467 682 1080 1520 4380 10600
2021-02-21 06:00 2.94 340 13500 (2018) 159 (1996) 1530 181 208 419 467 682 1080 1520 4380 10600
2021-02-21 05:30 2.94 340 13500 (2018) 159 (1996) 1530 181 208 419 467 682 1080 1520 4380 10600
2021-02-21 05:00 2.94 340 13500 (2018) 159 (1996) 1530 181 208 419 467 682 1080 1520 4380 10600
2021-02-21 04:30 2.94 340 13500 (2018) 159 (1996) 1530 181 208 419 467 682 1080 1520 4380 10600
2021-02-21 04:00 2.94 340 13500 (2018) 159 (1996) 1530 181 208 419 467 682 1080 1520 4380 10600
2021-02-21 03:30 2.95 343 13500 (2018) 159 (1996) 1530 181 208 419 467 682 1080 1520 4380 10600
2021-02-21 03:00 2.94 340 13500 (2018) 159 (1996) 1530 181 208 419 467 682 1080 1520 4380 10600
2021-02-21 02:30 2.95 343 13500 (2018) 159 (1996) 1530 181 208 419 467 682 1080 1520 4380 10600
2021-02-21 02:00 2.94 340 13500 (2018) 159 (1996) 1530 181 208 419 467 682 1080 1520 4380 10600
2021-02-21 01:30 2.94 340 13500 (2018) 159 (1996) 1530 181 208 419 467 682 1080 1520 4380 10600
2021-02-21 01:00 2.95 343 13500 (2018) 159 (1996) 1530 181 208 419 467 682 1080 1520 4380 10600
2021-02-21 00:30 2.95 343 13500 (2018) 159 (1996) 1530 181 208 419 467 682 1080 1520 4380 10600
2021-02-21 00:00 2.94 340 13500 (2018) 159 (1996) 1530 181 208 419 467 682 1080 1520 4380 10600
2021-02-20 23:30 2.95 343 10200 (2019) 162 (1996) 1170 171 196 322 388 695 1030 1070 2550 7020
2021-02-20 23:00 2.95 343 10200 (2019) 162 (1996) 1170 171 196 322 388 695 1030 1070 2550 7020
2021-02-20 22:30 2.94 340 10200 (2019) 162 (1996) 1170 171 196 322 388 695 1030 1070 2550 7020
2021-02-20 22:00 2.94 340 10200 (2019) 162 (1996) 1170 171 196 322 388 695 1030 1070 2550 7020
2021-02-20 21:30 2.95 343 10200 (2019) 162 (1996) 1170 171 196 322 388 695 1030 1070 2550 7020
2021-02-20 21:00 2.94 340 10200 (2019) 162 (1996) 1170 171 196 322 388 695 1030 1070 2550 7020
2021-02-20 20:30 2.94 340 10200 (2019) 162 (1996) 1170 171 196 322 388 695 1030 1070 2550 7020
2021-02-20 20:00 2.94 340 10200 (2019) 162 (1996) 1170 171 196 322 388 695 1030 1070 2550 7020
2021-02-20 19:30 2.94 340 10200 (2019) 162 (1996) 1170 171 196 322 388 695 1030 1070 2550 7020
2021-02-20 19:00 2.94 340 10200 (2019) 162 (1996) 1170 171 196 322 388 695 1030 1070 2550 7020
2021-02-20 18:30 2.94 340 10200 (2019) 162 (1996) 1170 171 196 322 388 695 1030 1070 2550 7020
2021-02-20 18:00 2.94 340 10200 (2019) 162 (1996) 1170 171 196 322 388 695 1030 1070 2550 7020
2021-02-20 17:30 2.95 343 10200 (2019) 162 (1996) 1170 171 196 322 388 695 1030 1070 2550 7020
2021-02-20 17:00 2.96 346 10200 (2019) 162 (1996) 1170 171 196 322 388 695 1030 1070 2550 7020
2021-02-20 16:30 2.96 346 10200 (2019) 162 (1996) 1170 171 196 322 388 695 1030 1070 2550 7020
2021-02-20 16:00 2.97 350 10200 (2019) 162 (1996) 1170 171 196 322 388 695 1030 1070 2550 7020
2021-02-20 15:30 2.98 353 10200 (2019) 162 (1996) 1170 171 196 322 388 695 1030 1070 2550 7020
2021-02-20 15:00 2.98 353 10200 (2019) 162 (1996) 1170 171 196 322 388 695 1030 1070 2550 7020
2021-02-20 14:30 2.98 353 10200 (2019) 162 (1996) 1170 171 196 322 388 695 1030 1070 2550 7020
2021-02-20 14:00 2.97 350 10200 (2019) 162 (1996) 1170 171 196 322 388 695 1030 1070 2550 7020
2021-02-20 13:30 2.97 350 10200 (2019) 162 (1996) 1170 171 196 322 388 695 1030 1070 2550 7020
2021-02-20 13:00 2.96 346 10200 (2019) 162 (1996) 1170 171 196 322 388 695 1030 1070 2550 7020
2021-02-20 12:30 2.95 343 10200 (2019) 162 (1996) 1170 171 196 322 388 695 1030 1070 2550 7020
2021-02-20 12:00 2.94 340 10200 (2019) 162 (1996) 1170 171 196 322 388 695 1030 1070 2550 7020
2021-02-20 11:30 2.93 337 10200 (2019) 162 (1996) 1170 171 196 322 388 695 1030 1070 2550 7020
2021-02-20 11:00 2.91 330 10200 (2019) 162 (1996) 1170 171 196 322 388 695 1030 1070 2550 7020
2021-02-20 10:30 2.92 333 10200 (2019) 162 (1996) 1170 171 196 322 388 695 1030 1070 2550 7020
2021-02-20 10:00 2.91 330 10200 (2019) 162 (1996) 1170 171 196 322 388 695 1030 1070 2550 7020
2021-02-20 09:30 2.91 330 10200 (2019) 162 (1996) 1170 171 196 322 388 695 1030 1070 2550 7020
2021-02-20 09:00 2.92 333 10200 (2019) 162 (1996) 1170 171 196 322 388 695 1030 1070 2550 7020
2021-02-20 08:30 2.93 337 10200 (2019) 162 (1996) 1170 171 196 322 388 695 1030 1070 2550 7020
2021-02-20 08:00 2.93 337 10200 (2019) 162 (1996) 1170 171 196 322 388 695 1030 1070 2550 7020
2021-02-20 07:30 2.94 340 10200 (2019) 162 (1996) 1170 171 196 322 388 695 1030 1070 2550 7020
2021-02-20 07:00 2.95 343 10200 (2019) 162 (1996) 1170 171 196 322 388 695 1030 1070 2550 7020
2021-02-20 06:30 2.95 343 10200 (2019) 162 (1996) 1170 171 196 322 388 695 1030 1070 2550 7020
2021-02-20 06:00 2.96 346 10200 (2019) 162 (1996) 1170 171 196 322 388 695 1030 1070 2550 7020
2021-02-20 05:30 2.97 350 10200 (2019) 162 (1996) 1170 171 196 322 388 695 1030 1070 2550 7020
2021-02-20 05:00 2.97 350 10200 (2019) 162 (1996) 1170 171 196 322 388 695 1030 1070 2550 7020
2021-02-20 04:30 2.98 353 10200 (2019) 162 (1996) 1170 171 196 322 388 695 1030 1070 2550 7020
2021-02-20 04:00 2.98 353 10200 (2019) 162 (1996) 1170 171 196 322 388 695 1030 1070 2550 7020
2021-02-20 03:30 2.98 353 10200 (2019) 162 (1996) 1170 171 196 322 388 695 1030 1070 2550 7020
2021-02-20 03:00 2.99 356 10200 (2019) 162 (1996) 1170 171 196 322 388 695 1030 1070 2550 7020
2021-02-20 02:30 2.98 353 10200 (2019) 162 (1996) 1170 171 196 322 388 695 1030 1070 2550 7020
2021-02-20 02:00 2.99 356 10200 (2019) 162 (1996) 1170 171 196 322 388 695 1030 1070 2550 7020
2021-02-20 01:30 2.98 353 10200 (2019) 162 (1996) 1170 171 196 322 388 695 1030 1070 2550 7020
2021-02-20 01:00 2.99 356 10200 (2019) 162 (1996) 1170 171 196 322 388 695 1030 1070 2550 7020
2021-02-20 00:30 2.99 356 10200 (2019) 162 (1996) 1170 171 196 322 388 695 1030 1070 2550 7020
2021-02-20 00:00 2.99 356 10200 (2019) 162 (1996) 1170 171 196 322 388 695 1030 1070 2550 7020
2021-02-19 23:30 2.99 356 3790 (2008) 162 (1996) 888 168 179 280 348 750 1070 1360 2040 2970
2021-02-19 23:00 2.98 353 3790 (2008) 162 (1996) 888 168 179 280 348 750 1070 1360 2040 2970
2021-02-19 22:30 2.98 353 3790 (2008) 162 (1996) 888 168 179 280 348 750 1070 1360 2040 2970
2021-02-19 22:00 2.98 353 3790 (2008) 162 (1996) 888 168 179 280 348 750 1070 1360 2040 2970
2021-02-19 21:30 2.98 353 3790 (2008) 162 (1996) 888 168 179 280 348 750 1070 1360 2040 2970
2021-02-19 21:00 2.98 353 3790 (2008) 162 (1996) 888 168 179 280 348 750 1070 1360 2040 2970
2021-02-19 20:30 2.98 353 3790 (2008) 162 (1996) 888 168 179 280 348 750 1070 1360 2040 2970
2021-02-19 20:00 2.98 353 3790 (2008) 162 (1996) 888 168 179 280 348 750 1070 1360 2040 2970
2021-02-19 19:30 2.98 353 3790 (2008) 162 (1996) 888 168 179 280 348 750 1070 1360 2040 2970
2021-02-19 19:00 2.98 353 3790 (2008) 162 (1996) 888 168 179 280 348 750 1070 1360 2040 2970
2021-02-19 18:30 2.98 353 3790 (2008) 162 (1996) 888 168 179 280 348 750 1070 1360 2040 2970
2021-02-19 18:00 2.99 356 3790 (2008) 162 (1996) 888 168 179 280 348 750 1070 1360 2040 2970
2021-02-19 17:30 3.00 360 3790 (2008) 162 (1996) 888 168 179 280 348 750 1070 1360 2040 2970
2021-02-19 17:00 3.01 363 3790 (2008) 162 (1996) 888 168 179 280 348 750 1070 1360 2040 2970
2021-02-19 16:30 3.02 366 3790 (2008) 162 (1996) 888 168 179 280 348 750 1070 1360 2040 2970
2021-02-19 16:00 3.04 373 3790 (2008) 162 (1996) 888 168 179 280 348 750 1070 1360 2040 2970
2021-02-19 15:30 3.05 377 3790 (2008) 162 (1996) 888 168 179 280 348 750 1070 1360 2040 2970
2021-02-19 15:00 3.05 377 3790 (2008) 162 (1996) 888 168 179 280 348 750 1070 1360 2040 2970
2021-02-19 14:30 3.04 373 3790 (2008) 162 (1996) 888 168 179 280 348 750 1070 1360 2040 2970
2021-02-19 14:00 3.03 370 3790 (2008) 162 (1996) 888 168 179 280 348 750 1070 1360 2040 2970
2021-02-19 13:30 3.01 363 3790 (2008) 162 (1996) 888 168 179 280 348 750 1070 1360 2040 2970
2021-02-19 13:00 3.00 360 3790 (2008) 162 (1996) 888 168 179 280 348 750 1070 1360 2040 2970
2021-02-19 12:30 2.98 353 3790 (2008) 162 (1996) 888 168 179 280 348 750 1070 1360 2040 2970
2021-02-19 12:00 2.95 343 3790 (2008) 162 (1996) 888 168 179 280 348 750 1070 1360 2040 2970
2021-02-19 11:30 2.94 340 3790 (2008) 162 (1996) 888 168 179 280 348 750 1070 1360 2040 2970
2021-02-19 11:00 2.92 333 3790 (2008) 162 (1996) 888 168 179 280 348 750 1070 1360 2040 2970
2021-02-19 10:30 2.91 330 3790 (2008) 162 (1996) 888 168 179 280 348 750 1070 1360 2040 2970
2021-02-19 10:00 2.90 327 3790 (2008) 162 (1996) 888 168 179 280 348 750 1070 1360 2040 2970
2021-02-19 09:30 2.90 327 3790 (2008) 162 (1996) 888 168 179 280 348 750 1070 1360 2040 2970
2021-02-19 09:00 2.89 324 3790 (2008) 162 (1996) 888 168 179 280 348 750 1070 1360 2040 2970
2021-02-19 08:30 2.89 324 3790 (2008) 162 (1996) 888 168 179 280 348 750 1070 1360 2040 2970
2021-02-19 08:00 2.89 324 3790 (2008) 162 (1996) 888 168 179 280 348 750 1070 1360 2040 2970
2021-02-19 07:30 2.91 330 3790 (2008) 162 (1996) 888 168 179 280 348 750 1070 1360 2040 2970
2021-02-19 07:00 2.92 333 3790 (2008) 162 (1996) 888 168 179 280 348 750 1070 1360 2040 2970
2021-02-19 06:30 2.93 337 3790 (2008) 162 (1996) 888 168 179 280 348 750 1070 1360 2040 2970
2021-02-19 06:00 2.95 343 3790 (2008) 162 (1996) 888 168 179 280 348 750 1070 1360 2040 2970
2021-02-19 05:30 2.96 346 3790 (2008) 162 (1996) 888 168 179 280 348 750 1070 1360 2040 2970
2021-02-19 05:00 2.97 350 3790 (2008) 162 (1996) 888 168 179 280 348 750 1070 1360 2040 2970
2021-02-19 04:30 2.98 353 3790 (2008) 162 (1996) 888 168 179 280 348 750 1070 1360 2040 2970
2021-02-19 04:00 2.99 356 3790 (2008) 162 (1996) 888 168 179 280 348 750 1070 1360 2040 2970
2021-02-19 03:30 3.00 360 3790 (2008) 162 (1996) 888 168 179 280 348 750 1070 1360 2040 2970
2021-02-19 03:00 3.00 360 3790 (2008) 162 (1996) 888 168 179 280 348 750 1070 1360 2040 2970
2021-02-19 02:30 3.01 363 3790 (2008) 162 (1996) 888 168 179 280 348 750 1070 1360 2040 2970
2021-02-19 02:00 3.02 366 3790 (2008) 162 (1996) 888 168 179 280 348 750 1070 1360 2040 2970
2021-02-19 01:30 3.02 366 3790 (2008) 162 (1996) 888 168 179 280 348 750 1070 1360 2040 2970
2021-02-19 01:00 3.03 370 3790 (2008) 162 (1996) 888 168 179 280 348 750 1070 1360 2040 2970
2021-02-19 00:30 3.02 366 3790 (2008) 162 (1996) 888 168 179 280 348 750 1070 1360 2040 2970
2021-02-19 00:00 3.03 370 3790 (2008) 162 (1996) 888 168 179 280 348 750 1070 1360 2040 2970
2021-02-18 23:30 3.03 370 10300 (2008) 164 (1996) 1090 165 177 288 374 808 1040 1210 1820 6170
2021-02-18 23:00 3.03 370 10300 (2008) 164 (1996) 1090 165 177 288 374 808 1040 1210 1820 6170
2021-02-18 22:30 3.03 370 10300 (2008) 164 (1996) 1090 165 177 288 374 808 1040 1210 1820 6170
2021-02-18 22:00 3.03 370 10300 (2008) 164 (1996) 1090 165 177 288 374 808 1040 1210 1820 6170
2021-02-18 21:30 3.03 370 10300 (2008) 164 (1996) 1090 165 177 288 374 808 1040 1210 1820 6170
2021-02-18 21:00 3.03 370 10300 (2008) 164 (1996) 1090 165 177 288 374 808 1040 1210 1820 6170
2021-02-18 20:30 3.03 370 10300 (2008) 164 (1996) 1090 165 177 288 374 808 1040 1210 1820 6170
2021-02-18 20:00 3.03 370 10300 (2008) 164 (1996) 1090 165 177 288 374 808 1040 1210 1820 6170
2021-02-18 19:30 3.03 370 10300 (2008) 164 (1996) 1090 165 177 288 374 808 1040 1210 1820 6170
2021-02-18 19:00 3.03 370 10300 (2008) 164 (1996) 1090 165 177 288 374 808 1040 1210 1820 6170
2021-02-18 18:30 3.03 370 10300 (2008) 164 (1996) 1090 165 177 288 374 808 1040 1210 1820 6170
2021-02-18 18:00 3.03 370 10300 (2008) 164 (1996) 1090 165 177 288 374 808 1040 1210 1820 6170
2021-02-18 17:30 3.04 373 10300 (2008) 164 (1996) 1090 165 177 288 374 808 1040 1210 1820 6170
2021-02-18 17:00 3.04 373 10300 (2008) 164 (1996) 1090 165 177 288 374 808 1040 1210 1820 6170
2021-02-18 16:30 3.04 373 10300 (2008) 164 (1996) 1090 165 177 288 374 808 1040 1210 1820 6170
2021-02-18 16:00 3.04 373 10300 (2008) 164 (1996) 1090 165 177 288 374 808 1040 1210 1820 6170
2021-02-18 15:30 3.04 373 10300 (2008) 164 (1996) 1090 165 177 288 374 808 1040 1210 1820 6170
2021-02-18 15:00 3.04 373 10300 (2008) 164 (1996) 1090 165 177 288 374 808 1040 1210 1820 6170
2021-02-18 14:30 3.05 377 10300 (2008) 164 (1996) 1090 165 177 288 374 808 1040 1210 1820 6170
2021-02-18 14:00 3.04 373 10300 (2008) 164 (1996) 1090 165 177 288 374 808 1040 1210 1820 6170
2021-02-18 13:30 3.05 377 10300 (2008) 164 (1996) 1090 165 177 288 374 808 1040 1210 1820 6170
2021-02-18 13:00 3.04 373 10300 (2008) 164 (1996) 1090 165 177 288 374 808 1040 1210 1820 6170
2021-02-18 12:30 3.05 377 10300 (2008) 164 (1996) 1090 165 177 288 374 808 1040 1210 1820 6170
2021-02-18 12:00 3.05 377 10300 (2008) 164 (1996) 1090 165 177 288 374 808 1040 1210 1820 6170
2021-02-18 11:30 3.05 377 10300 (2008) 164 (1996) 1090 165 177 288 374 808 1040 1210 1820 6170
2021-02-18 11:00 3.05 377 10300 (2008) 164 (1996) 1090 165 177 288 374 808 1040 1210 1820 6170
2021-02-18 10:30 3.05 377 10300 (2008) 164 (1996) 1090 165 177 288 374 808 1040 1210 1820 6170
2021-02-17 03:30 1.50 39 18400 (2008) 128 (2018) 1480 148 171 267 328 791 1170 1220 3020 10800
2021-02-17 03:00 1.52 41 18400 (2008) 128 (2018) 1480 148 171 267 328 791 1170 1220 3020 10800
2021-02-17 02:30 1.54 43 18400 (2008) 128 (2018) 1480 148 171 267 328 791 1170 1220 3020 10800
2021-02-17 02:00 1.56 45 18400 (2008) 128 (2018) 1480 148 171 267 328 791 1170 1220 3020 10800
2021-02-17 01:30 1.57 46 18400 (2008) 128 (2018) 1480 148 171 267 328 791 1170 1220 3020 10800
2021-02-17 01:00 1.58 47 18400 (2008) 128 (2018) 1480 148 171 267 328 791 1170 1220 3020 10800
2021-02-17 00:30 1.59 48 18400 (2008) 128 (2018) 1480 148 171 267 328 791 1170 1220 3020 10800
2021-02-17 00:00 1.62 52 18400 (2008) 128 (2018) 1480 148 171 267 328 791 1170 1220 3020 10800
2021-02-16 23:30 1.65 55 9650 (1990) 106 (2018) 1280 141 176 280 315 651 1300 1420 2110 8160
2021-02-16 23:00 1.68 59 9650 (1990) 106 (2018) 1280 141 176 280 315 651 1300 1420 2110 8160
2021-02-16 22:30 1.71 63 9650 (1990) 106 (2018) 1280 141 176 280 315 651 1300 1420 2110 8160
2021-02-16 22:00 1.79 74 9650 (1990) 106 (2018) 1280 141 176 280 315 651 1300 1420 2110 8160
2021-02-16 21:30 1.85 83 9650 (1990) 106 (2018) 1280 141 176 280 315 651 1300 1420 2110 8160
2021-02-16 21:00 1.94 97 9650 (1990) 106 (2018) 1280 141 176 280 315 651 1300 1420 2110 8160
2021-02-16 20:30 2.04 114 9650 (1990) 106 (2018) 1280 141 176 280 315 651 1300 1420 2110 8160
2021-02-16 20:00 2.16 137 9650 (1990) 106 (2018) 1280 141 176 280 315 651 1300 1420 2110 8160
2021-02-16 19:30 2.26 157 9650 (1990) 106 (2018) 1280 141 176 280 315 651 1300 1420 2110 8160
2021-02-16 19:00 2.40 189 9650 (1990) 106 (2018) 1280 141 176 280 315 651 1300 1420 2110 8160
2021-02-16 18:30 2.58 234 9650 (1990) 106 (2018) 1280 141 176 280 315 651 1300 1420 2110 8160
2021-02-16 18:00 2.72 273 9650 (1990) 106 (2018) 1280 141 176 280 315 651 1300 1420 2110 8160
2021-02-16 17:30 2.88 321 9650 (1990) 106 (2018) 1280 141 176 280 315 651 1300 1420 2110 8160
2021-02-16 17:15 2.93 337 9650 (1990) 106 (2018) 1280 141 176 280 315 651 1300 1420 2110 8160
2021-02-16 17:00 2.93 337 9650 (1990) 106 (2018) 1280 141 176 280 315 651 1300 1420 2110 8160
2021-02-16 16:30 2.98 353 9650 (1990) 106 (2018) 1280 141 176 280 315 651 1300 1420 2110 8160
2021-02-16 16:00 3.01 363 9650 (1990) 106 (2018) 1280 141 176 280 315 651 1300 1420 2110 8160
2021-02-16 15:30 3.05 377 9650 (1990) 106 (2018) 1280 141 176 280 315 651 1300 1420 2110 8160
2021-02-16 15:00 3.07 383 9650 (1990) 106 (2018) 1280 141 176 280 315 651 1300 1420 2110 8160
2021-02-16 14:30 3.07 383 9650 (1990) 106 (2018) 1280 141 176 280 315 651 1300 1420 2110 8160
2021-02-16 14:00 3.07 383 9650 (1990) 106 (2018) 1280 141 176 280 315 651 1300 1420 2110 8160
2021-02-16 13:30 3.07 383 9650 (1990) 106 (2018) 1280 141 176 280 315 651 1300 1420 2110 8160
2021-02-16 13:00 3.05 377 9650 (1990) 106 (2018) 1280 141 176 280 315 651 1300 1420 2110 8160
2021-02-16 12:30 3.03 370 9650 (1990) 106 (2018) 1280 141 176 280 315 651 1300 1420 2110 8160
2021-02-16 12:00 3.02 366 9650 (1990) 106 (2018) 1280 141 176 280 315 651 1300 1420 2110 8160
2021-02-16 11:30 3.00 360 9650 (1990) 106 (2018) 1280 141 176 280 315 651 1300 1420 2110 8160
2021-02-16 11:00 2.98 353 9650 (1990) 106 (2018) 1280 141 176 280 315 651 1300 1420 2110 8160
2021-02-16 10:30 2.96 346 9650 (1990) 106 (2018) 1280 141 176 280 315 651 1300 1420 2110 8160
2021-02-15 21:00 3.00 360 8090 (1989) 97 (2018) 1200 131 178 219 303 537 1570 1710 2570 6840
2021-02-15 20:30 3.01 363 8090 (1989) 97 (2018) 1200 131 178 219 303 537 1570 1710 2570 6840
2021-02-15 20:00 3.02 366 8090 (1989) 97 (2018) 1200 131 178 219 303 537 1570 1710 2570 6840
2021-02-15 19:30 3.02 366 8090 (1989) 97 (2018) 1200 131 178 219 303 537 1570 1710 2570 6840
2021-02-15 19:00 3.02 366 8090 (1989) 97 (2018) 1200 131 178 219 303 537 1570 1710 2570 6840
2021-02-15 18:30 3.03 370 8090 (1989) 97 (2018) 1200 131 178 219 303 537 1570 1710 2570 6840
2021-02-15 18:00 3.02 366 8090 (1989) 97 (2018) 1200 131 178 219 303 537 1570 1710 2570 6840
2021-02-15 17:30 3.02 366 8090 (1989) 97 (2018) 1200 131 178 219 303 537 1570 1710 2570 6840
2021-02-15 17:00 3.03 370 8090 (1989) 97 (2018) 1200 131 178 219 303 537 1570 1710 2570 6840
2021-02-15 16:30 3.03 370 8090 (1989) 97 (2018) 1200 131 178 219 303 537 1570 1710 2570 6840
2021-02-15 16:00 3.04 373 8090 (1989) 97 (2018) 1200 131 178 219 303 537 1570 1710 2570 6840
2021-02-15 15:30 3.03 370 8090 (1989) 97 (2018) 1200 131 178 219 303 537 1570 1710 2570 6840
2021-02-15 15:00 3.02 366 8090 (1989) 97 (2018) 1200 131 178 219 303 537 1570 1710 2570 6840
2021-02-15 14:30 3.01 363 8090 (1989) 97 (2018) 1200 131 178 219 303 537 1570 1710 2570 6840
2021-02-15 14:00 3.01 363 8090 (1989) 97 (2018) 1200 131 178 219 303 537 1570 1710 2570 6840
2021-02-15 13:30 2.99 356 8090 (1989) 97 (2018) 1200 131 178 219 303 537 1570 1710 2570 6840
2021-02-15 13:00 2.98 353 8090 (1989) 97 (2018) 1200 131 178 219 303 537 1570 1710 2570 6840
2021-02-15 12:30 2.97 350 8090 (1989) 97 (2018) 1200 131 178 219 303 537 1570 1710 2570 6840
2021-02-15 12:00 2.97 350 8090 (1989) 97 (2018) 1200 131 178 219 303 537 1570 1710 2570 6840
2021-02-15 11:30 3.00 360 8090 (1989) 97 (2018) 1200 131 178 219 303 537 1570 1710 2570 6840
2021-02-15 11:00 3.01 363 8090 (1989) 97 (2018) 1200 131 178 219 303 537 1570 1710 2570 6840
2021-02-15 10:30 3.01 363 8090 (1989) 97 (2018) 1200 131 178 219 303 537 1570 1710 2570 6840
2021-02-15 10:00 3.02 366 8090 (1989) 97 (2018) 1200 131 178 219 303 537 1570 1710 2570 6840
2021-02-15 09:30 3.04 373 8090 (1989) 97 (2018) 1200 131 178 219 303 537 1570 1710 2570 6840
2021-02-15 09:00 3.06 380 8090 (1989) 97 (2018) 1200 131 178 219 303 537 1570 1710 2570 6840
2021-02-15 08:30 3.07 383 8090 (1989) 97 (2018) 1200 131 178 219 303 537 1570 1710 2570 6840
2021-02-15 08:00 3.09 390 8090 (1989) 97 (2018) 1200 131 178 219 303 537 1570 1710 2570 6840
2021-02-15 07:30 3.10 394 8090 (1989) 97 (2018) 1200 131 178 219 303 537 1570 1710 2570 6840
2021-02-15 07:00 3.12 401 8090 (1989) 97 (2018) 1200 131 178 219 303 537 1570 1710 2570 6840
2021-02-15 06:30 3.12 401 8090 (1989) 97 (2018) 1200 131 178 219 303 537 1570 1710 2570 6840
2021-02-15 06:00 3.13 404 8090 (1989) 97 (2018) 1200 131 178 219 303 537 1570 1710 2570 6840
2021-02-15 05:30 3.14 408 8090 (1989) 97 (2018) 1200 131 178 219 303 537 1570 1710 2570 6840
2021-02-15 05:00 3.15 412 8090 (1989) 97 (2018) 1200 131 178 219 303 537 1570 1710 2570 6840
2021-02-15 04:30 3.16 415 8090 (1989) 97 (2018) 1200 131 178 219 303 537 1570 1710 2570 6840
2021-02-15 04:00 3.18 422 8090 (1989) 97 (2018) 1200 131 178 219 303 537 1570 1710 2570 6840
2021-02-15 03:30 3.19 426 8090 (1989) 97 (2018) 1200 131 178 219 303 537 1570 1710 2570 6840
2021-02-15 03:00 3.20 430 8090 (1989) 97 (2018) 1200 131 178 219 303 537 1570 1710 2570 6840
2021-02-15 02:30 3.21 433 8090 (1989) 97 (2018) 1200 131 178 219 303 537 1570 1710 2570 6840
2021-02-15 02:00 3.22 437 8090 (1989) 97 (2018) 1200 131 178 219 303 537 1570 1710 2570 6840
2021-02-15 01:30 3.23 441 8090 (1989) 97 (2018) 1200 131 178 219 303 537 1570 1710 2570 6840
2021-02-15 01:00 3.24 445 8090 (1989) 97 (2018) 1200 131 178 219 303 537 1570 1710 2570 6840
2021-02-15 00:30 3.24 445 8090 (1989) 97 (2018) 1200 131 178 219 303 537 1570 1710 2570 6840
2021-02-15 00:00 3.25 448 8090 (1989) 97 (2018) 1200 131 178 219 303 537 1570 1710 2570 6840
2021-02-14 23:30 3.25 448 16700 (1989) 94 (2018) 1520 129 187 213 298 454 1320 2440 3240 10600
2021-02-14 23:00 3.26 452 16700 (1989) 94 (2018) 1520 129 187 213 298 454 1320 2440 3240 10600
2021-02-14 22:30 3.26 452 16700 (1989) 94 (2018) 1520 129 187 213 298 454 1320 2440 3240 10600
2021-02-14 22:00 3.27 456 16700 (1989) 94 (2018) 1520 129 187 213 298 454 1320 2440 3240 10600
2021-02-14 21:30 3.29 463 16700 (1989) 94 (2018) 1520 129 187 213 298 454 1320 2440 3240 10600
2021-02-14 21:00 3.29 463 16700 (1989) 94 (2018) 1520 129 187 213 298 454 1320 2440 3240 10600
2021-02-14 20:30 3.30 467 16700 (1989) 94 (2018) 1520 129 187 213 298 454 1320 2440 3240 10600
2021-02-14 20:00 3.31 471 16700 (1989) 94 (2018) 1520 129 187 213 298 454 1320 2440 3240 10600
2021-02-14 19:30 3.31 471 16700 (1989) 94 (2018) 1520 129 187 213 298 454 1320 2440 3240 10600
2021-02-14 19:00 3.30 467 16700 (1989) 94 (2018) 1520 129 187 213 298 454 1320 2440 3240 10600
2021-02-14 18:30 3.27 456 16700 (1989) 94 (2018) 1520 129 187 213 298 454 1320 2440 3240 10600
2021-02-14 18:00 3.23 441 16700 (1989) 94 (2018) 1520 129 187 213 298 454 1320 2440 3240 10600
2021-02-14 17:30 3.19 426 16700 (1989) 94 (2018) 1520 129 187 213 298 454 1320 2440 3240 10600
2021-02-14 17:00 3.15 412 16700 (1989) 94 (2018) 1520 129 187 213 298 454 1320 2440 3240 10600
2021-02-14 16:30 3.11 397 16700 (1989) 94 (2018) 1520 129 187 213 298 454 1320 2440 3240 10600
2021-02-14 16:00 3.10 394 16700 (1989) 94 (2018) 1520 129 187 213 298 454 1320 2440 3240 10600
2021-02-14 15:30 3.10 394 16700 (1989) 94 (2018) 1520 129 187 213 298 454 1320 2440 3240 10600
2021-02-14 15:00 3.11 397 16700 (1989) 94 (2018) 1520 129 187 213 298 454 1320 2440 3240 10600
2021-02-14 14:30 3.13 404 16700 (1989) 94 (2018) 1520 129 187 213 298 454 1320 2440 3240 10600
2021-02-14 14:00 3.13 404 16700 (1989) 94 (2018) 1520 129 187 213 298 454 1320 2440 3240 10600
2021-02-14 13:30 3.10 394 16700 (1989) 94 (2018) 1520 129 187 213 298 454 1320 2440 3240 10600
2021-02-14 13:00 3.06 380 16700 (1989) 94 (2018) 1520 129 187 213 298 454 1320 2440 3240 10600
2021-02-14 12:30 3.04 373 16700 (1989) 94 (2018) 1520 129 187 213 298 454 1320 2440 3240 10600
2021-02-14 12:00 3.03 370 16700 (1989) 94 (2018) 1520 129 187 213 298 454 1320 2440 3240 10600
2021-02-14 11:30 2.96 346 16700 (1989) 94 (2018) 1520 129 187 213 298 454 1320 2440 3240 10600
2021-02-14 11:00 2.87 318 16700 (1989) 94 (2018) 1520 129 187 213 298 454 1320 2440 3240 10600
2021-02-14 10:30 2.87 318 16700 (1989) 94 (2018) 1520 129 187 213 298 454 1320 2440 3240 10600
2021-02-14 10:00 2.90 327 16700 (1989) 94 (2018) 1520 129 187 213 298 454 1320 2440 3240 10600
2021-02-14 09:30 2.93 337 16700 (1989) 94 (2018) 1520 129 187 213 298 454 1320 2440 3240 10600
2021-02-14 09:00 2.93 337 16700 (1989) 94 (2018) 1520 129 187 213 298 454 1320 2440 3240 10600
2021-02-14 08:30 2.94 340 16700 (1989) 94 (2018) 1520 129 187 213 298 454 1320 2440 3240 10600
2021-02-14 08:00 2.94 340 16700 (1989) 94 (2018) 1520 129 187 213 298 454 1320 2440 3240 10600
2021-02-14 07:30 2.96 346 16700 (1989) 94 (2018) 1520 129 187 213 298 454 1320 2440 3240 10600
2021-02-14 07:00 2.99 356 16700 (1989) 94 (2018) 1520 129 187 213 298 454 1320 2440 3240 10600
2021-02-14 06:30 3.01 363 16700 (1989) 94 (2018) 1520 129 187 213 298 454 1320 2440 3240 10600
2021-02-14 06:00 3.05 377 16700 (1989) 94 (2018) 1520 129 187 213 298 454 1320 2440 3240 10600
2021-02-14 05:30 3.07 383 16700 (1989) 94 (2018) 1520 129 187 213 298 454 1320 2440 3240 10600
2021-02-14 05:00 3.09 390 16700 (1989) 94 (2018) 1520 129 187 213 298 454 1320 2440 3240 10600
2021-02-14 04:30 3.11 397 16700 (1989) 94 (2018) 1520 129 187 213 298 454 1320 2440 3240 10600
2021-02-14 04:00 3.12 401 16700 (1989) 94 (2018) 1520 129 187 213 298 454 1320 2440 3240 10600
2021-02-14 03:30 3.13 404 16700 (1989) 94 (2018) 1520 129 187 213 298 454 1320 2440 3240 10600
2021-02-14 03:00 3.16 415 16700 (1989) 94 (2018) 1520 129 187 213 298 454 1320 2440 3240 10600
2021-02-14 02:30 3.17 419 16700 (1989) 94 (2018) 1520 129 187 213 298 454 1320 2440 3240 10600
2021-02-14 02:00 3.19 426 16700 (1989) 94 (2018) 1520 129 187 213 298 454 1320 2440 3240 10600
2021-02-14 01:30 3.21 433 16700 (1989) 94 (2018) 1520 129 187 213 298 454 1320 2440 3240 10600
2021-02-14 01:00 3.23 441 16700 (1989) 94 (2018) 1520 129 187 213 298 454 1320 2440 3240 10600
2021-02-14 00:30 3.24 445 16700 (1989) 94 (2018) 1520 129 187 213 298 454 1320 2440 3240 10600
2021-02-14 00:00 3.24 445 16700 (1989) 94 (2018) 1520 129 187 213 298 454 1320 2440 3240 10600
2021-02-13 23:30 3.26 452 7050 (2020) 95 (2018) 1350 130 173 224 270 450 1130 2990 4580 6030
2021-02-13 23:00 3.26 452 7050 (2020) 95 (2018) 1350 130 173 224 270 450 1130 2990 4580 6030
2021-02-13 22:30 3.26 452 7050 (2020) 95 (2018) 1350 130 173 224 270 450 1130 2990 4580 6030
2021-02-13 22:00 3.26 452 7050 (2020) 95 (2018) 1350 130 173 224 270 450 1130 2990 4580 6030
2021-02-13 21:30 3.27 456 7050 (2020) 95 (2018) 1350 130 173 224 270 450 1130 2990 4580 6030
2021-02-13 21:00 3.27 456 7050 (2020) 95 (2018) 1350 130 173 224 270 450 1130 2990 4580 6030
2021-02-13 20:30 3.28 460 7050 (2020) 95 (2018) 1350 130 173 224 270 450 1130 2990 4580 6030
2021-02-13 20:00 3.28 460 7050 (2020) 95 (2018) 1350 130 173 224 270 450 1130 2990 4580 6030
2021-02-13 19:30 3.29 463 7050 (2020) 95 (2018) 1350 130 173 224 270 450 1130 2990 4580 6030
2021-02-13 19:00 3.30 467 7050 (2020) 95 (2018) 1350 130 173 224 270 450 1130 2990 4580 6030
2021-02-13 18:30 3.30 467 7050 (2020) 95 (2018) 1350 130 173 224 270 450 1130 2990 4580 6030
2021-02-13 18:00 3.31 471 7050 (2020) 95 (2018) 1350 130 173 224 270 450 1130 2990 4580 6030
2021-02-13 17:30 3.30 467 7050 (2020) 95 (2018) 1350 130 173 224 270 450 1130 2990 4580 6030
2021-02-13 17:00 3.29 463 7050 (2020) 95 (2018) 1350 130 173 224 270 450 1130 2990 4580 6030
2021-02-13 16:30 3.29 463 7050 (2020) 95 (2018) 1350 130 173 224 270 450 1130 2990 4580 6030
2021-02-13 16:00 3.28 460 7050 (2020) 95 (2018) 1350 130 173 224 270 450 1130 2990 4580 6030
2021-02-13 15:30 3.27 456 7050 (2020) 95 (2018) 1350 130 173 224 270 450 1130 2990 4580 6030
2021-02-13 15:00 3.27 456 7050 (2020) 95 (2018) 1350 130 173 224 270 450 1130 2990 4580 6030
2021-02-13 14:30 3.26 452 7050 (2020) 95 (2018) 1350 130 173 224 270 450 1130 2990 4580 6030
2021-02-13 14:00 3.25 448 7050 (2020) 95 (2018) 1350 130 173 224 270 450 1130 2990 4580 6030
2021-02-13 13:30 3.23 441 7050 (2020) 95 (2018) 1350 130 173 224 270 450 1130 2990 4580 6030
2021-02-13 13:00 3.23 441 7050 (2020) 95 (2018) 1350 130 173 224 270 450 1130 2990 4580 6030
2021-02-13 12:30 3.21 433 7050 (2020) 95 (2018) 1350 130 173 224 270 450 1130 2990 4580 6030
2021-02-13 12:00 3.20 430 7050 (2020) 95 (2018) 1350 130 173 224 270 450 1130 2990 4580 6030
2021-02-13 11:30 3.19 426 7050 (2020) 95 (2018) 1350 130 173 224 270 450 1130 2990 4580 6030
2021-02-13 11:00 3.19 426 7050 (2020) 95 (2018) 1350 130 173 224 270 450 1130 2990 4580 6030
2021-02-13 10:30 3.17 419 7050 (2020) 95 (2018) 1350 130 173 224 270 450 1130 2990 4580 6030
2021-02-13 10:00 3.17 419 7050 (2020) 95 (2018) 1350 130 173 224 270 450 1130 2990 4580 6030
2021-02-13 09:30 3.17 419 7050 (2020) 95 (2018) 1350 130 173 224 270 450 1130 2990 4580 6030
2021-02-13 09:00 3.17 419 7050 (2020) 95 (2018) 1350 130 173 224 270 450 1130 2990 4580 6030
2021-02-13 08:30 3.17 419 7050 (2020) 95 (2018) 1350 130 173 224 270 450 1130 2990 4580 6030
2021-02-13 08:00 3.19 426 7050 (2020) 95 (2018) 1350 130 173 224 270 450 1130 2990 4580 6030
2021-02-13 07:30 3.20 430 7050 (2020) 95 (2018) 1350 130 173 224 270 450 1130 2990 4580 6030
2021-02-13 07:00 3.20 430 7050 (2020) 95 (2018) 1350 130 173 224 270 450 1130 2990 4580 6030
2021-02-13 06:30 3.22 437 7050 (2020) 95 (2018) 1350 130 173 224 270 450 1130 2990 4580 6030
2021-02-13 06:00 3.22 437 7050 (2020) 95 (2018) 1350 130 173 224 270 450 1130 2990 4580 6030
2021-02-13 05:30 3.23 441 7050 (2020) 95 (2018) 1350 130 173 224 270 450 1130 2990 4580 6030
2021-02-13 05:00 3.25 448 7050 (2020) 95 (2018) 1350 130 173 224 270 450 1130 2990 4580 6030
2021-02-13 04:30 3.27 456 7050 (2020) 95 (2018) 1350 130 173 224 270 450 1130 2990 4580 6030
2021-02-13 04:00 3.28 460 7050 (2020) 95 (2018) 1350 130 173 224 270 450 1130 2990 4580 6030
2021-02-13 03:30 3.31 471 7050 (2020) 95 (2018) 1350 130 173 224 270 450 1130 2990 4580 6030
2021-02-13 03:00 3.32 475 7050 (2020) 95 (2018) 1350 130 173 224 270 450 1130 2990 4580 6030
2021-02-13 02:30 3.33 479 7050 (2020) 95 (2018) 1350 130 173 224 270 450 1130 2990 4580 6030
2021-02-13 02:00 3.35 487 7050 (2020) 95 (2018) 1350 130 173 224 270 450 1130 2990 4580 6030
2021-02-13 01:30 3.36 491 7050 (2020) 95 (2018) 1350 130 173 224 270 450 1130 2990 4580 6030
2021-02-13 01:00 3.37 495 7050 (2020) 95 (2018) 1350 130 173 224 270 450 1130 2990 4580 6030
2021-02-13 00:30 3.38 499 7050 (2020) 95 (2018) 1350 130 173 224 270 450 1130 2990 4580 6030
2021-02-13 00:00 3.39 502 7050 (2020) 95 (2018) 1350 130 173 224 270 450 1130 2990 4580 6030
2021-02-12 23:30 3.40 506 8630 (2019) 97 (2018) 1200 132 168 212 226 467 1180 1500 3840 8180
2021-02-12 23:00 3.41 511 8630 (2019) 97 (2018) 1200 132 168 212 226 467 1180 1500 3840 8180
2021-02-12 22:30 3.42 515 8630 (2019) 97 (2018) 1200 132 168 212 226 467 1180 1500 3840 8180
2021-02-12 22:00 3.43 519 8630 (2019) 97 (2018) 1200 132 168 212 226 467 1180 1500 3840 8180
2021-02-12 21:30 3.45 527 8630 (2019) 97 (2018) 1200 132 168 212 226 467 1180 1500 3840 8180
2021-02-12 21:00 3.46 531 8630 (2019) 97 (2018) 1200 132 168 212 226 467 1180 1500 3840 8180
2021-02-12 20:30 3.47 535 8630 (2019) 97 (2018) 1200 132 168 212 226 467 1180 1500 3840 8180
2021-02-12 20:00 3.48 539 8630 (2019) 97 (2018) 1200 132 168 212 226 467 1180 1500 3840 8180
2021-02-12 19:30 3.48 539 8630 (2019) 97 (2018) 1200 132 168 212 226 467 1180 1500 3840 8180
2021-02-12 19:00 3.48 539 8630 (2019) 97 (2018) 1200 132 168 212 226 467 1180 1500 3840 8180
2021-02-12 18:30 3.48 539 8630 (2019) 97 (2018) 1200 132 168 212 226 467 1180 1500 3840 8180
2021-02-12 18:00 3.45 527 8630 (2019) 97 (2018) 1200 132 168 212 226 467 1180 1500 3840 8180
2021-02-12 17:30 3.43 519 8630 (2019) 97 (2018) 1200 132 168 212 226 467 1180 1500 3840 8180
2021-02-12 17:00 3.40 506 8630 (2019) 97 (2018) 1200 132 168 212 226 467 1180 1500 3840 8180
2021-02-12 16:30 3.38 499 8630 (2019) 97 (2018) 1200 132 168 212 226 467 1180 1500 3840 8180
2021-02-12 16:00 3.36 491 8630 (2019) 97 (2018) 1200 132 168 212 226 467 1180 1500 3840 8180
2021-02-12 15:30 3.35 487 8630 (2019) 97 (2018) 1200 132 168 212 226 467 1180 1500 3840 8180
2021-02-12 15:00 3.34 483 8630 (2019) 97 (2018) 1200 132 168 212 226 467 1180 1500 3840 8180
2021-02-12 14:30 3.33 479 8630 (2019) 97 (2018) 1200 132 168 212 226 467 1180 1500 3840 8180
2021-02-12 14:00 3.32 475 8630 (2019) 97 (2018) 1200 132 168 212 226 467 1180 1500 3840 8180
2021-02-12 13:30 3.30 467 8630 (2019) 97 (2018) 1200 132 168 212 226 467 1180 1500 3840 8180
2021-02-12 13:00 3.28 460 8630 (2019) 97 (2018) 1200 132 168 212 226 467 1180 1500 3840 8180
2021-02-12 12:30 3.26 452 8630 (2019) 97 (2018) 1200 132 168 212 226 467 1180 1500 3840 8180
2021-02-12 12:00 3.27 456 8630 (2019) 97 (2018) 1200 132 168 212 226 467 1180 1500 3840 8180
2021-02-12 11:30 3.26 452 8630 (2019) 97 (2018) 1200 132 168 212 226 467 1180 1500 3840 8180
2021-02-12 11:00 3.27 456 8630 (2019) 97 (2018) 1200 132 168 212 226 467 1180 1500 3840 8180
2021-02-12 10:30 3.26 452 8630 (2019) 97 (2018) 1200 132 168 212 226 467 1180 1500 3840 8180
2021-02-12 10:00 3.25 448 8630 (2019) 97 (2018) 1200 132 168 212 226 467 1180 1500 3840 8180
2021-02-12 09:30 3.26 452 8630 (2019) 97 (2018) 1200 132 168 212 226 467 1180 1500 3840 8180
2021-02-12 09:00 3.26 452 8630 (2019) 97 (2018) 1200 132 168 212 226 467 1180 1500 3840 8180
2021-02-12 08:30 3.27 456 8630 (2019) 97 (2018) 1200 132 168 212 226 467 1180 1500 3840 8180
2021-02-12 08:00 3.28 460 8630 (2019) 97 (2018) 1200 132 168 212 226 467 1180 1500 3840 8180
2021-02-12 07:30 3.29 463 8630 (2019) 97 (2018) 1200 132 168 212 226 467 1180 1500 3840 8180
2021-02-12 07:00 3.31 471 8630 (2019) 97 (2018) 1200 132 168 212 226 467 1180 1500 3840 8180
2021-02-12 06:30 3.33 479 8630 (2019) 97 (2018) 1200 132 168 212 226 467 1180 1500 3840 8180
2021-02-12 06:00 3.34 483 8630 (2019) 97 (2018) 1200 132 168 212 226 467 1180 1500 3840 8180
2021-02-12 05:30 3.35 487 8630 (2019) 97 (2018) 1200 132 168 212 226 467 1180 1500 3840 8180
2021-02-12 05:00 3.36 491 8630 (2019) 97 (2018) 1200 132 168 212 226 467 1180 1500 3840 8180
2021-02-12 04:30 3.38 499 8630 (2019) 97 (2018) 1200 132 168 212 226 467 1180 1500 3840 8180
2021-02-12 04:00 3.39 502 8630 (2019) 97 (2018) 1200 132 168 212 226 467 1180 1500 3840 8180
2021-02-12 03:30 3.40 506 8630 (2019) 97 (2018) 1200 132 168 212 226 467 1180 1500 3840 8180
2021-02-12 03:00 3.41 511 8630 (2019) 97 (2018) 1200 132 168 212 226 467 1180 1500 3840 8180
2021-02-12 02:30 3.42 515 8630 (2019) 97 (2018) 1200 132 168 212 226 467 1180 1500 3840 8180
2021-02-12 02:00 3.43 519 8630 (2019) 97 (2018) 1200 132 168 212 226 467 1180 1500 3840 8180
2021-02-12 01:30 3.44 523 8630 (2019) 97 (2018) 1200 132 168 212 226 467 1180 1500 3840 8180
2021-02-12 01:00 3.45 527 8630 (2019) 97 (2018) 1200 132 168 212 226 467 1180 1500 3840 8180
2021-02-12 00:30 3.46 531 8630 (2019) 97 (2018) 1200 132 168 212 226 467 1180 1500 3840 8180
2021-02-12 00:00 3.47 535 8630 (2019) 97 (2018) 1200 132 168 212 226 467 1180 1500 3840 8180
2021-02-11 23:30 3.48 539 15300 (2009) 97 (2018) 1380 128 171 205 242 549 915 1010 4250 9970
2021-02-11 23:00 3.49 543 15300 (2009) 97 (2018) 1380 128 171 205 242 549 915 1010 4250 9970
2021-02-11 22:30 3.49 543 15300 (2009) 97 (2018) 1380 128 171 205 242 549 915 1010 4250 9970
2021-02-11 22:00 3.51 552 15300 (2009) 97 (2018) 1380 128 171 205 242 549 915 1010 4250 9970
2021-02-11 21:30 3.51 552 15300 (2009) 97 (2018) 1380 128 171 205 242 549 915 1010 4250 9970
2021-02-11 21:00 3.52 556 15300 (2009) 97 (2018) 1380 128 171 205 242 549 915 1010 4250 9970
2021-02-11 20:30 3.53 560 15300 (2009) 97 (2018) 1380 128 171 205 242 549 915 1010 4250 9970
2021-02-11 20:00 3.53 560 15300 (2009) 97 (2018) 1380 128 171 205 242 549 915 1010 4250 9970
2021-02-11 19:30 3.53 560 15300 (2009) 97 (2018) 1380 128 171 205 242 549 915 1010 4250 9970
2021-02-11 19:00 3.52 556 15300 (2009) 97 (2018) 1380 128 171 205 242 549 915 1010 4250 9970
2021-02-11 18:30 3.51 552 15300 (2009) 97 (2018) 1380 128 171 205 242 549 915 1010 4250 9970
2021-02-11 18:00 3.51 552 15300 (2009) 97 (2018) 1380 128 171 205 242 549 915 1010 4250 9970
2021-02-11 17:30 3.49 543 15300 (2009) 97 (2018) 1380 128 171 205 242 549 915 1010 4250 9970
2021-02-11 17:00 3.48 539 15300 (2009) 97 (2018) 1380 128 171 205 242 549 915 1010 4250 9970
2021-02-11 16:30 3.47 535 15300 (2009) 97 (2018) 1380 128 171 205 242 549 915 1010 4250 9970
2021-02-11 16:00 3.46 531 15300 (2009) 97 (2018) 1380 128 171 205 242 549 915 1010 4250 9970
2021-02-11 15:30 3.46 531 15300 (2009) 97 (2018) 1380 128 171 205 242 549 915 1010 4250 9970
2021-02-11 15:00 3.46 531 15300 (2009) 97 (2018) 1380 128 171 205 242 549 915 1010 4250 9970
2021-02-11 14:30 3.46 531 15300 (2009) 97 (2018) 1380 128 171 205 242 549 915 1010 4250 9970
2021-02-11 14:00 3.45 527 15300 (2009) 97 (2018) 1380 128 171 205 242 549 915 1010 4250 9970
2021-02-11 13:30 3.45 527 15300 (2009) 97 (2018) 1380 128 171 205 242 549 915 1010 4250 9970
2021-02-11 13:00 3.44 523 15300 (2009) 97 (2018) 1380 128 171 205 242 549 915 1010 4250 9970
2021-02-11 12:30 3.43 519 15300 (2009) 97 (2018) 1380 128 171 205 242 549 915 1010 4250 9970
2021-02-11 12:00 3.41 511 15300 (2009) 97 (2018) 1380 128 171 205 242 549 915 1010 4250 9970
2021-02-11 11:30 3.41 511 15300 (2009) 97 (2018) 1380 128 171 205 242 549 915 1010 4250 9970
2021-02-11 11:00 3.41 511 15300 (2009) 97 (2018) 1380 128 171 205 242 549 915 1010 4250 9970
2021-02-11 10:30 3.41 511 15300 (2009) 97 (2018) 1380 128 171 205 242 549 915 1010 4250 9970
2021-02-11 10:00 3.40 506 15300 (2009) 97 (2018) 1380 128 171 205 242 549 915 1010 4250 9970
2021-02-11 09:30 3.39 502 15300 (2009) 97 (2018) 1380 128 171 205 242 549 915 1010 4250 9970
2021-02-11 09:00 3.38 499 15300 (2009) 97 (2018) 1380 128 171 205 242 549 915 1010 4250 9970
2021-02-11 08:30 3.39 502 15300 (2009) 97 (2018) 1380 128 171 205 242 549 915 1010 4250 9970
2021-02-11 08:00 3.39 502 15300 (2009) 97 (2018) 1380 128 171 205 242 549 915 1010 4250 9970
2021-02-11 07:30 3.40 506 15300 (2009) 97 (2018) 1380 128 171 205 242 549 915 1010 4250 9970
2021-02-11 07:00 3.41 511 15300 (2009) 97 (2018) 1380 128 171 205 242 549 915 1010 4250 9970
2021-02-11 06:30 3.43 519 15300 (2009) 97 (2018) 1380 128 171 205 242 549 915 1010 4250 9970
2021-02-11 06:00 3.45 527 15300 (2009) 97 (2018) 1380 128 171 205 242 549 915 1010 4250 9970
2021-02-11 05:30 3.46 531 15300 (2009) 97 (2018) 1380 128 171 205 242 549 915 1010 4250 9970
2021-02-11 05:00 3.48 539 15300 (2009) 97 (2018) 1380 128 171 205 242 549 915 1010 4250 9970
2021-02-11 04:30 3.49 543 15300 (2009) 97 (2018) 1380 128 171 205 242 549 915 1010 4250 9970
2021-02-11 04:00 3.50 547 15300 (2009) 97 (2018) 1380 128 171 205 242 549 915 1010 4250 9970
2021-02-11 03:30 3.51 552 15300 (2009) 97 (2018) 1380 128 171 205 242 549 915 1010 4250 9970
2021-02-11 03:00 3.52 556 15300 (2009) 97 (2018) 1380 128 171 205 242 549 915 1010 4250 9970
2021-02-11 02:30 3.53 560 15300 (2009) 97 (2018) 1380 128 171 205 242 549 915 1010 4250 9970
2021-02-11 02:00 3.54 564 15300 (2009) 97 (2018) 1380 128 171 205 242 549 915 1010 4250 9970
2021-02-11 01:30 3.55 569 15300 (2009) 97 (2018) 1380 128 171 205 242 549 915 1010 4250 9970
2021-02-11 01:00 3.55 569 15300 (2009) 97 (2018) 1380 128 171 205 242 549 915 1010 4250 9970
2021-02-11 00:30 3.56 573 15300 (2009) 97 (2018) 1380 128 171 205 242 549 915 1010 4250 9970
2021-02-11 00:00 3.57 577 15300 (2009) 97 (2018) 1380 128 171 205 242 549 915 1010 4250 9970
2021-02-10 23:30 3.58 581 4920 (2020) 99 (2018) 927 132 179 208 235 499 819 1020 3820 4820
2021-02-10 23:00 3.58 581 4920 (2020) 99 (2018) 927 132 179 208 235 499 819 1020 3820 4820
2021-02-10 22:30 3.59 586 4920 (2020) 99 (2018) 927 132 179 208 235 499 819 1020 3820 4820
2021-02-10 22:00 3.59 586 4920 (2020) 99 (2018) 927 132 179 208 235 499 819 1020 3820 4820
2021-02-10 21:30 3.60 590 4920 (2020) 99 (2018) 927 132 179 208 235 499 819 1020 3820 4820
2021-02-10 21:00 3.60 590 4920 (2020) 99 (2018) 927 132 179 208 235 499 819 1020 3820 4820
2021-02-10 20:30 3.60 590 4920 (2020) 99 (2018) 927 132 179 208 235 499 819 1020 3820 4820
2021-02-10 20:00 3.61 594 4920 (2020) 99 (2018) 927 132 179 208 235 499 819 1020 3820 4820
2021-02-10 19:30 3.61 594 4920 (2020) 99 (2018) 927 132 179 208 235 499 819 1020 3820 4820
2021-02-10 19:00 3.62 599 4920 (2020) 99 (2018) 927 132 179 208 235 499 819 1020 3820 4820
2021-02-10 18:30 3.62 599 4920 (2020) 99 (2018) 927 132 179 208 235 499 819 1020 3820 4820
2021-02-10 18:00 3.62 599 4920 (2020) 99 (2018) 927 132 179 208 235 499 819 1020 3820 4820
2021-02-10 17:30 3.63 603 4920 (2020) 99 (2018) 927 132 179 208 235 499 819 1020 3820 4820
2021-02-10 17:00 3.63 603 4920 (2020) 99 (2018) 927 132 179 208 235 499 819 1020 3820 4820
2021-02-10 16:30 3.63 603 4920 (2020) 99 (2018) 927 132 179 208 235 499 819 1020 3820 4820
2021-02-10 16:00 3.63 603 4920 (2020) 99 (2018) 927 132 179 208 235 499 819 1020 3820 4820
2021-02-10 15:30 3.62 599 4920 (2020) 99 (2018) 927 132 179 208 235 499 819 1020 3820 4820
2021-02-10 15:00 3.63 603 4920 (2020) 99 (2018) 927 132 179 208 235 499 819 1020 3820 4820
2021-02-10 14:30 3.62 599 4920 (2020) 99 (2018) 927 132 179 208 235 499 819 1020 3820 4820
2021-02-10 14:00 3.62 599 4920 (2020) 99 (2018) 927 132 179 208 235 499 819 1020 3820 4820
2021-02-10 13:30 3.62 599 4920 (2020) 99 (2018) 927 132 179 208 235 499 819 1020 3820 4820
2021-02-10 13:00 3.63 603 4920 (2020) 99 (2018) 927 132 179 208 235 499 819 1020 3820 4820
2021-02-10 12:30 3.62 599 4920 (2020) 99 (2018) 927 132 179 208 235 499 819 1020 3820 4820
2021-02-10 12:00 3.62 599 4920 (2020) 99 (2018) 927 132 179 208 235 499 819 1020 3820 4820
2021-02-10 11:30 3.62 599 4920 (2020) 99 (2018) 927 132 179 208 235 499 819 1020 3820 4820
2021-02-10 11:00 3.62 599 4920 (2020) 99 (2018) 927 132 179 208 235 499 819 1020 3820 4820
2021-02-10 10:30 3.62 599 4920 (2020) 99 (2018) 927 132 179 208 235 499 819 1020 3820 4820
2021-02-10 10:00 3.62 599 4920 (2020) 99 (2018) 927 132 179 208 235 499 819 1020 3820 4820
2021-02-10 09:30 3.63 603 4920 (2020) 99 (2018) 927 132 179 208 235 499 819 1020 3820 4820
2021-02-10 09:00 3.63 603 4920 (2020) 99 (2018) 927 132 179 208 235 499 819 1020 3820 4820
2021-02-10 08:30 3.63 603 4920 (2020) 99 (2018) 927 132 179 208 235 499 819 1020 3820 4820
2021-02-10 08:00 3.64 608 4920 (2020) 99 (2018) 927 132 179 208 235 499 819 1020 3820 4820
2021-02-10 07:30 3.64 608 4920 (2020) 99 (2018) 927 132 179 208 235 499 819 1020 3820 4820
2021-02-10 07:00 3.64 608 4920 (2020) 99 (2018) 927 132 179 208 235 499 819 1020 3820 4820
2021-02-10 06:30 3.65 612 4920 (2020) 99 (2018) 927 132 179 208 235 499 819 1020 3820 4820
2021-02-10 06:00 3.65 612 4920 (2020) 99 (2018) 927 132 179 208 235 499 819 1020 3820 4820
2021-02-10 05:30 3.65 612 4920 (2020) 99 (2018) 927 132 179 208 235 499 819 1020 3820 4820
2021-02-10 05:00 3.66 617 4920 (2020) 99 (2018) 927 132 179 208 235 499 819 1020 3820 4820
2021-02-10 04:30 3.66 617 4920 (2020) 99 (2018) 927 132 179 208 235 499 819 1020 3820 4820
2021-02-10 04:00 3.66 617 4920 (2020) 99 (2018) 927 132 179 208 235 499 819 1020 3820 4820
2021-02-10 03:30 3.67 621 4920 (2020) 99 (2018) 927 132 179 208 235 499 819 1020 3820 4820
2021-02-10 03:00 3.67 621 4920 (2020) 99 (2018) 927 132 179 208 235 499 819 1020 3820 4820
2021-02-10 02:30 3.67 621 4920 (2020) 99 (2018) 927 132 179 208 235 499 819 1020 3820 4820
2021-02-10 02:00 3.68 626 4920 (2020) 99 (2018) 927 132 179 208 235 499 819 1020 3820 4820
2021-02-10 01:30 3.68 626 4920 (2020) 99 (2018) 927 132 179 208 235 499 819 1020 3820 4820
2021-02-10 01:00 3.68 626 4920 (2020) 99 (2018) 927 132 179 208 235 499 819 1020 3820 4820
2021-02-10 00:30 3.69 630 4920 (2020) 99 (2018) 927 132 179 208 235 499 819 1020 3820 4820
2021-02-10 00:00 3.69 630 4920 (2020) 99 (2018) 927 132 179 208 235 499 819 1020 3820 4820
2021-02-09 23:30 3.69 630 3150 (2019) 102 (2018) 771 138 182 215 248 486 1040 1150 2590 2900
2021-02-09 23:00 3.69 630 3150 (2019) 102 (2018) 771 138 182 215 248 486 1040 1150 2590 2900
2021-02-09 22:30 3.70 635 3150 (2019) 102 (2018) 771 138 182 215 248 486 1040 1150 2590 2900
2021-02-09 22:00 3.70 635 3150 (2019) 102 (2018) 771 138 182 215 248 486 1040 1150 2590 2900
2021-02-09 21:30 3.70 635 3150 (2019) 102 (2018) 771 138 182 215 248 486 1040 1150 2590 2900
2021-02-09 21:00 3.70 635 3150 (2019) 102 (2018) 771 138 182 215 248 486 1040 1150 2590 2900
2021-02-09 20:30 3.71 639 3150 (2019) 102 (2018) 771 138 182 215 248 486 1040 1150 2590 2900
2021-02-09 20:00 3.71 639 3150 (2019) 102 (2018) 771 138 182 215 248 486 1040 1150 2590 2900
2021-02-09 19:30 3.71 639 3150 (2019) 102 (2018) 771 138 182 215 248 486 1040 1150 2590 2900
2021-02-09 19:00 3.72 644 3150 (2019) 102 (2018) 771 138 182 215 248 486 1040 1150 2590 2900
2021-02-09 18:30 3.72 644 3150 (2019) 102 (2018) 771 138 182 215 248 486 1040 1150 2590 2900
2021-02-09 18:00 3.72 644 3150 (2019) 102 (2018) 771 138 182 215 248 486 1040 1150 2590 2900
2021-02-09 17:30 3.72 644 3150 (2019) 102 (2018) 771 138 182 215 248 486 1040 1150 2590 2900
2021-02-09 17:00 3.73 648 3150 (2019) 102 (2018) 771 138 182 215 248 486 1040 1150 2590 2900
2021-02-09 16:30 3.73 648 3150 (2019) 102 (2018) 771 138 182 215 248 486 1040 1150 2590 2900
2021-02-09 16:00 3.73 648 3150 (2019) 102 (2018) 771 138 182 215 248 486 1040 1150 2590 2900
2021-02-09 15:30 3.73 648 3150 (2019) 102 (2018) 771 138 182 215 248 486 1040 1150 2590 2900
2021-02-09 15:00 3.74 653 3150 (2019) 102 (2018) 771 138 182 215 248 486 1040 1150 2590 2900
2021-02-09 14:30 3.74 653 3150 (2019) 102 (2018) 771 138 182 215 248 486 1040 1150 2590 2900
2021-02-09 14:00 3.74 653 3150 (2019) 102 (2018) 771 138 182 215 248 486 1040 1150 2590 2900
2021-02-09 13:30 3.75 657 3150 (2019) 102 (2018) 771 138 182 215 248 486 1040 1150 2590 2900
2021-02-09 13:00 3.75 657 3150 (2019) 102 (2018) 771 138 182 215 248 486 1040 1150 2590 2900
2021-02-09 12:30 3.75 657 3150 (2019) 102 (2018) 771 138 182 215 248 486 1040 1150 2590 2900
2021-02-09 12:00 3.75 657 3150 (2019) 102 (2018) 771 138 182 215 248 486 1040 1150 2590 2900
2021-02-09 11:30 3.75 657 3150 (2019) 102 (2018) 771 138 182 215 248 486 1040 1150 2590 2900
2021-02-09 11:00 3.75 657 3150 (2019) 102 (2018) 771 138 182 215 248 486 1040 1150 2590 2900
2021-02-09 10:30 3.76 662 3150 (2019) 102 (2018) 771 138 182 215 248 486 1040 1150 2590 2900
2021-02-09 10:00 3.76 662 3150 (2019) 102 (2018) 771 138 182 215 248 486 1040 1150 2590 2900
2021-02-09 09:30 3.77 667 3150 (2019) 102 (2018) 771 138 182 215 248 486 1040 1150 2590 2900
2021-02-09 09:00 3.77 667 3150 (2019) 102 (2018) 771 138 182 215 248 486 1040 1150 2590 2900
2021-02-09 08:30 3.77 667 3150 (2019) 102 (2018) 771 138 182 215 248 486 1040 1150 2590 2900
2021-02-09 08:00 3.77 667 3150 (2019) 102 (2018) 771 138 182 215 248 486 1040 1150 2590 2900
2021-02-09 07:30 3.77 667 3150 (2019) 102 (2018) 771 138 182 215 248 486 1040 1150 2590 2900
2021-02-09 07:00 3.78 671 3150 (2019) 102 (2018) 771 138 182 215 248 486 1040 1150 2590 2900
2021-02-09 06:30 3.78 671 3150 (2019) 102 (2018) 771 138 182 215 248 486 1040 1150 2590 2900
2021-02-09 06:00 3.79 676 3150 (2019) 102 (2018) 771 138 182 215 248 486 1040 1150 2590 2900
2021-02-09 05:30 3.79 676 3150 (2019) 102 (2018) 771 138 182 215 248 486 1040 1150 2590 2900
2021-02-09 05:00 3.79 676 3150 (2019) 102 (2018) 771 138 182 215 248 486 1040 1150 2590 2900
2021-02-09 04:30 3.79 676 3150 (2019) 102 (2018) 771 138 182 215 248 486 1040 1150 2590 2900
2021-02-09 04:00 3.79 676 3150 (2019) 102 (2018) 771 138 182 215 248 486 1040 1150 2590 2900
2021-02-09 03:30 3.80 681 3150 (2019) 102 (2018) 771 138 182 215 248 486 1040 1150 2590 2900
2021-02-09 03:00 3.80 681 3150 (2019) 102 (2018) 771 138 182 215 248 486 1040 1150 2590 2900
2021-02-09 02:30 3.80 681 3150 (2019) 102 (2018) 771 138 182 215 248 486 1040 1150 2590 2900
2021-02-09 02:00 3.81 685 3150 (2019) 102 (2018) 771 138 182 215 248 486 1040 1150 2590 2900
2021-02-09 01:30 3.81 685 3150 (2019) 102 (2018) 771 138 182 215 248 486 1040 1150 2590 2900
2021-02-09 01:00 3.82 690 3150 (2019) 102 (2018) 771 138 182 215 248 486 1040 1150 2590 2900
2021-02-09 00:30 3.82 690 3150 (2019) 102 (2018) 771 138 182 215 248 486 1040 1150 2590 2900
2021-02-09 00:00 3.82 690 3150 (2019) 102 (2018) 771 138 182 215 248 486 1040 1150 2590 2900
2021-02-08 23:30 3.82 690 8700 (2019) 105 (2018) 1040 144 190 226 259 524 1050 1520 1990 6180
2021-02-08 23:00 3.82 690 8700 (2019) 105 (2018) 1040 144 190 226 259 524 1050 1520 1990 6180
2021-02-08 22:30 3.82 690 8700 (2019) 105 (2018) 1040 144 190 226 259 524 1050 1520 1990 6180
2021-02-08 22:00 3.82 690 8700 (2019) 105 (2018) 1040 144 190 226 259 524 1050 1520 1990 6180
2021-02-08 21:30 3.82 690 8700 (2019) 105 (2018) 1040 144 190 226 259 524 1050 1520 1990 6180
2021-02-08 21:00 3.82 690 8700 (2019) 105 (2018) 1040 144 190 226 259 524 1050 1520 1990 6180
2021-02-08 20:30 3.83 695 8700 (2019) 105 (2018) 1040 144 190 226 259 524 1050 1520 1990 6180
2021-02-08 20:00 3.83 695 8700 (2019) 105 (2018) 1040 144 190 226 259 524 1050 1520 1990 6180
2021-02-08 19:30 3.83 695 8700 (2019) 105 (2018) 1040 144 190 226 259 524 1050 1520 1990 6180
2021-02-08 19:00 3.84 700 8700 (2019) 105 (2018) 1040 144 190 226 259 524 1050 1520 1990 6180
2021-02-08 18:30 3.84 700 8700 (2019) 105 (2018) 1040 144 190 226 259 524 1050 1520 1990 6180
2021-02-08 18:00 3.84 700 8700 (2019) 105 (2018) 1040 144 190 226 259 524 1050 1520 1990 6180
2021-02-08 17:30 3.85 704 8700 (2019) 105 (2018) 1040 144 190 226 259 524 1050 1520 1990 6180
2021-02-08 17:00 3.85 704 8700 (2019) 105 (2018) 1040 144 190 226 259 524 1050 1520 1990 6180
2021-02-08 16:30 3.85 704 8700 (2019) 105 (2018) 1040 144 190 226 259 524 1050 1520 1990 6180
2021-02-08 16:00 3.85 704 8700 (2019) 105 (2018) 1040 144 190 226 259 524 1050 1520 1990 6180
2021-02-08 15:30 3.86 709 8700 (2019) 105 (2018) 1040 144 190 226 259 524 1050 1520 1990 6180
2021-02-08 15:00 3.86 709 8700 (2019) 105 (2018) 1040 144 190 226 259 524 1050 1520 1990 6180
2021-02-08 14:30 3.86 709 8700 (2019) 105 (2018) 1040 144 190 226 259 524 1050 1520 1990 6180
2021-02-08 14:00 3.87 714 8700 (2019) 105 (2018) 1040 144 190 226 259 524 1050 1520 1990 6180
2021-02-08 13:30 3.87 714 8700 (2019) 105 (2018) 1040 144 190 226 259 524 1050 1520 1990 6180
2021-02-08 13:00 3.87 714 8700 (2019) 105 (2018) 1040 144 190 226 259 524 1050 1520 1990 6180
2021-02-08 12:30 3.87 714 8700 (2019) 105 (2018) 1040 144 190 226 259 524 1050 1520 1990 6180
2021-02-08 12:00 3.88 719 8700 (2019) 105 (2018) 1040 144 190 226 259 524 1050 1520 1990 6180
2021-02-08 11:30 3.88 719 8700 (2019) 105 (2018) 1040 144 190 226 259 524 1050 1520 1990 6180
2021-02-08 11:00 3.88 719 8700 (2019) 105 (2018) 1040 144 190 226 259 524 1050 1520 1990 6180
2021-02-08 10:30 3.89 724 8700 (2019) 105 (2018) 1040 144 190 226 259 524 1050 1520 1990 6180
2021-02-08 10:00 3.89 724 8700 (2019) 105 (2018) 1040 144 190 226 259 524 1050 1520 1990 6180
2021-02-08 09:30 3.90 729 8700 (2019) 105 (2018) 1040 144 190 226 259 524 1050 1520 1990 6180
2021-02-08 09:00 3.91 733 8700 (2019) 105 (2018) 1040 144 190 226 259 524 1050 1520 1990 6180
2021-02-08 08:30 3.91 733 8700 (2019) 105 (2018) 1040 144 190 226 259 524 1050 1520 1990 6180
2021-02-08 08:00 3.91 733 8700 (2019) 105 (2018) 1040 144 190 226 259 524 1050 1520 1990 6180
2021-02-08 07:30 3.91 733 8700 (2019) 105 (2018) 1040 144 190 226 259 524 1050 1520 1990 6180
2021-02-08 07:00 3.92 738 8700 (2019) 105 (2018) 1040 144 190 226 259 524 1050 1520 1990 6180
2021-02-08 06:30 3.93 743 8700 (2019) 105 (2018) 1040 144 190 226 259 524 1050 1520 1990 6180
2021-02-08 06:00 3.93 743 8700 (2019) 105 (2018) 1040 144 190 226 259 524 1050 1520 1990 6180
2021-02-08 05:30 3.93 743 8700 (2019) 105 (2018) 1040 144 190 226 259 524 1050 1520 1990 6180
2021-02-08 05:00 3.94 748 8700 (2019) 105 (2018) 1040 144 190 226 259 524 1050 1520 1990 6180
2021-02-08 04:30 3.95 753 8700 (2019) 105 (2018) 1040 144 190 226 259 524 1050 1520 1990 6180
2021-02-08 04:00 3.95 753 8700 (2019) 105 (2018) 1040 144 190 226 259 524 1050 1520 1990 6180
2021-02-08 03:30 3.95 753 8700 (2019) 105 (2018) 1040 144 190 226 259 524 1050 1520 1990 6180
2021-02-08 03:00 3.96 758 8700 (2019) 105 (2018) 1040 144 190 226 259 524 1050 1520 1990 6180
2021-02-08 02:30 3.96 758 8700 (2019) 105 (2018) 1040 144 190 226 259 524 1050 1520 1990 6180
2021-02-08 02:00 3.97 763 8700 (2019) 105 (2018) 1040 144 190 226 259 524 1050 1520 1990 6180
2021-02-08 01:30 3.97 763 8700 (2019) 105 (2018) 1040 144 190 226 259 524 1050 1520 1990 6180
2021-02-08 01:00 3.98 768 8700 (2019) 105 (2018) 1040 144 190 226 259 524 1050 1520 1990 6180
2021-02-08 00:30 3.98 768 8700 (2019) 105 (2018) 1040 144 190 226 259 524 1050 1520 1990 6180
2021-02-08 00:00 3.98 768 8700 (2019) 105 (2018) 1040 144 190 226 259 524 1050 1520 1990 6180
2021-02-07 23:30 3.99 773 14400 (2019) 111 (2018) 1360 149 194 231 263 585 1310 1400 3010 9170
2021-02-07 23:00 4.00 778 14400 (2019) 111 (2018) 1360 149 194 231 263 585 1310 1400 3010 9170
2021-02-07 22:30 4.00 778 14400 (2019) 111 (2018) 1360 149 194 231 263 585 1310 1400 3010 9170
2021-02-07 22:00 4.01 783 14400 (2019) 111 (2018) 1360 149 194 231 263 585 1310 1400 3010 9170
2021-02-07 21:30 4.01 783 14400 (2019) 111 (2018) 1360 149 194 231 263 585 1310 1400 3010 9170
2021-02-07 21:00 4.02 788 14400 (2019) 111 (2018) 1360 149 194 231 263 585 1310 1400 3010 9170
2021-02-07 20:30 4.03 793 14400 (2019) 111 (2018) 1360 149 194 231 263 585 1310 1400 3010 9170
2021-02-07 20:00 4.03 793 14400 (2019) 111 (2018) 1360 149 194 231 263 585 1310 1400 3010 9170
2021-02-07 19:30 4.03 793 14400 (2019) 111 (2018) 1360 149 194 231 263 585 1310 1400 3010 9170
2021-02-07 19:00 4.04 799 14400 (2019) 111 (2018) 1360 149 194 231 263 585 1310 1400 3010 9170
2021-02-07 18:30 4.04 799 14400 (2019) 111 (2018) 1360 149 194 231 263 585 1310 1400 3010 9170
2021-02-07 18:00 4.05 804 14400 (2019) 111 (2018) 1360 149 194 231 263 585 1310 1400 3010 9170
2021-02-07 17:30 4.05 804 14400 (2019) 111 (2018) 1360 149 194 231 263 585 1310 1400 3010 9170
2021-02-07 17:00 4.06 809 14400 (2019) 111 (2018) 1360 149 194 231 263 585 1310 1400 3010 9170
2021-02-07 16:30 4.06 809 14400 (2019) 111 (2018) 1360 149 194 231 263 585 1310 1400 3010 9170
2021-02-07 16:00 4.06 809 14400 (2019) 111 (2018) 1360 149 194 231 263 585 1310 1400 3010 9170
2021-02-07 15:30 4.07 814 14400 (2019) 111 (2018) 1360 149 194 231 263 585 1310 1400 3010 9170
2021-02-07 15:00 4.07 814 14400 (2019) 111 (2018) 1360 149 194 231 263 585 1310 1400 3010 9170
2021-02-07 14:30 4.08 819 14400 (2019) 111 (2018) 1360 149 194 231 263 585 1310 1400 3010 9170
2021-02-07 14:00 4.09 824 14400 (2019) 111 (2018) 1360 149 194 231 263 585 1310 1400 3010 9170
2021-02-07 13:30 4.09 824 14400 (2019) 111 (2018) 1360 149 194 231 263 585 1310 1400 3010 9170
2021-02-07 13:00 4.09 824 14400 (2019) 111 (2018) 1360 149 194 231 263 585 1310 1400 3010 9170
2021-02-07 12:30 4.10 830 14400 (2019) 111 (2018) 1360 149 194 231 263 585 1310 1400 3010 9170
2021-02-07 11:00 4.12 840 14400 (2019) 111 (2018) 1360 149 194 231 263 585 1310 1400 3010 9170
2021-02-07 10:30 4.12 840 14400 (2019) 111 (2018) 1360 149 194 231 263 585 1310 1400 3010 9170
2021-02-07 10:00 4.13 845 14400 (2019) 111 (2018) 1360 149 194 231 263 585 1310 1400 3010 9170
2021-02-07 09:30 4.14 851 14400 (2019) 111 (2018) 1360 149 194 231 263 585 1310 1400 3010 9170
2021-02-07 09:00 4.14 851 14400 (2019) 111 (2018) 1360 149 194 231 263 585 1310 1400 3010 9170
2021-02-07 08:30 4.14 851 14400 (2019) 111 (2018) 1360 149 194 231 263 585 1310 1400 3010 9170
2021-02-07 08:00 4.15 856 14400 (2019) 111 (2018) 1360 149 194 231 263 585 1310 1400 3010 9170
2021-02-07 07:30 4.15 856 14400 (2019) 111 (2018) 1360 149 194 231 263 585 1310 1400 3010 9170
2021-02-07 07:00 4.16 861 14400 (2019) 111 (2018) 1360 149 194 231 263 585 1310 1400 3010 9170
2021-02-07 06:30 4.17 867 14400 (2019) 111 (2018) 1360 149 194 231 263 585 1310 1400 3010 9170
2021-02-07 06:00 4.18 872 14400 (2019) 111 (2018) 1360 149 194 231 263 585 1310 1400 3010 9170
2021-02-07 05:30 4.18 872 14400 (2019) 111 (2018) 1360 149 194 231 263 585 1310 1400 3010 9170
2021-02-07 05:00 4.19 877 14400 (2019) 111 (2018) 1360 149 194 231 263 585 1310 1400 3010 9170
2021-02-07 04:30 4.19 877 14400 (2019) 111 (2018) 1360 149 194 231 263 585 1310 1400 3010 9170
2021-02-07 04:00 4.20 883 14400 (2019) 111 (2018) 1360 149 194 231 263 585 1310 1400 3010 9170
2021-02-07 03:30 4.20 883 14400 (2019) 111 (2018) 1360 149 194 231 263 585 1310 1400 3010 9170
2021-02-07 03:00 4.21 888 14400 (2019) 111 (2018) 1360 149 194 231 263 585 1310 1400 3010 9170
2021-02-07 02:30 4.22 894 14400 (2019) 111 (2018) 1360 149 194 231 263 585 1310 1400 3010 9170
2021-02-07 02:00 4.22 894 14400 (2019) 111 (2018) 1360 149 194 231 263 585 1310 1400 3010 9170
2021-02-07 01:30 4.23 899 14400 (2019) 111 (2018) 1360 149 194 231 263 585 1310 1400 3010 9170
2021-02-07 01:00 4.23 899 14400 (2019) 111 (2018) 1360 149 194 231 263 585 1310 1400 3010 9170
2021-02-07 00:30 4.24 905 14400 (2019) 111 (2018) 1360 149 194 231 263 585 1310 1400 3010 9170
2021-02-07 00:00 4.24 905 14400 (2019) 111 (2018) 1360 149 194 231 263 585 1310 1400 3010 9170
2021-02-06 23:30 4.24 905 8220 (2008) 114 (2018) 1270 158 203 221 241 564 1500 1750 4420 6800
2021-02-06 23:00 4.25 910 8220 (2008) 114 (2018) 1270 158 203 221 241 564 1500 1750 4420 6800
2021-02-06 22:30 4.26 915 8220 (2008) 114 (2018) 1270 158 203 221 241 564 1500 1750 4420 6800
2021-02-06 22:00 4.26 915 8220 (2008) 114 (2018) 1270 158 203 221 241 564 1500 1750 4420 6800
2021-02-06 21:30 4.27 921 8220 (2008) 114 (2018) 1270 158 203 221 241 564 1500 1750 4420 6800
2021-02-06 21:00 4.28 927 8220 (2008) 114 (2018) 1270 158 203 221 241 564 1500 1750 4420 6800
2021-02-06 20:30 4.28 927 8220 (2008) 114 (2018) 1270 158 203 221 241 564 1500 1750 4420 6800
2021-02-06 20:00 4.29 932 8220 (2008) 114 (2018) 1270 158 203 221 241 564 1500 1750 4420 6800
2021-02-06 19:30 4.30 938 8220 (2008) 114 (2018) 1270 158 203 221 241 564 1500 1750 4420 6800
2021-02-06 19:00 4.30 938 8220 (2008) 114 (2018) 1270 158 203 221 241 564 1500 1750 4420 6800
2021-02-06 18:30 4.30 938 8220 (2008) 114 (2018) 1270 158 203 221 241 564 1500 1750 4420 6800
2021-02-06 18:00 4.31 943 8220 (2008) 114 (2018) 1270 158 203 221 241 564 1500 1750 4420 6800
2021-02-06 17:30 4.31 943 8220 (2008) 114 (2018) 1270 158 203 221 241 564 1500 1750 4420 6800
2021-02-06 17:00 4.32 949 8220 (2008) 114 (2018) 1270 158 203 221 241 564 1500 1750 4420 6800
2021-02-06 16:30 4.32 949 8220 (2008) 114 (2018) 1270 158 203 221 241 564 1500 1750 4420 6800
2021-02-06 16:00 4.33 955 8220 (2008) 114 (2018) 1270 158 203 221 241 564 1500 1750 4420 6800
2021-02-06 15:30 4.34 960 8220 (2008) 114 (2018) 1270 158 203 221 241 564 1500 1750 4420 6800
2021-02-06 15:00 4.35 966 8220 (2008) 114 (2018) 1270 158 203 221 241 564 1500 1750 4420 6800
2021-02-06 14:30 4.36 972 8220 (2008) 114 (2018) 1270 158 203 221 241 564 1500 1750 4420 6800
2021-02-06 14:00 4.36 972 8220 (2008) 114 (2018) 1270 158 203 221 241 564 1500 1750 4420 6800
2021-02-06 13:30 4.37 977 8220 (2008) 114 (2018) 1270 158 203 221 241 564 1500 1750 4420 6800
2021-02-06 13:00 4.38 983 8220 (2008) 114 (2018) 1270 158 203 221 241 564 1500 1750 4420 6800
2021-02-06 12:30 4.38 983 8220 (2008) 114 (2018) 1270 158 203 221 241 564 1500 1750 4420 6800
2021-02-06 12:00 4.39 989 8220 (2008) 114 (2018) 1270 158 203 221 241 564 1500 1750 4420 6800
2021-02-06 11:30 4.40 994 8220 (2008) 114 (2018) 1270 158 203 221 241 564 1500 1750 4420 6800
2021-02-06 11:00 4.40 994 8220 (2008) 114 (2018) 1270 158 203 221 241 564 1500 1750 4420 6800
2021-02-06 10:30 4.41 1000 8220 (2008) 114 (2018) 1270 158 203 221 241 564 1500 1750 4420 6800
2021-02-06 10:00 4.42 1010 8220 (2008) 114 (2018) 1270 158 203 221 241 564 1500 1750 4420 6800
2021-02-06 09:30 4.42 1010 8220 (2008) 114 (2018) 1270 158 203 221 241 564 1500 1750 4420 6800
2021-02-06 09:00 4.43 1010 8220 (2008) 114 (2018) 1270 158 203 221 241 564 1500 1750 4420 6800
2021-02-06 08:30 4.44 1020 8220 (2008) 114 (2018) 1270 158 203 221 241 564 1500 1750 4420 6800
2021-02-06 08:00 4.45 1020 8220 (2008) 114 (2018) 1270 158 203 221 241 564 1500 1750 4420 6800
2021-02-06 07:30 4.45 1020 8220 (2008) 114 (2018) 1270 158 203 221 241 564 1500 1750 4420 6800
2021-02-06 07:00 4.46 1030 8220 (2008) 114 (2018) 1270 158 203 221 241 564 1500 1750 4420 6800
2021-02-06 06:30 4.46 1030 8220 (2008) 114 (2018) 1270 158 203 221 241 564 1500 1750 4420 6800
2021-02-06 06:00 4.48 1040 8220 (2008) 114 (2018) 1270 158 203 221 241 564 1500 1750 4420 6800
2021-02-06 05:30 4.49 1050 8220 (2008) 114 (2018) 1270 158 203 221 241 564 1500 1750 4420 6800
2021-02-06 05:00 4.49 1050 8220 (2008) 114 (2018) 1270 158 203 221 241 564 1500 1750 4420 6800
2021-02-06 04:30 4.50 1050 8220 (2008) 114 (2018) 1270 158 203 221 241 564 1500 1750 4420 6800
2021-02-06 04:00 4.50 1050 8220 (2008) 114 (2018) 1270 158 203 221 241 564 1500 1750 4420 6800
2021-02-06 03:30 4.51 1060 8220 (2008) 114 (2018) 1270 158 203 221 241 564 1500 1750 4420 6800
2021-02-06 03:00 4.52 1060 8220 (2008) 114 (2018) 1270 158 203 221 241 564 1500 1750 4420 6800
2021-02-06 02:30 4.53 1070 8220 (2008) 114 (2018) 1270 158 203 221 241 564 1500 1750 4420 6800
2021-02-06 02:00 4.54 1070 8220 (2008) 114 (2018) 1270 158 203 221 241 564 1500 1750 4420 6800
2021-02-06 01:30 4.54 1070 8220 (2008) 114 (2018) 1270 158 203 221 241 564 1500 1750 4420 6800
2021-02-06 01:00 4.55 1080 8220 (2008) 114 (2018) 1270 158 203 221 241 564 1500 1750 4420 6800
2021-02-06 00:30 4.57 1090 8220 (2008) 114 (2018) 1270 158 203 221 241 564 1500 1750 4420 6800
2021-02-06 00:00 4.58 1100 8220 (2008) 114 (2018) 1270 158 203 221 241 564 1500 1750 4420 6800
2021-02-05 23:30 4.58 1100 4590 (1986) 117 (2018) 947 137 211 217 237 410 1600 1740 2880 3740
2021-02-05 23:00 4.59 1100 4590 (1986) 117 (2018) 947 137 211 217 237 410 1600 1740 2880 3740
2021-02-05 22:30 4.60 1110 4590 (1986) 117 (2018) 947 137 211 217 237 410 1600 1740 2880 3740
2021-02-05 22:00 4.61 1110 4590 (1986) 117 (2018) 947 137 211 217 237 410 1600 1740 2880 3740
2021-02-05 21:30 4.61 1110 4590 (1986) 117 (2018) 947 137 211 217 237 410 1600 1740 2880 3740
2021-02-05 21:00 4.62 1120 4590 (1986) 117 (2018) 947 137 211 217 237 410 1600 1740 2880 3740
2021-02-05 20:30 4.63 1120 4590 (1986) 117 (2018) 947 137 211 217 237 410 1600 1740 2880 3740
2021-02-05 20:00 4.63 1120 4590 (1986) 117 (2018) 947 137 211 217 237 410 1600 1740 2880 3740
2021-02-05 19:30 4.64 1130 4590 (1986) 117 (2018) 947 137 211 217 237 410 1600 1740 2880 3740
2021-02-05 19:00 4.64 1130 4590 (1986) 117 (2018) 947 137 211 217 237 410 1600 1740 2880 3740
2021-02-05 18:30 4.65 1140 4590 (1986) 117 (2018) 947 137 211 217 237 410 1600 1740 2880 3740
2021-02-05 18:00 4.65 1140 4590 (1986) 117 (2018) 947 137 211 217 237 410 1600 1740 2880 3740
2021-02-05 17:30 4.66 1140 4590 (1986) 117 (2018) 947 137 211 217 237 410 1600 1740 2880 3740
2021-02-05 17:00 4.67 1150 4590 (1986) 117 (2018) 947 137 211 217 237 410 1600 1740 2880 3740
2021-02-05 16:30 4.67 1150 4590 (1986) 117 (2018) 947 137 211 217 237 410 1600 1740 2880 3740
2021-02-05 16:00 4.68 1150 4590 (1986) 117 (2018) 947 137 211 217 237 410 1600 1740 2880 3740
2021-02-05 15:30 4.69 1160 4590 (1986) 117 (2018) 947 137 211 217 237 410 1600 1740 2880 3740
2021-02-05 15:00 4.69 1160 4590 (1986) 117 (2018) 947 137 211 217 237 410 1600 1740 2880 3740
2021-02-05 14:30 4.70 1160 4590 (1986) 117 (2018) 947 137 211 217 237 410 1600 1740 2880 3740
2021-02-05 14:00 4.69 1160 4590 (1986) 117 (2018) 947 137 211 217 237 410 1600 1740 2880 3740
2021-02-05 13:30 4.71 1170 4590 (1986) 117 (2018) 947 137 211 217 237 410 1600 1740 2880 3740
2021-02-05 13:00 4.70 1160 4590 (1986) 117 (2018) 947 137 211 217 237 410 1600 1740 2880 3740
2021-02-05 12:30 4.71 1170 4590 (1986) 117 (2018) 947 137 211 217 237 410 1600 1740 2880 3740
2021-02-05 12:00 4.72 1180 4590 (1986) 117 (2018) 947 137 211 217 237 410 1600 1740 2880 3740
2021-02-05 11:30 4.72 1180 4590 (1986) 117 (2018) 947 137 211 217 237 410 1600 1740 2880 3740
2021-02-05 11:00 4.72 1180 4590 (1986) 117 (2018) 947 137 211 217 237 410 1600 1740 2880 3740
2021-02-05 10:30 4.72 1180 4590 (1986) 117 (2018) 947 137 211 217 237 410 1600 1740 2880 3740
2021-02-05 10:00 4.72 1180 4590 (1986) 117 (2018) 947 137 211 217 237 410 1600 1740 2880 3740
2021-02-05 09:30 4.72 1180 4590 (1986) 117 (2018) 947 137 211 217 237 410 1600 1740 2880 3740
2021-02-05 09:00 4.72 1180 4590 (1986) 117 (2018) 947 137 211 217 237 410 1600 1740 2880 3740
2021-02-05 08:30 4.72 1180 4590 (1986) 117 (2018) 947 137 211 217 237 410 1600 1740 2880 3740
2021-02-05 08:00 4.72 1180 4590 (1986) 117 (2018) 947 137 211 217 237 410 1600 1740 2880 3740
2021-02-05 07:30 4.72 1180 4590 (1986) 117 (2018) 947 137 211 217 237 410 1600 1740 2880 3740
2021-02-05 07:00 4.71 1170 4590 (1986) 117 (2018) 947 137 211 217 237 410 1600 1740 2880 3740
2021-02-05 06:30 4.71 1170 4590 (1986) 117 (2018) 947 137 211 217 237 410 1600 1740 2880 3740
2021-02-05 06:00 4.71 1170 4590 (1986) 117 (2018) 947 137 211 217 237 410 1600 1740 2880 3740
2021-02-05 05:30 4.70 1160 4590 (1986) 117 (2018) 947 137 211 217 237 410 1600 1740 2880 3740
2021-02-05 05:00 4.71 1170 4590 (1986) 117 (2018) 947 137 211 217 237 410 1600 1740 2880 3740
2021-02-05 04:30 4.70 1160 4590 (1986) 117 (2018) 947 137 211 217 237 410 1600 1740 2880 3740
2021-02-05 04:00 4.70 1160 4590 (1986) 117 (2018) 947 137 211 217 237 410 1600 1740 2880 3740
2021-02-05 03:30 4.69 1160 4590 (1986) 117 (2018) 947 137 211 217 237 410 1600 1740 2880 3740
2021-02-05 03:00 4.69 1160 4590 (1986) 117 (2018) 947 137 211 217 237 410 1600 1740 2880 3740
2021-02-05 02:30 4.68 1150 4590 (1986) 117 (2018) 947 137 211 217 237 410 1600 1740 2880 3740
2021-02-05 02:00 4.67 1150 4590 (1986) 117 (2018) 947 137 211 217 237 410 1600 1740 2880 3740
2021-02-05 01:30 4.67 1150 4590 (1986) 117 (2018) 947 137 211 217 237 410 1600 1740 2880 3740
2021-02-05 01:00 4.66 1140 4590 (1986) 117 (2018) 947 137 211 217 237 410 1600 1740 2880 3740
2021-02-05 00:30 4.66 1140 4590 (1986) 117 (2018) 947 137 211 217 237 410 1600 1740 2880 3740
2021-02-05 00:00 4.65 1140 4590 (1986) 117 (2018) 947 137 211 217 237 410 1600 1740 2880 3740
2021-02-04 23:30 4.64 1130 7120 (1986) 124 (2018) 1030 128 221 223 248 426 915 1040 3620 5750
2021-02-04 23:00 4.64 1130 7120 (1986) 124 (2018) 1030 128 221 223 248 426 915 1040 3620 5750
2021-02-04 22:30 4.63 1120 7120 (1986) 124 (2018) 1030 128 221 223 248 426 915 1040 3620 5750
2021-02-04 22:00 4.63 1120 7120 (1986) 124 (2018) 1030 128 221 223 248 426 915 1040 3620 5750
2021-02-04 21:30 4.62 1120 7120 (1986) 124 (2018) 1030 128 221 223 248 426 915 1040 3620 5750
2021-02-04 21:00 4.62 1120 7120 (1986) 124 (2018) 1030 128 221 223 248 426 915 1040 3620 5750
2021-02-04 20:30 4.62 1120 7120 (1986) 124 (2018) 1030 128 221 223 248 426 915 1040 3620 5750
2021-02-04 20:00 4.61 1110 7120 (1986) 124 (2018) 1030 128 221 223 248 426 915 1040 3620 5750
2021-02-04 19:30 4.61 1110 7120 (1986) 124 (2018) 1030 128 221 223 248 426 915 1040 3620 5750
2021-02-04 19:00 4.60 1110 7120 (1986) 124 (2018) 1030 128 221 223 248 426 915 1040 3620 5750
2021-02-04 18:30 4.60 1110 7120 (1986) 124 (2018) 1030 128 221 223 248 426 915 1040 3620 5750
2021-02-04 18:00 4.59 1100 7120 (1986) 124 (2018) 1030 128 221 223 248 426 915 1040 3620 5750
2021-02-04 17:30 4.59 1100 7120 (1986) 124 (2018) 1030 128 221 223 248 426 915 1040 3620 5750
2021-02-04 17:00 4.58 1100 7120 (1986) 124 (2018) 1030 128 221 223 248 426 915 1040 3620 5750
2021-02-04 16:30 4.58 1100 7120 (1986) 124 (2018) 1030 128 221 223 248 426 915 1040 3620 5750
2021-02-04 16:00 4.57 1090 7120 (1986) 124 (2018) 1030 128 221 223 248 426 915 1040 3620 5750
2021-02-04 15:30 4.57 1090 7120 (1986) 124 (2018) 1030 128 221 223 248 426 915 1040 3620 5750
2021-02-04 15:00 4.57 1090 7120 (1986) 124 (2018) 1030 128 221 223 248 426 915 1040 3620 5750
2021-02-04 14:30 4.56 1090 7120 (1986) 124 (2018) 1030 128 221 223 248 426 915 1040 3620 5750
2021-02-04 14:00 4.56 1090 7120 (1986) 124 (2018) 1030 128 221 223 248 426 915 1040 3620 5750
2021-02-04 13:30 4.55 1050 7120 (1986) 124 (2018) 1030 128 221 223 248 426 915 1040 3620 5750
2021-02-04 13:00 4.55 1050 7120 (1986) 124 (2018) 1030 128 221 223 248 426 915 1040 3620 5750
2021-02-04 12:30 4.55 1050 7120 (1986) 124 (2018) 1030 128 221 223 248 426 915 1040 3620 5750
2021-02-04 12:00 4.55 1050 7120 (1986) 124 (2018) 1030 128 221 223 248 426 915 1040 3620 5750
2021-02-04 11:30 4.55 1050 7120 (1986) 124 (2018) 1030 128 221 223 248 426 915 1040 3620 5750
2021-02-04 11:00 4.55 1050 7120 (1986) 124 (2018) 1030 128 221 223 248 426 915 1040 3620 5750
2021-02-04 10:30 4.55 1050 7120 (1986) 124 (2018) 1030 128 221 223 248 426 915 1040 3620 5750
2021-02-04 10:00 4.56 1050 7120 (1986) 124 (2018) 1030 128 221 223 248 426 915 1040 3620 5750
2021-02-04 09:30 4.56 1050 7120 (1986) 124 (2018) 1030 128 221 223 248 426 915 1040 3620 5750
2021-02-04 09:00 4.56 1050 7120 (1986) 124 (2018) 1030 128 221 223 248 426 915 1040 3620 5750
2021-02-04 08:30 4.56 1050 7120 (1986) 124 (2018) 1030 128 221 223 248 426 915 1040 3620 5750
2021-02-04 08:00 4.56 1050 7120 (1986) 124 (2018) 1030 128 221 223 248 426 915 1040 3620 5750
2021-02-04 07:30 4.56 1050 7120 (1986) 124 (2018) 1030 128 221 223 248 426 915 1040 3620 5750
2021-02-04 07:00 4.56 1050 7120 (1986) 124 (2018) 1030 128 221 223 248 426 915 1040 3620 5750
2021-02-04 06:30 4.57 1060 7120 (1986) 124 (2018) 1030 128 221 223 248 426 915 1040 3620 5750
2021-02-04 06:00 4.58 1060 7120 (1986) 124 (2018) 1030 128 221 223 248 426 915 1040 3620 5750
2021-02-04 05:30 4.58 1060 7120 (1986) 124 (2018) 1030 128 221 223 248 426 915 1040 3620 5750
2021-02-04 05:00 4.59 1070 7120 (1986) 124 (2018) 1030 128 221 223 248 426 915 1040 3620 5750
2021-02-04 04:30 4.60 1070 7120 (1986) 124 (2018) 1030 128 221 223 248 426 915 1040 3620 5750
2021-02-04 04:00 4.61 1080 7120 (1986) 124 (2018) 1030 128 221 223 248 426 915 1040 3620 5750
2021-02-04 03:30 4.62 1080 7120 (1986) 124 (2018) 1030 128 221 223 248 426 915 1040 3620 5750
2021-02-04 03:00 4.63 1090 7120 (1986) 124 (2018) 1030 128 221 223 248 426 915 1040 3620 5750
2021-02-04 02:30 4.64 1090 7120 (1986) 124 (2018) 1030 128 221 223 248 426 915 1040 3620 5750
2021-02-04 02:00 4.65 1100 7120 (1986) 124 (2018) 1030 128 221 223 248 426 915 1040 3620 5750
2021-02-04 01:30 4.66 1100 7120 (1986) 124 (2018) 1030 128 221 223 248 426 915 1040 3620 5750
2021-02-04 01:00 4.66 1100 7120 (1986) 124 (2018) 1030 128 221 223 248 426 915 1040 3620 5750
2021-02-04 00:30 4.67 1110 7120 (1986) 124 (2018) 1030 128 221 223 248 426 915 1040 3620 5750
2021-02-04 00:00 4.68 1110 7120 (1986) 124 (2018) 1030 128 221 223 248 426 915 1040 3620 5750
2021-02-03 23:30 4.69 1120 9870 (1989) 126 (2008) 929 128 221 230 237 427 889 945 1650 6230
2021-02-03 23:00 4.70 1130 9870 (1989) 126 (2008) 929 128 221 230 237 427 889 945 1650 6230
2021-02-03 22:30 4.71 1130 9870 (1989) 126 (2008) 929 128 221 230 237 427 889 945 1650 6230
2021-02-03 22:00 4.72 1140 9870 (1989) 126 (2008) 929 128 221 230 237 427 889 945 1650 6230
2021-02-03 21:30 4.72 1140 9870 (1989) 126 (2008) 929 128 221 230 237 427 889 945 1650 6230
2021-02-03 21:00 4.74 1150 9870 (1989) 126 (2008) 929 128 221 230 237 427 889 945 1650 6230
2021-02-03 20:30 4.74 1150 9870 (1989) 126 (2008) 929 128 221 230 237 427 889 945 1650 6230
2021-02-03 20:00 4.75 1150 9870 (1989) 126 (2008) 929 128 221 230 237 427 889 945 1650 6230
2021-02-03 19:30 4.76 1160 9870 (1989) 126 (2008) 929 128 221 230 237 427 889 945 1650 6230
2021-02-03 19:00 4.77 1160 9870 (1989) 126 (2008) 929 128 221 230 237 427 889 945 1650 6230
2021-02-03 18:30 4.79 1170 9870 (1989) 126 (2008) 929 128 221 230 237 427 889 945 1650 6230
2021-02-03 18:00 4.79 1170 9870 (1989) 126 (2008) 929 128 221 230 237 427 889 945 1650 6230
2021-02-03 17:30 4.80 1180 9870 (1989) 126 (2008) 929 128 221 230 237 427 889 945 1650 6230
2021-02-03 17:00 4.81 1190 9870 (1989) 126 (2008) 929 128 221 230 237 427 889 945 1650 6230
2021-02-03 16:30 4.83 1200 9870 (1989) 126 (2008) 929 128 221 230 237 427 889 945 1650 6230
2021-02-03 16:00 4.84 1200 9870 (1989) 126 (2008) 929 128 221 230 237 427 889 945 1650 6230
2021-02-03 15:30 4.85 1210 9870 (1989) 126 (2008) 929 128 221 230 237 427 889 945 1650 6230
2021-02-03 15:00 4.85 1210 9870 (1989) 126 (2008) 929 128 221 230 237 427 889 945 1650 6230
2021-02-03 14:30 4.87 1220 9870 (1989) 126 (2008) 929 128 221 230 237 427 889 945 1650 6230
2021-02-03 14:00 4.88 1230 9870 (1989) 126 (2008) 929 128 221 230 237 427 889 945 1650 6230
2021-02-03 13:30 4.89 1230 9870 (1989) 126 (2008) 929 128 221 230 237 427 889 945 1650 6230
2021-02-03 13:00 4.90 1240 9870 (1989) 126 (2008) 929 128 221 230 237 427 889 945 1650 6230
2021-02-03 12:30 4.92 1250 9870 (1989) 126 (2008) 929 128 221 230 237 427 889 945 1650 6230
2021-02-03 12:00 4.93 1250 9870 (1989) 126 (2008) 929 128 221 230 237 427 889 945 1650 6230
2021-02-03 11:30 4.94 1260 9870 (1989) 126 (2008) 929 128 221 230 237 427 889 945 1650 6230
2021-02-03 11:00 4.95 1270 9870 (1989) 126 (2008) 929 128 221 230 237 427 889 945 1650 6230
2021-02-03 10:30 4.96 1270 9870 (1989) 126 (2008) 929 128 221 230 237 427 889 945 1650 6230
2021-02-03 10:00 4.96 1270 9870 (1989) 126 (2008) 929 128 221 230 237 427 889 945 1650 6230
2021-02-03 09:30 4.98 1280 9870 (1989) 126 (2008) 929 128 221 230 237 427 889 945 1650 6230
2021-02-03 09:00 4.99 1290 9870 (1989) 126 (2008) 929 128 221 230 237 427 889 945 1650 6230
2021-02-03 08:30 5.00 1300 9870 (1989) 126 (2008) 929 128 221 230 237 427 889 945 1650 6230
2021-02-03 08:00 5.01 1300 9870 (1989) 126 (2008) 929 128 221 230 237 427 889 945 1650 6230
2021-02-03 07:30 5.02 1310 9870 (1989) 126 (2008) 929 128 221 230 237 427 889 945 1650 6230
2021-02-03 07:00 5.04 1320 9870 (1989) 126 (2008) 929 128 221 230 237 427 889 945 1650 6230
2021-02-03 06:30 5.05 1320 9870 (1989) 126 (2008) 929 128 221 230 237 427 889 945 1650 6230
2021-02-03 06:00 5.06 1330 9870 (1989) 126 (2008) 929 128 221 230 237 427 889 945 1650 6230
2021-02-03 05:30 5.07 1340 9870 (1989) 126 (2008) 929 128 221 230 237 427 889 945 1650 6230
2021-02-03 05:00 5.09 1350 9870 (1989) 126 (2008) 929 128 221 230 237 427 889 945 1650 6230
2021-02-03 04:30 5.10 1350 9870 (1989) 126 (2008) 929 128 221 230 237 427 889 945 1650 6230
2021-02-03 04:00 5.12 1370 9870 (1989) 126 (2008) 929 128 221 230 237 427 889 945 1650 6230
2021-02-03 03:30 5.13 1370 9870 (1989) 126 (2008) 929 128 221 230 237 427 889 945 1650 6230
2021-02-03 03:00 5.15 1380 9870 (1989) 126 (2008) 929 128 221 230 237 427 889 945 1650 6230
2021-02-03 02:30 5.15 1380 9870 (1989) 126 (2008) 929 128 221 230 237 427 889 945 1650 6230
2021-02-03 02:00 5.17 1400 9870 (1989) 126 (2008) 929 128 221 230 237 427 889 945 1650 6230
2021-02-03 01:30 5.19 1410 9870 (1989) 126 (2008) 929 128 221 230 237 427 889 945 1650 6230
2021-02-03 01:00 5.20 1420 9870 (1989) 126 (2008) 929 128 221 230 237 427 889 945 1650 6230
2021-02-03 00:30 5.21 1420 9870 (1989) 126 (2008) 929 128 221 230 237 427 889 945 1650 6230
2021-02-03 00:00 5.23 1430 9870 (1989) 126 (2008) 929 128 221 230 237 427 889 945 1650 6230
2021-02-02 23:30 5.24 1440 4290 (1990) 128 (2008) 707 130 137 225 234 412 800 940 1940 3420
2021-02-02 23:00 5.25 1450 4290 (1990) 128 (2008) 707 130 137 225 234 412 800 940 1940 3420
2021-02-02 22:30 5.28 1470 4290 (1990) 128 (2008) 707 130 137 225 234 412 800 940 1940 3420
2021-02-02 22:00 5.29 1470 4290 (1990) 128 (2008) 707 130 137 225 234 412 800 940 1940 3420
2021-02-02 21:30 5.30 1480 4290 (1990) 128 (2008) 707 130 137 225 234 412 800 940 1940 3420
2021-02-02 21:00 5.33 1500 4290 (1990) 128 (2008) 707 130 137 225 234 412 800 940 1940 3420
2021-02-02 20:30 5.34 1500 4290 (1990) 128 (2008) 707 130 137 225 234 412 800 940 1940 3420
2021-02-02 20:00 5.34 1500 4290 (1990) 128 (2008) 707 130 137 225 234 412 800 940 1940 3420
2021-02-02 19:30 5.36 1520 4290 (1990) 128 (2008) 707 130 137 225 234 412 800 940 1940 3420
2021-02-02 19:00 5.38 1530 4290 (1990) 128 (2008) 707 130 137 225 234 412 800 940 1940 3420
2021-02-02 18:30 5.39 1540 4290 (1990) 128 (2008) 707 130 137 225 234 412 800 940 1940 3420
2021-02-02 18:00 5.42 1550 4290 (1990) 128 (2008) 707 130 137 225 234 412 800 940 1940 3420
2021-02-02 17:30 5.43 1560 4290 (1990) 128 (2008) 707 130 137 225 234 412 800 940 1940 3420
2021-02-02 17:00 5.45 1570 4290 (1990) 128 (2008) 707 130 137 225 234 412 800 940 1940 3420
2021-02-02 16:30 5.47 1590 4290 (1990) 128 (2008) 707 130 137 225 234 412 800 940 1940 3420
2021-02-02 16:00 5.49 1600 4290 (1990) 128 (2008) 707 130 137 225 234 412 800 940 1940 3420
2021-02-02 15:30 5.50 1610 4290 (1990) 128 (2008) 707 130 137 225 234 412 800 940 1940 3420
2021-02-02 15:00 5.52 1620 4290 (1990) 128 (2008) 707 130 137 225 234 412 800 940 1940 3420
2021-02-02 14:30 5.54 1630 4290 (1990) 128 (2008) 707 130 137 225 234 412 800 940 1940 3420
2021-02-02 14:00 5.56 1650 4290 (1990) 128 (2008) 707 130 137 225 234 412 800 940 1940 3420
2021-02-02 13:30 5.58 1660 4290 (1990) 128 (2008) 707 130 137 225 234 412 800 940 1940 3420
2021-02-02 13:00 5.60 1670 4290 (1990) 128 (2008) 707 130 137 225 234 412 800 940 1940 3420
2021-02-02 12:30 5.62 1690 4290 (1990) 128 (2008) 707 130 137 225 234 412 800 940 1940 3420
2021-02-02 12:00 5.64 1700 4290 (1990) 128 (2008) 707 130 137 225 234 412 800 940 1940 3420
2021-02-02 11:30 5.66 1710 4290 (1990) 128 (2008) 707 130 137 225 234 412 800 940 1940 3420
2021-02-02 11:00 5.68 1730 4290 (1990) 128 (2008) 707 130 137 225 234 412 800 940 1940 3420
2021-02-02 10:30 5.69 1740 4290 (1990) 128 (2008) 707 130 137 225 234 412 800 940 1940 3420
2021-02-02 10:00 5.71 1750 4290 (1990) 128 (2008) 707 130 137 225 234 412 800 940 1940 3420
2021-02-02 09:30 5.73 1760 4290 (1990) 128 (2008) 707 130 137 225 234 412 800 940 1940 3420
2021-02-02 09:00 5.75 1780 4290 (1990) 128 (2008) 707 130 137 225 234 412 800 940 1940 3420
2021-02-02 08:30 5.78 1800 4290 (1990) 128 (2008) 707 130 137 225 234 412 800 940 1940 3420
2021-02-02 08:00 5.80 4290 (1990) 128 (2008) 707 130 137 225 234 412 800 940 1940 3420
2021-02-02 07:30 5.82 1830 4290 (1990) 128 (2008) 707 130 137 225 234 412 800 940 1940 3420
2021-02-02 07:00 5.83 1830 4290 (1990) 128 (2008) 707 130 137 225 234 412 800 940 1940 3420
2021-02-02 06:30 5.86 1850 4290 (1990) 128 (2008) 707 130 137 225 234 412 800 940 1940 3420
2021-02-02 06:00 5.89 1880 4290 (1990) 128 (2008) 707 130 137 225 234 412 800 940 1940 3420
2021-02-02 05:30 5.91 1890 4290 (1990) 128 (2008) 707 130 137 225 234 412 800 940 1940 3420
2021-02-02 05:00 5.93 1900 4290 (1990) 128 (2008) 707 130 137 225 234 412 800 940 1940 3420
2021-02-02 04:30 5.96 1930 4290 (1990) 128 (2008) 707 130 137 225 234 412 800 940 1940 3420
2021-02-02 04:00 5.98 1940 4290 (1990) 128 (2008) 707 130 137 225 234 412 800 940 1940 3420
2021-02-02 03:30 6.00 1960 4290 (1990) 128 (2008) 707 130 137 225 234 412 800 940 1940 3420
2021-02-02 03:00 6.02 1970 4290 (1990) 128 (2008) 707 130 137 225 234 412 800 940 1940 3420
2021-02-02 02:30 6.05 2000 4290 (1990) 128 (2008) 707 130 137 225 234 412 800 940 1940 3420
2021-02-02 02:00 6.08 2020 4290 (1990) 128 (2008) 707 130 137 225 234 412 800 940 1940 3420
2021-02-02 01:30 6.11 2050 4290 (1990) 128 (2008) 707 130 137 225 234 412 800 940 1940 3420
2021-02-02 01:00 6.14 2070 4290 (1990) 128 (2008) 707 130 137 225 234 412 800 940 1940 3420
2021-02-02 00:30 6.16 2090 4290 (1990) 128 (2008) 707 130 137 225 234 412 800 940 1940 3420
2021-02-02 00:00 6.19 2120 4290 (1990) 128 (2008) 707 130 137 225 234 412 800 940 1940 3420
2021-02-01 23:30 6.22 2140 1810 (2013) 127 (1986) 519 128 133 213 229 456 705 736 1020 1520
2021-02-01 23:00 6.25 2170 1810 (2013) 127 (1986) 519 128 133 213 229 456 705 736 1020 1520
2021-02-01 22:30 6.28 2190 1810 (2013) 127 (1986) 519 128 133 213 229 456 705 736 1020 1520
2021-02-01 22:00 6.31 2220 1810 (2013) 127 (1986) 519 128 133 213 229 456 705 736 1020 1520
2021-02-01 21:30 6.34 2250 1810 (2013) 127 (1986) 519 128 133 213 229 456 705 736 1020 1520
2021-02-01 21:00 6.37 2280 1810 (2013) 127 (1986) 519 128 133 213 229 456 705 736 1020 1520
2021-02-01 20:30 6.40 2300 1810 (2013) 127 (1986) 519 128 133 213 229 456 705 736 1020 1520
2021-02-01 20:00 6.44 2340 1810 (2013) 127 (1986) 519 128 133 213 229 456 705 736 1020 1520
2021-02-01 19:30 6.47 2370 1810 (2013) 127 (1986) 519 128 133 213 229 456 705 736 1020 1520
2021-02-01 19:00 6.51 2400 1810 (2013) 127 (1986) 519 128 133 213 229 456 705 736 1020 1520
2021-02-01 18:30 6.54 2430 1810 (2013) 127 (1986) 519 128 133 213 229 456 705 736 1020 1520
2021-02-01 18:00 6.57 2460 1810 (2013) 127 (1986) 519 128 133 213 229 456 705 736 1020 1520
2021-02-01 17:30 6.62 2510 1810 (2013) 127 (1986) 519 128 133 213 229 456 705 736 1020 1520
2021-02-01 17:00 6.66 2540 1810 (2013) 127 (1986) 519 128 133 213 229 456 705 736 1020 1520
2021-02-01 16:30 6.69 2570 1810 (2013) 127 (1986) 519 128 133 213 229 456 705 736 1020 1520
2021-02-01 16:00 6.73 2610 1810 (2013) 127 (1986) 519 128 133 213 229 456 705 736 1020 1520
2021-02-01 15:30 6.77 2650 1810 (2013) 127 (1986) 519 128 133 213 229 456 705 736 1020 1520
2021-02-01 15:00 6.81 2690 1810 (2013) 127 (1986) 519 128 133 213 229 456 705 736 1020 1520
2021-02-01 14:30 6.84 2720 1810 (2013) 127 (1986) 519 128 133 213 229 456 705 736 1020 1520
2021-02-01 14:00 6.89 2770 1810 (2013) 127 (1986) 519 128 133 213 229 456 705 736 1020 1520
2021-02-01 13:30 6.92 2800 1810 (2013) 127 (1986) 519 128 133 213 229 456 705 736 1020 1520
2021-02-01 13:00 6.97 2850 1810 (2013) 127 (1986) 519 128 133 213 229 456 705 736 1020 1520
2021-02-01 12:30 7.01 2890 1810 (2013) 127 (1986) 519 128 133 213 229 456 705 736 1020 1520
2021-02-01 12:00 7.05 2930 1810 (2013) 127 (1986) 519 128 133 213 229 456 705 736 1020 1520
2021-02-01 11:30 7.10 2980 1810 (2013) 127 (1986) 519 128 133 213 229 456 705 736 1020 1520
2021-02-01 11:00 7.14 3020 1810 (2013) 127 (1986) 519 128 133 213 229 456 705 736 1020 1520
2021-02-01 10:30 7.20 3090 1810 (2013) 127 (1986) 519 128 133 213 229 456 705 736 1020 1520
2021-02-01 10:00 7.25 3140 1810 (2013) 127 (1986) 519 128 133 213 229 456 705 736 1020 1520
2021-02-01 09:30 7.29 3180 1810 (2013) 127 (1986) 519 128 133 213 229 456 705 736 1020 1520
2021-02-01 09:00 7.34 3240 1810 (2013) 127 (1986) 519 128 133 213 229 456 705 736 1020 1520
2021-02-01 08:30 7.39 3290 1810 (2013) 127 (1986) 519 128 133 213 229 456 705 736 1020 1520
2021-02-01 08:00 7.44 3350 1810 (2013) 127 (1986) 519 128 133 213 229 456 705 736 1020 1520
2021-02-01 07:30 7.50 3410 1810 (2013) 127 (1986) 519 128 133 213 229 456 705 736 1020 1520
2021-02-01 07:00 7.55 3470 1810 (2013) 127 (1986) 519 128 133 213 229 456 705 736 1020 1520
2021-02-01 06:30 7.60 3530 1810 (2013) 127 (1986) 519 128 133 213 229 456 705 736 1020 1520
2021-02-01 06:00 7.67 3610 1810 (2013) 127 (1986) 519 128 133 213 229 456 705 736 1020 1520
2021-02-01 05:30 7.72 3660 1810 (2013) 127 (1986) 519 128 133 213 229 456 705 736 1020 1520
2021-02-01 05:00 7.77 3720 1810 (2013) 127 (1986) 519 128 133 213 229 456 705 736 1020 1520
2021-02-01 04:30 7.85 3820 1810 (2013) 127 (1986) 519 128 133 213 229 456 705 736 1020 1520
2021-02-01 04:00 7.89 3870 1810 (2013) 127 (1986) 519 128 133 213 229 456 705 736 1020 1520
2021-02-01 03:30 7.95 3940 1810 (2013) 127 (1986) 519 128 133 213 229 456 705 736 1020 1520
2021-02-01 03:00 8.03 4030 1810 (2013) 127 (1986) 519 128 133 213 229 456 705 736 1020 1520
2021-02-01 02:30 8.08 4100 1810 (2013) 127 (1986) 519 128 133 213 229 456 705 736 1020 1520
2021-02-01 02:00 8.16 4200 1810 (2013) 127 (1986) 519 128 133 213 229 456 705 736 1020 1520
2021-02-01 01:30 8.22 4270 1810 (2013) 127 (1986) 519 128 133 213 229 456 705 736 1020 1520
2021-02-01 01:00 8.29 4360 1810 (2013) 127 (1986) 519 128 133 213 229 456 705 736 1020 1520
2021-02-01 00:30 8.36 4450 1810 (2013) 127 (1986) 519 128 133 213 229 456 705 736 1020 1520
2021-02-01 00:00 8.41 4510 1810 (2013) 127 (1986) 519 128 133 213 229 456 705 736 1020 1520
2021-01-31 23:30 8.48 4610 4200 (2013) 125 (2008) 634 126 132 216 228 426 753 773 1380 2940
2021-01-31 23:00 8.55 4700 4200 (2013) 125 (2008) 634 126 132 216 228 426 753 773 1380 2940
2021-01-31 22:30 8.62 4790 4200 (2013) 125 (2008) 634 126 132 216 228 426 753 773 1380 2940
2021-01-31 22:00 8.70 4900 4200 (2013) 125 (2008) 634 126 132 216 228 426 753 773 1380 2940
2021-01-31 21:30 8.77 4990 4200 (2013) 125 (2008) 634 126 132 216 228 426 753 773 1380 2940
2021-01-31 21:00 8.82 5060 4200 (2013) 125 (2008) 634 126 132 216 228 426 753 773 1380 2940
2021-01-31 20:30 8.89 5160 4200 (2013) 125 (2008) 634 126 132 216 228 426 753 773 1380 2940
2021-01-31 20:00 8.99 5300 4200 (2013) 125 (2008) 634 126 132 216 228 426 753 773 1380 2940
2021-01-31 19:30 9.06 5400 4200 (2013) 125 (2008) 634 126 132 216 228 426 753 773 1380 2940
2021-01-31 19:00 9.13 5500 4200 (2013) 125 (2008) 634 126 132 216 228 426 753 773 1380 2940
2021-01-31 18:30 9.22 5630 4200 (2013) 125 (2008) 634 126 132 216 228 426 753 773 1380 2940
2021-01-31 18:00 9.32 5780 4200 (2013) 125 (2008) 634 126 132 216 228 426 753 773 1380 2940
2021-01-31 17:30 9.36 5840 4200 (2013) 125 (2008) 634 126 132 216 228 426 753 773 1380 2940
2021-01-31 17:00 9.45 5970 4200 (2013) 125 (2008) 634 126 132 216 228 426 753 773 1380 2940
2021-01-31 16:30 9.53 6100 4200 (2013) 125 (2008) 634 126 132 216 228 426 753 773 1380 2940
2021-01-31 16:00 9.61 6220 4200 (2013) 125 (2008) 634 126 132 216 228 426 753 773 1380 2940
2021-01-31 15:30 9.71 6370 4200 (2013) 125 (2008) 634 126 132 216 228 426 753 773 1380 2940
2021-01-31 15:00 9.76 6450 4200 (2013) 125 (2008) 634 126 132 216 228 426 753 773 1380 2940
2021-01-31 14:30 9.87 6630 4200 (2013) 125 (2008) 634 126 132 216 228 426 753 773 1380 2940
2021-01-31 14:00 9.95 6760 4200 (2013) 125 (2008) 634 126 132 216 228 426 753 773 1380 2940
2021-01-31 13:30 10.03 6890 4200 (2013) 125 (2008) 634 126 132 216 228 426 753 773 1380 2940
2021-01-31 13:00 10.06 6930 4200 (2013) 125 (2008) 634 126 132 216 228 426 753 773 1380 2940
2021-01-31 12:30 10.14 7070 4200 (2013) 125 (2008) 634 126 132 216 228 426 753 773 1380 2940
2021-01-31 12:00 10.17 7120 4200 (2013) 125 (2008) 634 126 132 216 228 426 753 773 1380 2940
2021-01-31 11:30 10.25 7250 4200 (2013) 125 (2008) 634 126 132 216 228 426 753 773 1380 2940
2021-01-31 11:00 10.27 7280 4200 (2013) 125 (2008) 634 126 132 216 228 426 753 773 1380 2940
2021-01-31 10:30 10.32 7370 4200 (2013) 125 (2008) 634 126 132 216 228 426 753 773 1380 2940
2021-01-31 10:00 10.28 7300 4200 (2013) 125 (2008) 634 126 132 216 228 426 753 773 1380 2940
2021-01-31 09:30 10.28 7300 4200 (2013) 125 (2008) 634 126 132 216 228 426 753 773 1380 2940
2021-01-31 09:00 10.25 7250 4200 (2013) 125 (2008) 634 126 132 216 228 426 753 773 1380 2940
2021-01-31 08:30 10.21 7180 4200 (2013) 125 (2008) 634 126 132 216 228 426 753 773 1380 2940
2021-01-31 08:00 10.15 7080 4200 (2013) 125 (2008) 634 126 132 216 228 426 753 773 1380 2940
2021-01-31 07:30 10.06 6930 4200 (2013) 125 (2008) 634 126 132 216 228 426 753 773 1380 2940
2021-01-31 07:00 9.95 6760 4200 (2013) 125 (2008) 634 126 132 216 228 426 753 773 1380 2940
2021-01-31 06:30 9.91 6690 4200 (2013) 125 (2008) 634 126 132 216 228 426 753 773 1380 2940
2021-01-31 06:00 9.76 6450 4200 (2013) 125 (2008) 634 126 132 216 228 426 753 773 1380 2940
2021-01-31 05:30 9.60 6200 4200 (2013) 125 (2008) 634 126 132 216 228 426 753 773 1380 2940
2021-01-31 05:00 9.49 6040 4200 (2013) 125 (2008) 634 126 132 216 228 426 753 773 1380 2940
2021-01-31 04:30 9.37 5850 4200 (2013) 125 (2008) 634 126 132 216 228 426 753 773 1380 2940
2021-01-31 04:00 9.23 5650 4200 (2013) 125 (2008) 634 126 132 216 228 426 753 773 1380 2940
2021-01-31 03:30 9.05 5390 4200 (2013) 125 (2008) 634 126 132 216 228 426 753 773 1380 2940
2021-01-31 03:00 8.90 5170 4200 (2013) 125 (2008) 634 126 132 216 228 426 753 773 1380 2940
2021-01-31 02:30 8.72 4930 4200 (2013) 125 (2008) 634 126 132 216 228 426 753 773 1380 2940
2021-01-31 02:00 8.51 4640 4200 (2013) 125 (2008) 634 126 132 216 228 426 753 773 1380 2940
2021-01-31 01:30 8.28 4350 4200 (2013) 125 (2008) 634 126 132 216 228 426 753 773 1380 2940
2021-01-31 01:00 7.99 3990 4200 (2013) 125 (2008) 634 126 132 216 228 426 753 773 1380 2940
2021-01-31 00:30 7.66 3600 4200 (2013) 125 (2008) 634 126 132 216 228 426 753 773 1380 2940
2021-01-31 00:00 7.30 3190 4200 (2013) 125 (2008) 634 126 132 216 228 426 753 773 1380 2940
2021-01-30 23:30 6.93 2810 5120 (2013) 127 (2008) 773 128 135 226 237 462 832 920 2390 3830
2021-01-30 23:00 6.60 2490 5120 (2013) 127 (2008) 773 128 135 226 237 462 832 920 2390 3830
2021-01-30 22:30 6.28 2190 5120 (2013) 127 (2008) 773 128 135 226 237 462 832 920 2390 3830
2021-01-30 22:00 5.95 1920 5120 (2013) 127 (2008) 773 128 135 226 237 462 832 920 2390 3830
2021-01-30 21:30 5.68 1730 5120 (2013) 127 (2008) 773 128 135 226 237 462 832 920 2390 3830
2021-01-30 21:00 5.44 1570 5120 (2013) 127 (2008) 773 128 135 226 237 462 832 920 2390 3830
2021-01-30 20:30 5.25 1450 5120 (2013) 127 (2008) 773 128 135 226 237 462 832 920 2390 3830
2021-01-30 20:00 5.09 1350 5120 (2013) 127 (2008) 773 128 135 226 237 462 832 920 2390 3830
2021-01-30 19:30 4.96 1270 5120 (2013) 127 (2008) 773 128 135 226 237 462 832 920 2390 3830
2021-01-30 19:00 4.86 1210 5120 (2013) 127 (2008) 773 128 135 226 237 462 832 920 2390 3830
2021-01-30 18:30 4.77 1160 5120 (2013) 127 (2008) 773 128 135 226 237 462 832 920 2390 3830
2021-01-30 18:00 4.70 1130 5120 (2013) 127 (2008) 773 128 135 226 237 462 832 920 2390 3830
2021-01-30 17:30 4.64 1090 5120 (2013) 127 (2008) 773 128 135 226 237 462 832 920 2390 3830
2021-01-30 17:00 4.58 1060 5120 (2013) 127 (2008) 773 128 135 226 237 462 832 920 2390 3830
2021-01-30 16:30 4.54 1040 5120 (2013) 127 (2008) 773 128 135 226 237 462 832 920 2390 3830
2021-01-30 16:00 4.51 1020 5120 (2013) 127 (2008) 773 128 135 226 237 462 832 920 2390 3830
2021-01-30 15:30 4.48 1010 5120 (2013) 127 (2008) 773 128 135 226 237 462 832 920 2390 3830
2021-01-30 15:00 4.46 999 5120 (2013) 127 (2008) 773 128 135 226 237 462 832 920 2390 3830
2021-01-30 14:30 4.45 993 5120 (2013) 127 (2008) 773 128 135 226 237 462 832 920 2390 3830
2021-01-30 14:00 4.44 988 5120 (2013) 127 (2008) 773 128 135 226 237 462 832 920 2390 3830
2021-01-30 13:30 4.43 983 5120 (2013) 127 (2008) 773 128 135 226 237 462 832 920 2390 3830
2021-01-30 13:00 4.42 978 5120 (2013) 127 (2008) 773 128 135 226 237 462 832 920 2390 3830
2021-01-30 12:30 4.42 978 5120 (2013) 127 (2008) 773 128 135 226 237 462 832 920 2390 3830
2021-01-30 12:00 4.41 973 5120 (2013) 127 (2008) 773 128 135 226 237 462 832 920 2390 3830
2021-01-30 11:30 4.40 968 5120 (2013) 127 (2008) 773 128 135 226 237 462 832 920 2390 3830
2021-01-30 11:00 4.40 968 5120 (2013) 127 (2008) 773 128 135 226 237 462 832 920 2390 3830
2021-01-30 10:30 4.40 968 5120 (2013) 127 (2008) 773 128 135 226 237 462 832 920 2390 3830
2021-01-30 10:00 4.40 968 5120 (2013) 127 (2008) 773 128 135 226 237 462 832 920 2390 3830
2021-01-30 09:30 4.40 968 5120 (2013) 127 (2008) 773 128 135 226 237 462 832 920 2390 3830
2021-01-30 09:00 4.40 968 5120 (2013) 127 (2008) 773 128 135 226 237 462 832 920 2390 3830
2021-01-30 08:30 4.40 968 5120 (2013) 127 (2008) 773 128 135 226 237 462 832 920 2390 3830
2021-01-30 08:00 4.40 968 5120 (2013) 127 (2008) 773 128 135 226 237 462 832 920 2390 3830
2021-01-30 07:30 4.40 968 5120 (2013) 127 (2008) 773 128 135 226 237 462 832 920 2390 3830
2021-01-30 07:00 4.40 968 5120 (2013) 127 (2008) 773 128 135 226 237 462 832 920 2390 3830
2021-01-30 06:30 4.41 973 5120 (2013) 127 (2008) 773 128 135 226 237 462 832 920 2390 3830
2021-01-30 06:00 4.41 973 5120 (2013) 127 (2008) 773 128 135 226 237 462 832 920 2390 3830
2021-01-30 05:30 4.41 973 5120 (2013) 127 (2008) 773 128 135 226 237 462 832 920 2390 3830
2021-01-30 05:00 4.41 973 5120 (2013) 127 (2008) 773 128 135 226 237 462 832 920 2390 3830
2021-01-30 04:30 4.41 973 5120 (2013) 127 (2008) 773 128 135 226 237 462 832 920 2390 3830
2021-01-30 04:00 4.42 978 5120 (2013) 127 (2008) 773 128 135 226 237 462 832 920 2390 3830
2021-01-30 03:30 4.43 983 5120 (2013) 127 (2008) 773 128 135 226 237 462 832 920 2390 3830
2021-01-30 03:00 4.43 983 5120 (2013) 127 (2008) 773 128 135 226 237 462 832 920 2390 3830
2021-01-30 02:30 4.43 983 5120 (2013) 127 (2008) 773 128 135 226 237 462 832 920 2390 3830
2021-01-30 02:00 4.44 988 5120 (2013) 127 (2008) 773 128 135 226 237 462 832 920 2390 3830
2021-01-30 01:30 4.44 988 5120 (2013) 127 (2008) 773 128 135 226 237 462 832 920 2390 3830
2021-01-30 01:00 4.45 993 5120 (2013) 127 (2008) 773 128 135 226 237 462 832 920 2390 3830
2021-01-30 00:30 4.45 993 5120 (2013) 127 (2008) 773 128 135 226 237 462 832 920 2390 3830
2021-01-30 00:00 4.46 999 5120 (2013) 127 (2008) 773 128 135 226 237 462 832 920 2390 3830
2021-01-29 23:30 4.46 999 4740 (1994) 128 (2008) 739 129 141 231 242 464 889 965 1790 3560
2021-01-29 23:00 4.47 1000 4740 (1994) 128 (2008) 739 129 141 231 242 464 889 965 1790 3560
2021-01-29 22:30 4.47 1000 4740 (1994) 128 (2008) 739 129 141 231 242 464 889 965 1790 3560
2021-01-29 22:00 4.48 1010 4740 (1994) 128 (2008) 739 129 141 231 242 464 889 965 1790 3560
2021-01-29 21:30 4.49 1010 4740 (1994) 128 (2008) 739 129 141 231 242 464 889 965 1790 3560
2021-01-29 21:00 4.49 1010 4740 (1994) 128 (2008) 739 129 141 231 242 464 889 965 1790 3560
2021-01-29 20:30 4.50 1020 4740 (1994) 128 (2008) 739 129 141 231 242 464 889 965 1790 3560
2021-01-29 20:00 4.50 1020 4740 (1994) 128 (2008) 739 129 141 231 242 464 889 965 1790 3560
2021-01-29 19:30 4.51 1020 4740 (1994) 128 (2008) 739 129 141 231 242 464 889 965 1790 3560
2021-01-29 19:00 4.51 1020 4740 (1994) 128 (2008) 739 129 141 231 242 464 889 965 1790 3560
2021-01-29 18:30 4.52 1030 4740 (1994) 128 (2008) 739 129 141 231 242 464 889 965 1790 3560
2021-01-29 18:00 4.53 1030 4740 (1994) 128 (2008) 739 129 141 231 242 464 889 965 1790 3560
2021-01-29 17:30 4.53 1030 4740 (1994) 128 (2008) 739 129 141 231 242 464 889 965 1790 3560
2021-01-29 17:00 4.54 1040 4740 (1994) 128 (2008) 739 129 141 231 242 464 889 965 1790 3560
2021-01-29 16:30 4.55 1050 4740 (1994) 128 (2008) 739 129 141 231 242 464 889 965 1790 3560
2021-01-29 16:00 4.56 1050 4740 (1994) 128 (2008) 739 129 141 231 242 464 889 965 1790 3560
2021-01-29 15:30 4.57 1060 4740 (1994) 128 (2008) 739 129 141 231 242 464 889 965 1790 3560
2021-01-29 15:00 4.58 1060 4740 (1994) 128 (2008) 739 129 141 231 242 464 889 965 1790 3560
2021-01-29 14:30 4.58 1060 4740 (1994) 128 (2008) 739 129 141 231 242 464 889 965 1790 3560
2021-01-29 14:00 4.59 1070 4740 (1994) 128 (2008) 739 129 141 231 242 464 889 965 1790 3560
2021-01-29 13:30 4.60 1070 4740 (1994) 128 (2008) 739 129 141 231 242 464 889 965 1790 3560
2021-01-29 13:00 4.60 1070 4740 (1994) 128 (2008) 739 129 141 231 242 464 889 965 1790 3560
2021-01-29 12:30 4.61 1080 4740 (1994) 128 (2008) 739 129 141 231 242 464 889 965 1790 3560
2021-01-29 12:00 4.63 1090 4740 (1994) 128 (2008) 739 129 141 231 242 464 889 965 1790 3560
2021-01-29 11:30 4.63 1090 4740 (1994) 128 (2008) 739 129 141 231 242 464 889 965 1790 3560
2021-01-29 11:00 4.64 1090 4740 (1994) 128 (2008) 739 129 141 231 242 464 889 965 1790 3560
2021-01-29 10:30 4.65 1100 4740 (1994) 128 (2008) 739 129 141 231 242 464 889 965 1790 3560
2021-01-29 10:00 4.65 1100 4740 (1994) 128 (2008) 739 129 141 231 242 464 889 965 1790 3560
2021-01-29 09:30 4.66 1100 4740 (1994) 128 (2008) 739 129 141 231 242 464 889 965 1790 3560
2021-01-29 09:00 4.67 1110 4740 (1994) 128 (2008) 739 129 141 231 242 464 889 965 1790 3560
2021-01-29 08:30 4.68 1110 4740 (1994) 128 (2008) 739 129 141 231 242 464 889 965 1790 3560
2021-01-29 08:00 4.69 1120 4740 (1994) 128 (2008) 739 129 141 231 242 464 889 965 1790 3560
2021-01-29 07:30 4.70 1130 4740 (1994) 128 (2008) 739 129 141 231 242 464 889 965 1790 3560
2021-01-29 07:00 4.70 1130 4740 (1994) 128 (2008) 739 129 141 231 242 464 889 965 1790 3560
2021-01-29 06:30 4.72 1140 4740 (1994) 128 (2008) 739 129 141 231 242 464 889 965 1790 3560
2021-01-29 06:00 4.72 1140 4740 (1994) 128 (2008) 739 129 141 231 242 464 889 965 1790 3560
2021-01-29 05:30 4.73 1140 4740 (1994) 128 (2008) 739 129 141 231 242 464 889 965 1790 3560
2021-01-29 05:00 4.74 1150 4740 (1994) 128 (2008) 739 129 141 231 242 464 889 965 1790 3560
2021-01-29 04:30 4.75 1150 4740 (1994) 128 (2008) 739 129 141 231 242 464 889 965 1790 3560
2021-01-29 04:00 4.76 1160 4740 (1994) 128 (2008) 739 129 141 231 242 464 889 965 1790 3560
2021-01-29 03:30 4.77 1160 4740 (1994) 128 (2008) 739 129 141 231 242 464 889 965 1790 3560
2021-01-29 03:00 4.78 1170 4740 (1994) 128 (2008) 739 129 141 231 242 464 889 965 1790 3560
2021-01-29 02:30 4.79 1170 4740 (1994) 128 (2008) 739 129 141 231 242 464 889 965 1790 3560
2021-01-29 02:00 4.80 1180 4740 (1994) 128 (2008) 739 129 141 231 242 464 889 965 1790 3560
2021-01-29 01:30 4.81 1190 4740 (1994) 128 (2008) 739 129 141 231 242 464 889 965 1790 3560
2021-01-29 01:00 4.82 1190 4740 (1994) 128 (2008) 739 129 141 231 242 464 889 965 1790 3560
2021-01-29 00:30 4.83 1200 4740 (1994) 128 (2008) 739 129 141 231 242 464 889 965 1790 3560
2021-01-29 00:00 4.85 1210 4740 (1994) 128 (2008) 739 129 141 231 242 464 889 965 1790 3560
2021-01-28 23:30 4.86 1210 13700 (1994) 128 (2008) 1080 131 139 249 255 469 894 955 1700 8440
2021-01-28 23:00 4.87 1220 13700 (1994) 128 (2008) 1080 131 139 249 255 469 894 955 1700 8440
2021-01-28 22:30 4.89 1230 13700 (1994) 128 (2008) 1080 131 139 249 255 469 894 955 1700 8440
2021-01-28 22:00 4.90 1240 13700 (1994) 128 (2008) 1080 131 139 249 255 469 894 955 1700 8440
2021-01-28 21:30 4.92 1250 13700 (1994) 128 (2008) 1080 131 139 249 255 469 894 955 1700 8440
2021-01-28 21:00 4.93 1250 13700 (1994) 128 (2008) 1080 131 139 249 255 469 894 955 1700 8440
2021-01-28 20:30 4.95 1270 13700 (1994) 128 (2008) 1080 131 139 249 255 469 894 955 1700 8440
2021-01-28 20:00 4.96 1270 13700 (1994) 128 (2008) 1080 131 139 249 255 469 894 955 1700 8440
2021-01-28 19:30 4.97 1280 13700 (1994) 128 (2008) 1080 131 139 249 255 469 894 955 1700 8440
2021-01-28 19:00 4.99 1290 13700 (1994) 128 (2008) 1080 131 139 249 255 469 894 955 1700 8440
2021-01-28 18:30 5.01 1300 13700 (1994) 128 (2008) 1080 131 139 249 255 469 894 955 1700 8440
2021-01-28 18:00 5.02 1310 13700 (1994) 128 (2008) 1080 131 139 249 255 469 894 955 1700 8440
2021-01-28 17:30 5.03 1310 13700 (1994) 128 (2008) 1080 131 139 249 255 469 894 955 1700 8440
2021-01-28 17:00 5.04 1320 13700 (1994) 128 (2008) 1080 131 139 249 255 469 894 955 1700 8440
2021-01-28 16:30 5.06 1330 13700 (1994) 128 (2008) 1080 131 139 249 255 469 894 955 1700 8440
2021-01-28 16:00 5.08 1340 13700 (1994) 128 (2008) 1080 131 139 249 255 469 894 955 1700 8440
2021-01-28 15:30 5.09 1350 13700 (1994) 128 (2008) 1080 131 139 249 255 469 894 955 1700 8440
2021-01-28 15:00 5.11 1360 13700 (1994) 128 (2008) 1080 131 139 249 255 469 894 955 1700 8440
2021-01-28 14:30 5.13 1370 13700 (1994) 128 (2008) 1080 131 139 249 255 469 894 955 1700 8440
2021-01-28 14:00 5.14 1380 13700 (1994) 128 (2008) 1080 131 139 249 255 469 894 955 1700 8440
2021-01-28 13:30 5.16 1390 13700 (1994) 128 (2008) 1080 131 139 249 255 469 894 955 1700 8440
2021-01-28 13:00 5.18 1400 13700 (1994) 128 (2008) 1080 131 139 249 255 469 894 955 1700 8440
2021-01-28 12:30 5.19 1410 13700 (1994) 128 (2008) 1080 131 139 249 255 469 894 955 1700 8440
2021-01-28 12:00 5.21 1420 13700 (1994) 128 (2008) 1080 131 139 249 255 469 894 955 1700 8440
2021-01-28 11:30 5.23 1430 13700 (1994) 128 (2008) 1080 131 139 249 255 469 894 955 1700 8440
2021-01-28 11:00 5.24 1440 13700 (1994) 128 (2008) 1080 131 139 249 255 469 894 955 1700 8440
2021-01-28 10:30 5.26 1450 13700 (1994) 128 (2008) 1080 131 139 249 255 469 894 955 1700 8440
2021-01-28 10:00 5.27 1460 13700 (1994) 128 (2008) 1080 131 139 249 255 469 894 955 1700 8440
2021-01-28 09:30 5.29 1470 13700 (1994) 128 (2008) 1080 131 139 249 255 469 894 955 1700 8440
2021-01-28 09:00 5.29 1470 13700 (1994) 128 (2008) 1080 131 139 249 255 469 894 955 1700 8440
2021-01-28 08:30 5.32 1490 13700 (1994) 128 (2008) 1080 131 139 249 255 469 894 955 1700 8440
2021-01-28 08:00 5.34 1500 13700 (1994) 128 (2008) 1080 131 139 249 255 469 894 955 1700 8440
2021-01-28 07:30 5.35 1510 13700 (1994) 128 (2008) 1080 131 139 249 255 469 894 955 1700 8440
2021-01-28 07:00 5.38 1530 13700 (1994) 128 (2008) 1080 131 139 249 255 469 894 955 1700 8440
2021-01-28 06:30 5.40 1540 13700 (1994) 128 (2008) 1080 131 139 249 255 469 894 955 1700 8440
2021-01-28 06:00 5.42 1550 13700 (1994) 128 (2008) 1080 131 139 249 255 469 894 955 1700 8440
2021-01-28 05:30 5.44 1570 13700 (1994) 128 (2008) 1080 131 139 249 255 469 894 955 1700 8440
2021-01-28 05:00 5.45 1570 13700 (1994) 128 (2008) 1080 131 139 249 255 469 894 955 1700 8440
2021-01-28 04:30 5.48 1590 13700 (1994) 128 (2008) 1080 131 139 249 255 469 894 955 1700 8440
2021-01-28 04:00 5.50 1610 13700 (1994) 128 (2008) 1080 131 139 249 255 469 894 955 1700 8440
2021-01-28 03:30 5.51 1610 13700 (1994) 128 (2008) 1080 131 139 249 255 469 894 955 1700 8440
2021-01-28 03:00 5.53 1630 13700 (1994) 128 (2008) 1080 131 139 249 255 469 894 955 1700 8440
2021-01-28 02:30 5.55 1640 13700 (1994) 128 (2008) 1080 131 139 249 255 469 894 955 1700 8440
2021-01-28 02:00 5.57 1650 13700 (1994) 128 (2008) 1080 131 139 249 255 469 894 955 1700 8440
2021-01-28 01:30 5.60 1670 13700 (1994) 128 (2008) 1080 131 139 249 255 469 894 955 1700 8440
2021-01-28 01:00 5.62 1690 13700 (1994) 128 (2008) 1080 131 139 249 255 469 894 955 1700 8440
2021-01-28 00:30 5.63 1690 13700 (1994) 128 (2008) 1080 131 139 249 255 469 894 955 1700 8440
2021-01-28 00:00 5.66 1710 13700 (1994) 128 (2008) 1080 131 139 249 255 469 894 955 1700 8440
2021-01-27 23:30 5.68 1730 9460 (1994) 132 (2008) 970 133 136 263 272 505 1070 1130 1620 6190
2021-01-27 23:00 5.71 1750 9460 (1994) 132 (2008) 970 133 136 263 272 505 1070 1130 1620 6190
2021-01-27 22:30 5.74 1770 9460 (1994) 132 (2008) 970 133 136 263 272 505 1070 1130 1620 6190
2021-01-27 22:00 5.75 1780 9460 (1994) 132 (2008) 970 133 136 263 272 505 1070 1130 1620 6190
2021-01-27 21:30 5.78 1800 9460 (1994) 132 (2008) 970 133 136 263 272 505 1070 1130 1620 6190
2021-01-27 21:00 5.79 1800 9460 (1994) 132 (2008) 970 133 136 263 272 505 1070 1130 1620 6190
2021-01-27 20:30 5.82 1830 9460 (1994) 132 (2008) 970 133 136 263 272 505 1070 1130 1620 6190
2021-01-27 20:00 5.84 1840 9460 (1994) 132 (2008) 970 133 136 263 272 505 1070 1130 1620 6190
2021-01-27 19:30 5.88 1870 9460 (1994) 132 (2008) 970 133 136 263 272 505 1070 1130 1620 6190
2021-01-27 19:00 5.90 1880 9460 (1994) 132 (2008) 970 133 136 263 272 505 1070 1130 1620 6190
2021-01-27 18:30 5.92 1900 9460 (1994) 132 (2008) 970 133 136 263 272 505 1070 1130 1620 6190
2021-01-27 18:00 5.95 1920 9460 (1994) 132 (2008) 970 133 136 263 272 505 1070 1130 1620 6190
2021-01-27 17:30 5.97 1930 9460 (1994) 132 (2008) 970 133 136 263 272 505 1070 1130 1620 6190
2021-01-27 17:00 6.00 1960 9460 (1994) 132 (2008) 970 133 136 263 272 505 1070 1130 1620 6190
2021-01-27 16:30 6.03 1980 9460 (1994) 132 (2008) 970 133 136 263 272 505 1070 1130 1620 6190
2021-01-27 16:00 6.06 2010 9460 (1994) 132 (2008) 970 133 136 263 272 505 1070 1130 1620 6190
2021-01-27 15:30 6.08 2020 9460 (1994) 132 (2008) 970 133 136 263 272 505 1070 1130 1620 6190
2021-01-27 15:00 6.11 2050 9460 (1994) 132 (2008) 970 133 136 263 272 505 1070 1130 1620 6190
2021-01-27 14:30 6.15 2080 9460 (1994) 132 (2008) 970 133 136 263 272 505 1070 1130 1620 6190
2021-01-27 14:00 6.18 2110 9460 (1994) 132 (2008) 970 133 136 263 272 505 1070 1130 1620 6190
2021-01-27 13:30 6.21 2130 9460 (1994) 132 (2008) 970 133 136 263 272 505 1070 1130 1620 6190
2021-01-27 13:00 6.24 2160 9460 (1994) 132 (2008) 970 133 136 263 272 505 1070 1130 1620 6190
2021-01-27 12:30 6.27 2190 9460 (1994) 132 (2008) 970 133 136 263 272 505 1070 1130 1620 6190
2021-01-27 12:00 6.30 2210 9460 (1994) 132 (2008) 970 133 136 263 272 505 1070 1130 1620 6190
2021-01-27 11:30 6.32 2230 9460 (1994) 132 (2008) 970 133 136 263 272 505 1070 1130 1620 6190
2021-01-27 11:00 6.36 2270 9460 (1994) 132 (2008) 970 133 136 263 272 505 1070 1130 1620 6190
2021-01-27 10:30 6.40 2300 9460 (1994) 132 (2008) 970 133 136 263 272 505 1070 1130 1620 6190
2021-01-27 10:00 6.43 2330 9460 (1994) 132 (2008) 970 133 136 263 272 505 1070 1130 1620 6190
2021-01-27 09:30 6.45 2350 9460 (1994) 132 (2008) 970 133 136 263 272 505 1070 1130 1620 6190
2021-01-27 09:00 6.50 2390 9460 (1994) 132 (2008) 970 133 136 263 272 505 1070 1130 1620 6190
2021-01-27 08:30 6.54 2430 9460 (1994) 132 (2008) 970 133 136 263 272 505 1070 1130 1620 6190
2021-01-27 08:00 6.58 2470 9460 (1994) 132 (2008) 970 133 136 263 272 505 1070 1130 1620 6190
2021-01-27 07:30 6.61 2500 9460 (1994) 132 (2008) 970 133 136 263 272 505 1070 1130 1620 6190
2021-01-27 07:00 6.67 2550 9460 (1994) 132 (2008) 970 133 136 263 272 505 1070 1130 1620 6190
2021-01-27 06:30 6.71 2590 9460 (1994) 132 (2008) 970 133 136 263 272 505 1070 1130 1620 6190
2021-01-27 06:00 6.74 2620 9460 (1994) 132 (2008) 970 133 136 263 272 505 1070 1130 1620 6190
2021-01-27 05:30 6.79 2670 9460 (1994) 132 (2008) 970 133 136 263 272 505 1070 1130 1620 6190
2021-01-27 05:00 6.84 2720 9460 (1994) 132 (2008) 970 133 136 263 272 505 1070 1130 1620 6190
2021-01-27 04:30 6.88 2760 9460 (1994) 132 (2008) 970 133 136 263 272 505 1070 1130 1620 6190
2021-01-27 04:00 6.93 2810 9460 (1994) 132 (2008) 970 133 136 263 272 505 1070 1130 1620 6190
2021-01-27 03:30 6.98 2860 9460 (1994) 132 (2008) 970 133 136 263 272 505 1070 1130 1620 6190
2021-01-27 03:00 7.03 2910 9460 (1994) 132 (2008) 970 133 136 263 272 505 1070 1130 1620 6190
2021-01-27 02:30 7.07 2950 9460 (1994) 132 (2008) 970 133 136 263 272 505 1070 1130 1620 6190
2021-01-27 02:00 7.12 3000 9460 (1994) 132 (2008) 970 133 136 263 272 505 1070 1130 1620 6190
2021-01-27 01:30 7.17 3060 9460 (1994) 132 (2008) 970 133 136 263 272 505 1070 1130 1620 6190
2021-01-27 01:00 7.22 3110 9460 (1994) 132 (2008) 970 133 136 263 272 505 1070 1130 1620 6190
2021-01-27 00:30 7.28 3170 9460 (1994) 132 (2008) 970 133 136 263 272 505 1070 1130 1620 6190
2021-01-27 00:00 7.34 3240 9460 (1994) 132 (2008) 970 133 136 263 272 505 1070 1130 1620 6190
2021-01-26 23:30 7.40 3300 4170 (1994) 124 (2009) 829 131 140 266 278 596 1240 1290 1730 3120
2021-01-26 23:00 7.45 3360 4170 (1994) 124 (2009) 829 131 140 266 278 596 1240 1290 1730 3120
2021-01-26 22:30 7.51 3430 4170 (1994) 124 (2009) 829 131 140 266 278 596 1240 1290 1730 3120
2021-01-26 22:00 7.55 3470 4170 (1994) 124 (2009) 829 131 140 266 278 596 1240 1290 1730 3120
2021-01-26 21:30 7.63 3560 4170 (1994) 124 (2009) 829 131 140 266 278 596 1240 1290 1730 3120
2021-01-26 21:00 7.69 3630 4170 (1994) 124 (2009) 829 131 140 266 278 596 1240 1290 1730 3120
2021-01-26 20:30 7.75 3700 4170 (1994) 124 (2009) 829 131 140 266 278 596 1240 1290 1730 3120
2021-01-26 20:00 7.81 3770 4170 (1994) 124 (2009) 829 131 140 266 278 596 1240 1290 1730 3120
2021-01-26 19:30 7.88 3850 4170 (1994) 124 (2009) 829 131 140 266 278 596 1240 1290 1730 3120
2021-01-26 19:00 7.93 3910 4170 (1994) 124 (2009) 829 131 140 266 278 596 1240 1290 1730 3120
2021-01-26 18:30 8.01 4010 4170 (1994) 124 (2009) 829 131 140 266 278 596 1240 1290 1730 3120
2021-01-26 18:00 8.05 4060 4170 (1994) 124 (2009) 829 131 140 266 278 596 1240 1290 1730 3120
2021-01-26 17:30 8.13 4160 4170 (1994) 124 (2009) 829 131 140 266 278 596 1240 1290 1730 3120
2021-01-26 17:00 8.20 4250 4170 (1994) 124 (2009) 829 131 140 266 278 596 1240 1290 1730 3120
2021-01-26 16:30 8.28 4350 4170 (1994) 124 (2009) 829 131 140 266 278 596 1240 1290 1730 3120
2021-01-26 16:00 8.35 4440 4170 (1994) 124 (2009) 829 131 140 266 278 596 1240 1290 1730 3120
2021-01-26 15:30 8.42 4530 4170 (1994) 124 (2009) 829 131 140 266 278 596 1240 1290 1730 3120
2021-01-26 15:00 8.49 4620 4170 (1994) 124 (2009) 829 131 140 266 278 596 1240 1290 1730 3120
2021-01-26 14:30 8.58 4740 4170 (1994) 124 (2009) 829 131 140 266 278 596 1240 1290 1730 3120
2021-01-26 14:00 8.65 4830 4170 (1994) 124 (2009) 829 131 140 266 278 596 1240 1290 1730 3120
2021-01-26 13:30 8.73 4940 4170 (1994) 124 (2009) 829 131 140 266 278 596 1240 1290 1730 3120
2021-01-26 13:00 8.82 5060 4170 (1994) 124 (2009) 829 131 140 266 278 596 1240 1290 1730 3120
2021-01-26 12:30 8.91 5190 4170 (1994) 124 (2009) 829 131 140 266 278 596 1240 1290 1730 3120
2021-01-26 12:00 8.99 5300 4170 (1994) 124 (2009) 829 131 140 266 278 596 1240 1290 1730 3120
2021-01-26 11:30 9.07 5420 4170 (1994) 124 (2009) 829 131 140 266 278 596 1240 1290 1730 3120
2021-01-26 11:00 9.19 5590 4170 (1994) 124 (2009) 829 131 140 266 278 596 1240 1290 1730 3120
2021-01-26 10:30 9.20 5600 4170 (1994) 124 (2009) 829 131 140 266 278 596 1240 1290 1730 3120
2021-01-25 04:00 2.84 308 5280 (1994) 126 (2009) 967 134 146 265 286 468 1170 1510 2820 4260
2021-01-25 03:30 2.84 308 5280 (1994) 126 (2009) 967 134 146 265 286 468 1170 1510 2820 4260
2021-01-25 03:00 2.83 305 5280 (1994) 126 (2009) 967 134 146 265 286 468 1170 1510 2820 4260
2021-01-25 02:30 2.83 305 5280 (1994) 126 (2009) 967 134 146 265 286 468 1170 1510 2820 4260
2021-01-25 02:00 2.82 302 5280 (1994) 126 (2009) 967 134 146 265 286 468 1170 1510 2820 4260
2021-01-25 01:30 2.82 302 5280 (1994) 126 (2009) 967 134 146 265 286 468 1170 1510 2820 4260
2021-01-25 01:00 2.82 302 5280 (1994) 126 (2009) 967 134 146 265 286 468 1170 1510 2820 4260
2021-01-25 00:30 2.82 302 5280 (1994) 126 (2009) 967 134 146 265 286 468 1170 1510 2820 4260
2021-01-25 00:00 2.82 302 5280 (1994) 126 (2009) 967 134 146 265 286 468 1170 1510 2820 4260
2021-01-24 23:30 2.82 302 6800 (2019) 129 (2009) 1070 139 157 242 273 449 1190 1250 3500 5310
2021-01-24 23:00 2.82 302 6800 (2019) 129 (2009) 1070 139 157 242 273 449 1190 1250 3500 5310
2021-01-24 22:30 2.82 302 6800 (2019) 129 (2009) 1070 139 157 242 273 449 1190 1250 3500 5310
2021-01-24 22:00 2.82 302 6800 (2019) 129 (2009) 1070 139 157 242 273 449 1190 1250 3500 5310
2021-01-24 21:30 2.82 302 6800 (2019) 129 (2009) 1070 139 157 242 273 449 1190 1250 3500 5310
2021-01-24 21:00 2.82 302 6800 (2019) 129 (2009) 1070 139 157 242 273 449 1190 1250 3500 5310
2021-01-24 20:30 2.82 302 6800 (2019) 129 (2009) 1070 139 157 242 273 449 1190 1250 3500 5310
2021-01-24 20:00 2.82 302 6800 (2019) 129 (2009) 1070 139 157 242 273 449 1190 1250 3500 5310
2021-01-24 19:30 2.82 302 6800 (2019) 129 (2009) 1070 139 157 242 273 449 1190 1250 3500 5310
2021-01-24 19:00 2.82 302 6800 (2019) 129 (2009) 1070 139 157 242 273 449 1190 1250 3500 5310
2021-01-24 18:30 2.82 302 6800 (2019) 129 (2009) 1070 139 157 242 273 449 1190 1250 3500 5310
2021-01-24 18:00 2.82 302 6800 (2019) 129 (2009) 1070 139 157 242 273 449 1190 1250 3500 5310
2021-01-24 17:30 2.83 305 6800 (2019) 129 (2009) 1070 139 157 242 273 449 1190 1250 3500 5310
2021-01-24 17:00 2.83 305 6800 (2019) 129 (2009) 1070 139 157 242 273 449 1190 1250 3500 5310
2021-01-24 16:30 2.83 305 6800 (2019) 129 (2009) 1070 139 157 242 273 449 1190 1250 3500 5310
2021-01-24 16:00 2.83 305 6800 (2019) 129 (2009) 1070 139 157 242 273 449 1190 1250 3500 5310
2021-01-24 15:30 2.83 305 6800 (2019) 129 (2009) 1070 139 157 242 273 449 1190 1250 3500 5310
2021-01-24 15:00 2.83 305 6800 (2019) 129 (2009) 1070 139 157 242 273 449 1190 1250 3500 5310
2021-01-24 14:30 2.83 305 6800 (2019) 129 (2009) 1070 139 157 242 273 449 1190 1250 3500 5310
2021-01-24 14:00 2.83 305 6800 (2019) 129 (2009) 1070 139 157 242 273 449 1190 1250 3500 5310
2021-01-24 13:30 2.83 305 6800 (2019) 129 (2009) 1070 139 157 242 273 449 1190 1250 3500 5310
2021-01-24 13:00 2.83 305 6800 (2019) 129 (2009) 1070 139 157 242 273 449 1190 1250 3500 5310
2021-01-24 12:30 2.83 305 6800 (2019) 129 (2009) 1070 139 157 242 273 449 1190 1250 3500 5310
2021-01-24 12:00 2.83 305 6800 (2019) 129 (2009) 1070 139 157 242 273 449 1190 1250 3500 5310
2021-01-24 11:30 2.83 305 6800 (2019) 129 (2009) 1070 139 157 242 273 449 1190 1250 3500 5310
2021-01-24 11:00 2.83 305 6800 (2019) 129 (2009) 1070 139 157 242 273 449 1190 1250 3500 5310
2021-01-24 10:30 2.83 305 6800 (2019) 129 (2009) 1070 139 157 242 273 449 1190 1250 3500 5310
2021-01-24 10:00 2.83 305 6800 (2019) 129 (2009) 1070 139 157 242 273 449 1190 1250 3500 5310
2021-01-24 09:30 2.83 305 6800 (2019) 129 (2009) 1070 139 157 242 273 449 1190 1250 3500 5310
2021-01-24 09:00 2.83 305 6800 (2019) 129 (2009) 1070 139 157 242 273 449 1190 1250 3500 5310
2021-01-24 08:30 2.83 305 6800 (2019) 129 (2009) 1070 139 157 242 273 449 1190 1250 3500 5310
2021-01-24 08:00 2.83 305 6800 (2019) 129 (2009) 1070 139 157 242 273 449 1190 1250 3500 5310
2021-01-24 07:30 2.83 305 6800 (2019) 129 (2009) 1070 139 157 242 273 449 1190 1250 3500 5310
2021-01-24 07:00 2.82 302 6800 (2019) 129 (2009) 1070 139 157 242 273 449 1190 1250 3500 5310
2021-01-24 06:30 2.83 305 6800 (2019) 129 (2009) 1070 139 157 242 273 449 1190 1250 3500 5310
2021-01-24 06:00 2.82 302 6800 (2019) 129 (2009) 1070 139 157 242 273 449 1190 1250 3500 5310
2021-01-24 05:30 2.82 302 6800 (2019) 129 (2009) 1070 139 157 242 273 449 1190 1250 3500 5310
2021-01-24 05:00 2.82 302 6800 (2019) 129 (2009) 1070 139 157 242 273 449 1190 1250 3500 5310
2021-01-24 04:30 2.82 302 6800 (2019) 129 (2009) 1070 139 157 242 273 449 1190 1250 3500 5310
2021-01-24 04:00 2.82 302 6800 (2019) 129 (2009) 1070 139 157 242 273 449 1190 1250 3500 5310
2021-01-24 03:30 2.82 302 6800 (2019) 129 (2009) 1070 139 157 242 273 449 1190 1250 3500 5310
2021-01-24 03:00 2.82 302 6800 (2019) 129 (2009) 1070 139 157 242 273 449 1190 1250 3500 5310
2021-01-24 02:30 2.82 302 6800 (2019) 129 (2009) 1070 139 157 242 273 449 1190 1250 3500 5310
2021-01-24 02:00 2.82 302 6800 (2019) 129 (2009) 1070 139 157 242 273 449 1190 1250 3500 5310
2021-01-24 01:30 2.83 305 6800 (2019) 129 (2009) 1070 139 157 242 273 449 1190 1250 3500 5310
2021-01-24 01:00 2.83 305 6800 (2019) 129 (2009) 1070 139 157 242 273 449 1190 1250 3500 5310
2021-01-24 00:30 2.82 302 6800 (2019) 129 (2009) 1070 139 157 242 273 449 1190 1250 3500 5310
2021-01-24 00:00 2.83 305 6800 (2019) 129 (2009) 1070 139 157 242 273 449 1190 1250 3500 5310
2021-01-23 23:30 2.82 302 11600 (2019) 131 (2009) 1250 143 162 187 242 483 1380 1470 2120 8220
2021-01-23 23:00 2.83 305 11600 (2019) 131 (2009) 1250 143 162 187 242 483 1380 1470 2120 8220
2021-01-23 22:30 2.83 305 11600 (2019) 131 (2009) 1250 143 162 187 242 483 1380 1470 2120 8220
2021-01-23 22:00 2.83 305 11600 (2019) 131 (2009) 1250 143 162 187 242 483 1380 1470 2120 8220
2021-01-23 21:30 2.83 305 11600 (2019) 131 (2009) 1250 143 162 187 242 483 1380 1470 2120 8220
2021-01-23 21:00 2.83 305 11600 (2019) 131 (2009) 1250 143 162 187 242 483 1380 1470 2120 8220
2021-01-23 20:30 2.83 305 11600 (2019) 131 (2009) 1250 143 162 187 242 483 1380 1470 2120 8220
2021-01-23 20:00 2.83 305 11600 (2019) 131 (2009) 1250 143 162 187 242 483 1380 1470 2120 8220
2021-01-23 19:30 2.83 305 11600 (2019) 131 (2009) 1250 143 162 187 242 483 1380 1470 2120 8220
2021-01-23 19:00 2.83 305 11600 (2019) 131 (2009) 1250 143 162 187 242 483 1380 1470 2120 8220
2021-01-23 18:30 2.84 308 11600 (2019) 131 (2009) 1250 143 162 187 242 483 1380 1470 2120 8220
2021-01-23 18:00 2.83 305 11600 (2019) 131 (2009) 1250 143 162 187 242 483 1380 1470 2120 8220
2021-01-23 17:30 2.83 305 11600 (2019) 131 (2009) 1250 143 162 187 242 483 1380 1470 2120 8220
2021-01-23 17:00 2.84 308 11600 (2019) 131 (2009) 1250 143 162 187 242 483 1380 1470 2120 8220
2021-01-23 16:30 2.84 308 11600 (2019) 131 (2009) 1250 143 162 187 242 483 1380 1470 2120 8220
2021-01-23 16:00 2.84 308 11600 (2019) 131 (2009) 1250 143 162 187 242 483 1380 1470 2120 8220
2021-01-23 15:30 2.84 308 11600 (2019) 131 (2009) 1250 143 162 187 242 483 1380 1470 2120 8220
2021-01-23 15:00 2.84 308 11600 (2019) 131 (2009) 1250 143 162 187 242 483 1380 1470 2120 8220
2021-01-23 14:30 2.84 308 11600 (2019) 131 (2009) 1250 143 162 187 242 483 1380 1470 2120 8220
2021-01-23 14:00 2.84 308 11600 (2019) 131 (2009) 1250 143 162 187 242 483 1380 1470 2120 8220
2021-01-23 13:30 2.84 308 11600 (2019) 131 (2009) 1250 143 162 187 242 483 1380 1470 2120 8220
2021-01-23 13:00 2.84 308 11600 (2019) 131 (2009) 1250 143 162 187 242 483 1380 1470 2120 8220
2021-01-23 12:30 2.84 308 11600 (2019) 131 (2009) 1250 143 162 187 242 483 1380 1470 2120 8220
2021-01-23 12:00 2.84 308 11600 (2019) 131 (2009) 1250 143 162 187 242 483 1380 1470 2120 8220
2021-01-23 11:30 2.84 308 11600 (2019) 131 (2009) 1250 143 162 187 242 483 1380 1470 2120 8220
2021-01-23 11:00 2.85 311 11600 (2019) 131 (2009) 1250 143 162 187 242 483 1380 1470 2120 8220
2021-01-23 10:30 2.84 308 11600 (2019) 131 (2009) 1250 143 162 187 242 483 1380 1470 2120 8220
2021-01-23 10:00 2.84 308 11600 (2019) 131 (2009) 1250 143 162 187 242 483 1380 1470 2120 8220
2021-01-23 09:30 2.84 308 11600 (2019) 131 (2009) 1250 143 162 187 242 483 1380 1470 2120 8220
2021-01-23 09:00 2.84 308 11600 (2019) 131 (2009) 1250 143 162 187 242 483 1380 1470 2120 8220
2021-01-23 08:30 2.84 308 11600 (2019) 131 (2009) 1250 143 162 187 242 483 1380 1470 2120 8220
2021-01-23 08:00 2.84 308 11600 (2019) 131 (2009) 1250 143 162 187 242 483 1380 1470 2120 8220
2021-01-23 07:30 2.84 308 11600 (2019) 131 (2009) 1250 143 162 187 242 483 1380 1470 2120 8220
2021-01-23 07:00 2.84 308 11600 (2019) 131 (2009) 1250 143 162 187 242 483 1380 1470 2120 8220
2021-01-23 06:30 2.84 308 11600 (2019) 131 (2009) 1250 143 162 187 242 483 1380 1470 2120 8220
2021-01-23 06:00 2.85 311 11600 (2019) 131 (2009) 1250 143 162 187 242 483 1380 1470 2120 8220
2021-01-23 05:30 2.84 308 11600 (2019) 131 (2009) 1250 143 162 187 242 483 1380 1470 2120 8220
2021-01-23 05:00 2.85 311 11600 (2019) 131 (2009) 1250 143 162 187 242 483 1380 1470 2120 8220
2021-01-23 04:30 2.85 311 11600 (2019) 131 (2009) 1250 143 162 187 242 483 1380 1470 2120 8220
2021-01-23 04:00 2.85 311 11600 (2019) 131 (2009) 1250 143 162 187 242 483 1380 1470 2120 8220
2021-01-23 03:30 2.85 311 11600 (2019) 131 (2009) 1250 143 162 187 242 483 1380 1470 2120 8220
2021-01-23 03:00 2.85 311 11600 (2019) 131 (2009) 1250 143 162 187 242 483 1380 1470 2120 8220
2021-01-23 02:30 2.85 311 11600 (2019) 131 (2009) 1250 143 162 187 242 483 1380 1470 2120 8220
2021-01-23 02:00 2.85 311 11600 (2019) 131 (2009) 1250 143 162 187 242 483 1380 1470 2120 8220
2021-01-23 01:30 2.85 311 11600 (2019) 131 (2009) 1250 143 162 187 242 483 1380 1470 2120 8220
2021-01-23 01:00 2.85 311 11600 (2019) 131 (2009) 1250 143 162 187 242 483 1380 1470 2120 8220
2021-01-23 00:30 2.85 311 11600 (2019) 131 (2009) 1250 143 162 187 242 483 1380 1470 2120 8220
2021-01-23 00:00 2.85 311 11600 (2019) 131 (2009) 1250 143 162 187 242 483 1380 1470 2120 8220
2021-01-22 23:30 2.86 315 5980 (1997) 99 (2018) 1060 116 162 185 248 457 1610 1840 2030 4860
2021-01-22 23:00 2.86 315 5980 (1997) 99 (2018) 1060 116 162 185 248 457 1610 1840 2030 4860
2021-01-22 22:30 2.86 315 5980 (1997) 99 (2018) 1060 116 162 185 248 457 1610 1840 2030 4860
2021-01-22 22:00 2.86 315 5980 (1997) 99 (2018) 1060 116 162 185 248 457 1610 1840 2030 4860
2021-01-22 21:30 2.86 315 5980 (1997) 99 (2018) 1060 116 162 185 248 457 1610 1840 2030 4860
2021-01-22 21:00 2.86 315 5980 (1997) 99 (2018) 1060 116 162 185 248 457 1610 1840 2030 4860
2021-01-22 20:30 2.86 315 5980 (1997) 99 (2018) 1060 116 162 185 248 457 1610 1840 2030 4860
2021-01-22 20:00 2.86 315 5980 (1997) 99 (2018) 1060 116 162 185 248 457 1610 1840 2030 4860
2021-01-22 19:30 2.86 315 5980 (1997) 99 (2018) 1060 116 162 185 248 457 1610 1840 2030 4860
2021-01-22 19:00 2.87 318 5980 (1997) 99 (2018) 1060 116 162 185 248 457 1610 1840 2030 4860
2021-01-22 18:30 2.87 318 5980 (1997) 99 (2018) 1060 116 162 185 248 457 1610 1840 2030 4860
2021-01-22 18:00 2.87 318 5980 (1997) 99 (2018) 1060 116 162 185 248 457 1610 1840 2030 4860
2021-01-22 17:30 2.86 315 5980 (1997) 99 (2018) 1060 116 162 185 248 457 1610 1840 2030 4860
2021-01-22 17:00 2.87 318 5980 (1997) 99 (2018) 1060 116 162 185 248 457 1610 1840 2030 4860
2021-01-22 16:30 2.87 318 5980 (1997) 99 (2018) 1060 116 162 185 248 457 1610 1840 2030 4860
2021-01-22 16:00 2.87 318 5980 (1997) 99 (2018) 1060 116 162 185 248 457 1610 1840 2030 4860
2021-01-22 15:30 2.87 318 5980 (1997) 99 (2018) 1060 116 162 185 248 457 1610 1840 2030 4860
2021-01-22 15:00 2.87 318 5980 (1997) 99 (2018) 1060 116 162 185 248 457 1610 1840 2030 4860
2021-01-22 14:30 2.87 318 5980 (1997) 99 (2018) 1060 116 162 185 248 457 1610 1840 2030 4860
2021-01-22 14:00 2.87 318 5980 (1997) 99 (2018) 1060 116 162 185 248 457 1610 1840 2030 4860
2021-01-22 13:30 2.87 318 5980 (1997) 99 (2018) 1060 116 162 185 248 457 1610 1840 2030 4860
2021-01-22 13:00 2.88 321 5980 (1997) 99 (2018) 1060 116 162 185 248 457 1610 1840 2030 4860
2021-01-22 12:30 2.88 321 5980 (1997) 99 (2018) 1060 116 162 185 248 457 1610 1840 2030 4860
2021-01-22 12:00 2.87 318 5980 (1997) 99 (2018) 1060 116 162 185 248 457 1610 1840 2030 4860
2021-01-22 11:30 2.88 321 5980 (1997) 99 (2018) 1060 116 162 185 248 457 1610 1840 2030 4860
2021-01-22 11:00 2.88 321 5980 (1997) 99 (2018) 1060 116 162 185 248 457 1610 1840 2030 4860
2021-01-22 10:30 2.87 318 5980 (1997) 99 (2018) 1060 116 162 185 248 457 1610 1840 2030 4860
2021-01-22 10:00 2.87 318 5980 (1997) 99 (2018) 1060 116 162 185 248 457 1610 1840 2030 4860
2021-01-22 09:30 2.87 318 5980 (1997) 99 (2018) 1060 116 162 185 248 457 1610 1840 2030 4860
2021-01-22 09:00 2.88 321 5980 (1997) 99 (2018) 1060 116 162 185 248 457 1610 1840 2030 4860
2021-01-22 08:30 2.87 318 5980 (1997) 99 (2018) 1060 116 162 185 248 457 1610 1840 2030 4860
2021-01-22 08:00 2.87 318 5980 (1997) 99 (2018) 1060 116 162 185 248 457 1610 1840 2030 4860
2021-01-22 07:30 2.87 318 5980 (1997) 99 (2018) 1060 116 162 185 248 457 1610 1840 2030 4860
2021-01-22 07:00 2.87 318 5980 (1997) 99 (2018) 1060 116 162 185 248 457 1610 1840 2030 4860
2021-01-22 06:30 2.87 318 5980 (1997) 99 (2018) 1060 116 162 185 248 457 1610 1840 2030 4860
2021-01-22 06:00 2.87 318 5980 (1997) 99 (2018) 1060 116 162 185 248 457 1610 1840 2030 4860
2021-01-22 05:30 2.87 318 5980 (1997) 99 (2018) 1060 116 162 185 248 457 1610 1840 2030 4860
2021-01-22 05:00 2.88 321 5980 (1997) 99 (2018) 1060 116 162 185 248 457 1610 1840 2030 4860
2021-01-22 04:30 2.87 318 5980 (1997) 99 (2018) 1060 116 162 185 248 457 1610 1840 2030 4860
2021-01-22 04:00 2.87 318 5980 (1997) 99 (2018) 1060 116 162 185 248 457 1610 1840 2030 4860
2021-01-22 03:30 2.87 318 5980 (1997) 99 (2018) 1060 116 162 185 248 457 1610 1840 2030 4860
2021-01-22 03:00 2.87 318 5980 (1997) 99 (2018) 1060 116 162 185 248 457 1610 1840 2030 4860
2021-01-22 02:30 2.87 318 5980 (1997) 99 (2018) 1060 116 162 185 248 457 1610 1840 2030 4860
2021-01-22 02:00 2.87 318 5980 (1997) 99 (2018) 1060 116 162 185 248 457 1610 1840 2030 4860
2021-01-22 01:30 2.88 321 5980 (1997) 99 (2018) 1060 116 162 185 248 457 1610 1840 2030 4860
2021-01-22 01:00 2.88 321 5980 (1997) 99 (2018) 1060 116 162 185 248 457 1610 1840 2030 4860
2021-01-22 00:30 2.87 318 5980 (1997) 99 (2018) 1060 116 162 185 248 457 1610 1840 2030 4860
2021-01-22 00:00 2.88 321 5980 (1997) 99 (2018) 1060 116 162 185 248 457 1610 1840 2030 4860
2021-01-21 23:30 2.88 321 6540 (1993) 80 (2018) 1190 108 166 188 258 459 1720 2280 3510 5030
2021-01-21 23:00 2.88 321 6540 (1993) 80 (2018) 1190 108 166 188 258 459 1720 2280 3510 5030
2021-01-21 22:30 2.88 321 6540 (1993) 80 (2018) 1190 108 166 188 258 459 1720 2280 3510 5030
2021-01-21 22:00 2.88 321 6540 (1993) 80 (2018) 1190 108 166 188 258 459 1720 2280 3510 5030
2021-01-21 21:30 2.88 321 6540 (1993) 80 (2018) 1190 108 166 188 258 459 1720 2280 3510 5030
2021-01-21 21:00 2.88 321 6540 (1993) 80 (2018) 1190 108 166 188 258 459 1720 2280 3510 5030
2021-01-21 20:30 2.88 321 6540 (1993) 80 (2018) 1190 108 166 188 258 459 1720 2280 3510 5030
2021-01-21 20:00 2.88 321 6540 (1993) 80 (2018) 1190 108 166 188 258 459 1720 2280 3510 5030
2021-01-21 19:30 2.88 321 6540 (1993) 80 (2018) 1190 108 166 188 258 459 1720 2280 3510 5030
2021-01-21 19:00 2.89 324 6540 (1993) 80 (2018) 1190 108 166 188 258 459 1720 2280 3510 5030
2021-01-21 18:30 2.88 321 6540 (1993) 80 (2018) 1190 108 166 188 258 459 1720 2280 3510 5030
2021-01-21 18:00 2.89 324 6540 (1993) 80 (2018) 1190 108 166 188 258 459 1720 2280 3510 5030
2021-01-21 17:30 2.89 324 6540 (1993) 80 (2018) 1190 108 166 188 258 459 1720 2280 3510 5030
2021-01-21 17:00 2.88 321 6540 (1993) 80 (2018) 1190 108 166 188 258 459 1720 2280 3510 5030
2021-01-21 16:30 2.89 324 6540 (1993) 80 (2018) 1190 108 166 188 258 459 1720 2280 3510 5030
2021-01-21 16:00 2.89 324 6540 (1993) 80 (2018) 1190 108 166 188 258 459 1720 2280 3510 5030
2021-01-21 15:30 2.89 324 6540 (1993) 80 (2018) 1190 108 166 188 258 459 1720 2280 3510 5030
2021-01-21 15:00 2.89 324 6540 (1993) 80 (2018) 1190 108 166 188 258 459 1720 2280 3510 5030
2021-01-21 14:30 2.89 324 6540 (1993) 80 (2018) 1190 108 166 188 258 459 1720 2280 3510 5030
2021-01-21 14:00 2.90 327 6540 (1993) 80 (2018) 1190 108 166 188 258 459 1720 2280 3510 5030
2021-01-21 13:30 2.90 327 6540 (1993) 80 (2018) 1190 108 166 188 258 459 1720 2280 3510 5030
2021-01-21 13:00 2.89 324 6540 (1993) 80 (2018) 1190 108 166 188 258 459 1720 2280 3510 5030
2021-01-21 12:30 2.89 324 6540 (1993) 80 (2018) 1190 108 166 188 258 459 1720 2280 3510 5030
2021-01-21 12:00 2.90 327 6540 (1993) 80 (2018) 1190 108 166 188 258 459 1720 2280 3510 5030
2021-01-21 11:30 2.90 327 6540 (1993) 80 (2018) 1190 108 166 188 258 459 1720 2280 3510 5030
2021-01-21 11:00 2.90 327 6540 (1993) 80 (2018) 1190 108 166 188 258 459 1720 2280 3510 5030
2021-01-21 10:30 2.89 324 6540 (1993) 80 (2018) 1190 108 166 188 258 459 1720 2280 3510 5030
2021-01-21 10:00 2.90 327 6540 (1993) 80 (2018) 1190 108 166 188 258 459 1720 2280 3510 5030
2021-01-21 09:30 2.90 327 6540 (1993) 80 (2018) 1190 108 166 188 258 459 1720 2280 3510 5030
2021-01-21 09:00 2.90 327 6540 (1993) 80 (2018) 1190 108 166 188 258 459 1720 2280 3510 5030
2021-01-21 08:30 2.90 327 6540 (1993) 80 (2018) 1190 108 166 188 258 459 1720 2280 3510 5030
2021-01-21 08:00 2.90 327 6540 (1993) 80 (2018) 1190 108 166 188 258 459 1720 2280 3510 5030
2021-01-21 07:30 2.90 327 6540 (1993) 80 (2018) 1190 108 166 188 258 459 1720 2280 3510 5030
2021-01-21 07:00 2.90 327 6540 (1993) 80 (2018) 1190 108 166 188 258 459 1720 2280 3510 5030
2021-01-21 06:30 2.90 327 6540 (1993) 80 (2018) 1190 108 166 188 258 459 1720 2280 3510 5030
2021-01-21 06:00 2.91 330 6540 (1993) 80 (2018) 1190 108 166 188 258 459 1720 2280 3510 5030
2021-01-21 05:30 2.90 327 6540 (1993) 80 (2018) 1190 108 166 188 258 459 1720 2280 3510 5030
2021-01-21 05:00 2.90 327 6540 (1993) 80 (2018) 1190 108 166 188 258 459 1720 2280 3510 5030
2021-01-21 04:30 2.91 330 6540 (1993) 80 (2018) 1190 108 166 188 258 459 1720 2280 3510 5030
2021-01-21 04:00 2.90 327 6540 (1993) 80 (2018) 1190 108 166 188 258 459 1720 2280 3510 5030
2021-01-21 03:30 2.91 330 6540 (1993) 80 (2018) 1190 108 166 188 258 459 1720 2280 3510 5030
2021-01-21 03:00 2.90 327 6540 (1993) 80 (2018) 1190 108 166 188 258 459 1720 2280 3510 5030
2021-01-21 02:30 2.91 330 6540 (1993) 80 (2018) 1190 108 166 188 258 459 1720 2280 3510 5030
2021-01-21 02:00 2.91 330 6540 (1993) 80 (2018) 1190 108 166 188 258 459 1720 2280 3510 5030
2021-01-21 01:30 2.91 330 6540 (1993) 80 (2018) 1190 108 166 188 258 459 1720 2280 3510 5030
2021-01-21 01:00 2.91 330 6540 (1993) 80 (2018) 1190 108 166 188 258 459 1720 2280 3510 5030
2021-01-21 00:30 2.91 330 6540 (1993) 80 (2018) 1190 108 166 188 258 459 1720 2280 3510 5030
2021-01-21 00:00 2.91 330 6540 (1993) 80 (2018) 1190 108 166 188 258 459 1720 2280 3510 5030
2021-01-20 23:30 2.91 330 11600 (1990) 78 (2018) 1750 109 150 208 264 474 2090 2330 5860 10000
2021-01-20 23:00 2.91 330 11600 (1990) 78 (2018) 1750 109 150 208 264 474 2090 2330 5860 10000
2021-01-20 22:30 2.92 333 11600 (1990) 78 (2018) 1750 109 150 208 264 474 2090 2330 5860 10000
2021-01-20 22:00 2.91 330 11600 (1990) 78 (2018) 1750 109 150 208 264 474 2090 2330 5860 10000
2021-01-20 21:30 2.92 333 11600 (1990) 78 (2018) 1750 109 150 208 264 474 2090 2330 5860 10000
2021-01-20 21:00 2.92 333 11600 (1990) 78 (2018) 1750 109 150 208 264 474 2090 2330 5860 10000
2021-01-20 20:30 2.92 333 11600 (1990) 78 (2018) 1750 109 150 208 264 474 2090 2330 5860 10000
2021-01-20 20:00 2.92 333 11600 (1990) 78 (2018) 1750 109 150 208 264 474 2090 2330 5860 10000
2021-01-20 19:30 2.92 333 11600 (1990) 78 (2018) 1750 109 150 208 264 474 2090 2330 5860 10000
2021-01-20 19:00 2.92 333 11600 (1990) 78 (2018) 1750 109 150 208 264 474 2090 2330 5860 10000
2021-01-20 18:30 2.92 333 11600 (1990) 78 (2018) 1750 109 150 208 264 474 2090 2330 5860 10000
2021-01-20 18:00 2.92 333 11600 (1990) 78 (2018) 1750 109 150 208 264 474 2090 2330 5860 10000
2021-01-20 17:30 2.92 333 11600 (1990) 78 (2018) 1750 109 150 208 264 474 2090 2330 5860 10000
2021-01-20 17:00 2.92 333 11600 (1990) 78 (2018) 1750 109 150 208 264 474 2090 2330 5860 10000
2021-01-20 16:30 2.92 333 11600 (1990) 78 (2018) 1750 109 150 208 264 474 2090 2330 5860 10000
2021-01-20 16:00 2.93 337 11600 (1990) 78 (2018) 1750 109 150 208 264 474 2090 2330 5860 10000
2021-01-20 15:30 2.93 337 11600 (1990) 78 (2018) 1750 109 150 208 264 474 2090 2330 5860 10000
2021-01-20 15:00 2.92 333 11600 (1990) 78 (2018) 1750 109 150 208 264 474 2090 2330 5860 10000
2021-01-20 14:30 2.93 337 11600 (1990) 78 (2018) 1750 109 150 208 264 474 2090 2330 5860 10000
2021-01-20 14:00 2.92 333 11600 (1990) 78 (2018) 1750 109 150 208 264 474 2090 2330 5860 10000
2021-01-20 13:30 2.93 337 11600 (1990) 78 (2018) 1750 109 150 208 264 474 2090 2330 5860 10000
2021-01-20 13:00 2.94 340 11600 (1990) 78 (2018) 1750 109 150 208 264 474 2090 2330 5860 10000
2021-01-20 12:30 2.94 340 11600 (1990) 78 (2018) 1750 109 150 208 264 474 2090 2330 5860 10000
2021-01-20 12:00 2.94 340 11600 (1990) 78 (2018) 1750 109 150 208 264 474 2090 2330 5860 10000
2021-01-20 11:30 2.94 340 11600 (1990) 78 (2018) 1750 109 150 208 264 474 2090 2330 5860 10000
2021-01-20 11:00 2.94 340 11600 (1990) 78 (2018) 1750 109 150 208 264 474 2090 2330 5860 10000
2021-01-20 10:30 2.93 337 11600 (1990) 78 (2018) 1750 109 150 208 264 474 2090 2330 5860 10000
2021-01-20 10:00 2.94 340 11600 (1990) 78 (2018) 1750 109 150 208 264 474 2090 2330 5860 10000
2021-01-20 09:30 2.94 340 11600 (1990) 78 (2018) 1750 109 150 208 264 474 2090 2330 5860 10000
2021-01-20 09:00 2.94 340 11600 (1990) 78 (2018) 1750 109 150 208 264 474 2090 2330 5860 10000
2021-01-20 08:30 2.94 340 11600 (1990) 78 (2018) 1750 109 150 208 264 474 2090 2330 5860 10000
2021-01-20 08:00 2.94 340 11600 (1990) 78 (2018) 1750 109 150 208 264 474 2090 2330 5860 10000
2021-01-20 07:30 2.94 340 11600 (1990) 78 (2018) 1750 109 150 208 264 474 2090 2330 5860 10000
2021-01-20 07:00 2.93 337 11600 (1990) 78 (2018) 1750 109 150 208 264 474 2090 2330 5860 10000
2021-01-20 06:30 2.94 340 11600 (1990) 78 (2018) 1750 109 150 208 264 474 2090 2330 5860 10000
2021-01-20 06:00 2.94 340 11600 (1990) 78 (2018) 1750 109 150 208 264 474 2090 2330 5860 10000
2021-01-20 05:30 2.94 340 11600 (1990) 78 (2018) 1750 109 150 208 264 474 2090 2330 5860 10000
2021-01-20 05:00 2.94 340 11600 (1990) 78 (2018) 1750 109 150 208 264 474 2090 2330 5860 10000
2021-01-20 04:30 2.94 340 11600 (1990) 78 (2018) 1750 109 150 208 264 474 2090 2330 5860 10000
2021-01-20 04:00 2.94 340 11600 (1990) 78 (2018) 1750 109 150 208 264 474 2090 2330 5860 10000
2021-01-20 03:30 2.94 340 11600 (1990) 78 (2018) 1750 109 150 208 264 474 2090 2330 5860 10000
2021-01-20 03:00 2.94 340 11600 (1990) 78 (2018) 1750 109 150 208 264 474 2090 2330 5860 10000
2021-01-20 02:30 2.95 343 11600 (1990) 78 (2018) 1750 109 150 208 264 474 2090 2330 5860 10000
2021-01-20 02:00 2.95 343 11600 (1990) 78 (2018) 1750 109 150 208 264 474 2090 2330 5860 10000
2021-01-20 01:30 2.94 340 11600 (1990) 78 (2018) 1750 109 150 208 264 474 2090 2330 5860 10000
2021-01-20 01:00 2.95 343 11600 (1990) 78 (2018) 1750 109 150 208 264 474 2090 2330 5860 10000
2021-01-20 00:30 2.95 343 11600 (1990) 78 (2018) 1750 109 150 208 264 474 2090 2330 5860 10000
2021-01-20 00:00 2.95 343 11600 (1990) 78 (2018) 1750 109 150 208 264 474 2090 2330 5860 10000
2021-01-19 23:30 2.95 343 7660 (1995) 79 (2018) 1460 110 148 214 270 526 1480 2480 5680 7090
2021-01-19 23:00 2.95 343 7660 (1995) 79 (2018) 1460 110 148 214 270 526 1480 2480 5680 7090
2021-01-19 22:30 2.95 343 7660 (1995) 79 (2018) 1460 110 148 214 270 526 1480 2480 5680 7090
2021-01-19 22:00 2.96 346 7660 (1995) 79 (2018) 1460 110 148 214 270 526 1480 2480 5680 7090
2021-01-19 21:30 2.96 346 7660 (1995) 79 (2018) 1460 110 148 214 270 526 1480 2480 5680 7090
2021-01-19 21:00 2.96 346 7660 (1995) 79 (2018) 1460 110 148 214 270 526 1480 2480 5680 7090
2021-01-19 20:30 2.96 346 7660 (1995) 79 (2018) 1460 110 148 214 270 526 1480 2480 5680 7090
2021-01-19 20:00 2.96 346 7660 (1995) 79 (2018) 1460 110 148 214 270 526 1480 2480 5680 7090
2021-01-19 19:30 2.96 346 7660 (1995) 79 (2018) 1460 110 148 214 270 526 1480 2480 5680 7090
2021-01-19 19:00 2.96 346 7660 (1995) 79 (2018) 1460 110 148 214 270 526 1480 2480 5680 7090
2021-01-19 18:30 2.96 346 7660 (1995) 79 (2018) 1460 110 148 214 270 526 1480 2480 5680 7090
2021-01-19 18:00 2.96 346 7660 (1995) 79 (2018) 1460 110 148 214 270 526 1480 2480 5680 7090
2021-01-19 17:30 2.96 346 7660 (1995) 79 (2018) 1460 110 148 214 270 526 1480 2480 5680 7090
2021-01-19 17:00 2.96 346 7660 (1995) 79 (2018) 1460 110 148 214 270 526 1480 2480 5680 7090
2021-01-19 16:30 2.96 346 7660 (1995) 79 (2018) 1460 110 148 214 270 526 1480 2480 5680 7090
2021-01-19 16:00 2.97 350 7660 (1995) 79 (2018) 1460 110 148 214 270 526 1480 2480 5680 7090
2021-01-19 15:30 2.96 346 7660 (1995) 79 (2018) 1460 110 148 214 270 526 1480 2480 5680 7090
2021-01-19 15:00 2.97 350 7660 (1995) 79 (2018) 1460 110 148 214 270 526 1480 2480 5680 7090
2021-01-19 14:30 2.97 350 7660 (1995) 79 (2018) 1460 110 148 214 270 526 1480 2480 5680 7090
2021-01-19 14:00 2.97 350 7660 (1995) 79 (2018) 1460 110 148 214 270 526 1480 2480 5680 7090
2021-01-19 13:30 2.97 350 7660 (1995) 79 (2018) 1460 110 148 214 270 526 1480 2480 5680 7090
2021-01-19 13:00 2.97 350 7660 (1995) 79 (2018) 1460 110 148 214 270 526 1480 2480 5680 7090
2021-01-19 12:30 2.97 350 7660 (1995) 79 (2018) 1460 110 148 214 270 526 1480 2480 5680 7090
2021-01-19 12:00 2.98 353 7660 (1995) 79 (2018) 1460 110 148 214 270 526 1480 2480 5680 7090
2021-01-19 11:30 2.97 350 7660 (1995) 79 (2018) 1460 110 148 214 270 526 1480 2480 5680 7090
2021-01-19 11:00 2.98 353 7660 (1995) 79 (2018) 1460 110 148 214 270 526 1480 2480 5680 7090
2021-01-19 10:30 2.98 353 7660 (1995) 79 (2018) 1460 110 148 214 270 526 1480 2480 5680 7090
2021-01-19 10:00 2.98 353 7660 (1995) 79 (2018) 1460 110 148 214 270 526 1480 2480 5680 7090
2021-01-19 09:30 2.98 353 7660 (1995) 79 (2018) 1460 110 148 214 270 526 1480 2480 5680 7090
2021-01-19 09:00 2.98 353 7660 (1995) 79 (2018) 1460 110 148 214 270 526 1480 2480 5680 7090
2021-01-19 08:30 2.98 353 7660 (1995) 79 (2018) 1460 110 148 214 270 526 1480 2480 5680 7090
2021-01-19 08:00 2.98 353 7660 (1995) 79 (2018) 1460 110 148 214 270 526 1480 2480 5680 7090
2021-01-19 07:30 2.98 353 7660 (1995) 79 (2018) 1460 110 148 214 270 526 1480 2480 5680 7090
2021-01-19 07:00 2.98 353 7660 (1995) 79 (2018) 1460 110 148 214 270 526 1480 2480 5680 7090
2021-01-19 06:30 2.99 356 7660 (1995) 79 (2018) 1460 110 148 214 270 526 1480 2480 5680 7090
2021-01-19 06:00 2.98 353 7660 (1995) 79 (2018) 1460 110 148 214 270 526 1480 2480 5680 7090
2021-01-19 05:30 2.99 356 7660 (1995) 79 (2018) 1460 110 148 214 270 526 1480 2480 5680 7090
2021-01-19 05:00 2.99 356 7660 (1995) 79 (2018) 1460 110 148 214 270 526 1480 2480 5680 7090
2021-01-19 04:30 2.98 353 7660 (1995) 79 (2018) 1460 110 148 214 270 526 1480 2480 5680 7090
2021-01-19 04:00 2.99 356 7660 (1995) 79 (2018) 1460 110 148 214 270 526 1480 2480 5680 7090
2021-01-19 03:30 2.99 356 7660 (1995) 79 (2018) 1460 110 148 214 270 526 1480 2480 5680 7090
2021-01-19 03:00 2.99 356 7660 (1995) 79 (2018) 1460 110 148 214 270 526 1480 2480 5680 7090
2021-01-19 02:30 2.99 356 7660 (1995) 79 (2018) 1460 110 148 214 270 526 1480 2480 5680 7090
2021-01-19 02:00 2.99 356 7660 (1995) 79 (2018) 1460 110 148 214 270 526 1480 2480 5680 7090
2021-01-19 01:30 2.99 356 7660 (1995) 79 (2018) 1460 110 148 214 270 526 1480 2480 5680 7090
2021-01-19 01:00 2.99 356 7660 (1995) 79 (2018) 1460 110 148 214 270 526 1480 2480 5680 7090
2021-01-19 00:30 3.00 360 7660 (1995) 79 (2018) 1460 110 148 214 270 526 1480 2480 5680 7090
2021-01-19 00:00 2.99 356 7660 (1995) 79 (2018) 1460 110 148 214 270 526 1480 2480 5680 7090
2021-01-18 23:30 3.00 360 4530 (2020) 81 (2018) 1030 112 149 239 286 481 1520 1790 2940 4250
2021-01-18 23:00 3.00 360 4530 (2020) 81 (2018) 1030 112 149 239 286 481 1520 1790 2940 4250
2021-01-18 22:30 3.00 360 4530 (2020) 81 (2018) 1030 112 149 239 286 481 1520 1790 2940 4250
2021-01-18 22:00 3.00 360 4530 (2020) 81 (2018) 1030 112 149 239 286 481 1520 1790 2940 4250
2021-01-18 21:30 3.00 360 4530 (2020) 81 (2018) 1030 112 149 239 286 481 1520 1790 2940 4250
2021-01-18 21:00 3.00 360 4530 (2020) 81 (2018) 1030 112 149 239 286 481 1520 1790 2940 4250
2021-01-18 20:30 3.00 360 4530 (2020) 81 (2018) 1030 112 149 239 286 481 1520 1790 2940 4250
2021-01-18 20:00 3.00 360 4530 (2020) 81 (2018) 1030 112 149 239 286 481 1520 1790 2940 4250
2021-01-18 19:30 3.01 363 4530 (2020) 81 (2018) 1030 112 149 239 286 481 1520 1790 2940 4250
2021-01-18 19:00 3.00 360 4530 (2020) 81 (2018) 1030 112 149 239 286 481 1520 1790 2940 4250
2021-01-18 18:30 3.00 360 4530 (2020) 81 (2018) 1030 112 149 239 286 481 1520 1790 2940 4250
2021-01-18 18:00 3.01 363 4530 (2020) 81 (2018) 1030 112 149 239 286 481 1520 1790 2940 4250
2021-01-18 17:30 3.00 360 4530 (2020) 81 (2018) 1030 112 149 239 286 481 1520 1790 2940 4250
2021-01-18 17:00 3.00 360 4530 (2020) 81 (2018) 1030 112 149 239 286 481 1520 1790 2940 4250
2021-01-18 16:30 3.01 363 4530 (2020) 81 (2018) 1030 112 149 239 286 481 1520 1790 2940 4250
2021-01-18 16:00 3.01 363 4530 (2020) 81 (2018) 1030 112 149 239 286 481 1520 1790 2940 4250
2021-01-18 15:30 3.01 363 4530 (2020) 81 (2018) 1030 112 149 239 286 481 1520 1790 2940 4250
2021-01-18 15:00 3.01 363 4530 (2020) 81 (2018) 1030 112 149 239 286 481 1520 1790 2940 4250
2021-01-18 14:30 3.01 363 4530 (2020) 81 (2018) 1030 112 149 239 286 481 1520 1790 2940 4250
2021-01-18 14:00 3.01 363 4530 (2020) 81 (2018) 1030 112 149 239 286 481 1520 1790 2940 4250
2021-01-18 13:30 3.02 366 4530 (2020) 81 (2018) 1030 112 149 239 286 481 1520 1790 2940 4250
2021-01-18 13:00 3.02 366 4530 (2020) 81 (2018) 1030 112 149 239 286 481 1520 1790 2940 4250
2021-01-18 12:30 3.02 366 4530 (2020) 81 (2018) 1030 112 149 239 286 481 1520 1790 2940 4250
2021-01-18 12:00 3.02 366 4530 (2020) 81 (2018) 1030 112 149 239 286 481 1520 1790 2940 4250
2021-01-18 11:30 3.02 366 4530 (2020) 81 (2018) 1030 112 149 239 286 481 1520 1790 2940 4250
2021-01-18 11:00 3.02 366 4530 (2020) 81 (2018) 1030 112 149 239 286 481 1520 1790 2940 4250
2021-01-18 10:30 3.02 366 4530 (2020) 81 (2018) 1030 112 149 239 286 481 1520 1790 2940 4250
2021-01-18 10:00 3.02 366 4530 (2020) 81 (2018) 1030 112 149 239 286 481 1520 1790 2940 4250
2021-01-18 09:30 3.02 366 4530 (2020) 81 (2018) 1030 112 149 239 286 481 1520 1790 2940 4250
2021-01-18 09:00 3.02 366 4530 (2020) 81 (2018) 1030 112 149 239 286 481 1520 1790 2940 4250
2021-01-18 08:30 3.02 366 4530 (2020) 81 (2018) 1030 112 149 239 286 481 1520 1790 2940 4250
2021-01-18 08:00 3.02 366 4530 (2020) 81 (2018) 1030 112 149 239 286 481 1520 1790 2940 4250
2021-01-18 07:30 3.02 366 4530 (2020) 81 (2018) 1030 112 149 239 286 481 1520 1790 2940 4250
2021-01-18 07:00 3.02 366 4530 (2020) 81 (2018) 1030 112 149 239 286 481 1520 1790 2940 4250
2021-01-18 06:30 3.03 370 4530 (2020) 81 (2018) 1030 112 149 239 286 481 1520 1790 2940 4250
2021-01-18 06:00 3.02 366 4530 (2020) 81 (2018) 1030 112 149 239 286 481 1520 1790 2940 4250
2021-01-18 05:30 3.02 366 4530 (2020) 81 (2018) 1030 112 149 239 286 481 1520 1790 2940 4250
2021-01-18 05:00 3.03 370 4530 (2020) 81 (2018) 1030 112 149 239 286 481 1520 1790 2940 4250
2021-01-18 04:30 3.03 370 4530 (2020) 81 (2018) 1030 112 149 239 286 481 1520 1790 2940 4250
2021-01-18 04:00 3.03 370 4530 (2020) 81 (2018) 1030 112 149 239 286 481 1520 1790 2940 4250
2021-01-18 03:30 3.03 370 4530 (2020) 81 (2018) 1030 112 149 239 286 481 1520 1790 2940 4250
2021-01-18 03:00 3.03 370 4530 (2020) 81 (2018) 1030 112 149 239 286 481 1520 1790 2940 4250
2021-01-18 02:30 3.03 370 4530 (2020) 81 (2018) 1030 112 149 239 286 481 1520 1790 2940 4250
2021-01-18 02:00 3.03 370 4530 (2020) 81 (2018) 1030 112 149 239 286 481 1520 1790 2940 4250
2021-01-18 01:30 3.03 370 4530 (2020) 81 (2018) 1030 112 149 239 286 481 1520 1790 2940 4250
2021-01-18 01:00 3.04 373 4530 (2020) 81 (2018) 1030 112 149 239 286 481 1520 1790 2940 4250
2021-01-18 00:30 3.03 370 4530 (2020) 81 (2018) 1030 112 149 239 286 481 1520 1790 2940 4250
2021-01-18 00:00 3.04 373 4530 (2020) 81 (2018) 1030 112 149 239 286 481 1520 1790 2940 4250
2021-01-17 23:30 3.04 373 5340 (2017) 85 (2018) 984 95 144 230 272 506 1070 1250 2980 4780
2021-01-17 23:00 3.03 370 5340 (2017) 85 (2018) 984 95 144 230 272 506 1070 1250 2980 4780
2021-01-17 22:30 3.04 373 5340 (2017) 85 (2018) 984 95 144 230 272 506 1070 1250 2980 4780
2021-01-17 22:00 3.04 373 5340 (2017) 85 (2018) 984 95 144 230 272 506 1070 1250 2980 4780
2021-01-17 21:30 3.04 373 5340 (2017) 85 (2018) 984 95 144 230 272 506 1070 1250 2980 4780
2021-01-17 21:00 3.04 373 5340 (2017) 85 (2018) 984 95 144 230 272 506 1070 1250 2980 4780
2021-01-17 20:30 3.04 373 5340 (2017) 85 (2018) 984 95 144 230 272 506 1070 1250 2980 4780
2021-01-17 20:00 3.04 373 5340 (2017) 85 (2018) 984 95 144 230 272 506 1070 1250 2980 4780
2021-01-17 19:30 3.05 377 5340 (2017) 85 (2018) 984 95 144 230 272 506 1070 1250 2980 4780
2021-01-17 19:00 3.04 373 5340 (2017) 85 (2018) 984 95 144 230 272 506 1070 1250 2980 4780
2021-01-17 18:30 3.05 377 5340 (2017) 85 (2018) 984 95 144 230 272 506 1070 1250 2980 4780
2021-01-17 18:00 3.05 377 5340 (2017) 85 (2018) 984 95 144 230 272 506 1070 1250 2980 4780
2021-01-17 17:30 3.05 377 5340 (2017) 85 (2018) 984 95 144 230 272 506 1070 1250 2980 4780
2021-01-17 17:00 3.05 377 5340 (2017) 85 (2018) 984 95 144 230 272 506 1070 1250 2980 4780
2021-01-17 16:30 3.05 377 5340 (2017) 85 (2018) 984 95 144 230 272 506 1070 1250 2980 4780
2021-01-17 16:00 3.06 380 5340 (2017) 85 (2018) 984 95 144 230 272 506 1070 1250 2980 4780
2021-01-17 15:30 3.05 377 5340 (2017) 85 (2018) 984 95 144 230 272 506 1070 1250 2980 4780
2021-01-17 15:00 3.05 377 5340 (2017) 85 (2018) 984 95 144 230 272 506 1070 1250 2980 4780
2021-01-17 14:30 3.06 380 5340 (2017) 85 (2018) 984 95 144 230 272 506 1070 1250 2980 4780
2021-01-17 14:00 3.05 377 5340 (2017) 85 (2018) 984 95 144 230 272 506 1070 1250 2980 4780
2021-01-17 13:30 3.06 380 5340 (2017) 85 (2018) 984 95 144 230 272 506 1070 1250 2980 4780
2021-01-17 13:00 3.06 380 5340 (2017) 85 (2018) 984 95 144 230 272 506 1070 1250 2980 4780
2021-01-17 12:30 3.06 380 5340 (2017) 85 (2018) 984 95 144 230 272 506 1070 1250 2980 4780
2021-01-17 12:00 3.06 380 5340 (2017) 85 (2018) 984 95 144 230 272 506 1070 1250 2980 4780
2021-01-17 11:30 3.07 383 5340 (2017) 85 (2018) 984 95 144 230 272 506 1070 1250 2980 4780
2021-01-17 11:00 3.06 380 5340 (2017) 85 (2018) 984 95 144 230 272 506 1070 1250 2980 4780
2021-01-17 10:30 3.07 383 5340 (2017) 85 (2018) 984 95 144 230 272 506 1070 1250 2980 4780
2021-01-17 10:00 3.07 383 5340 (2017) 85 (2018) 984 95 144 230 272 506 1070 1250 2980 4780
2021-01-17 09:30 3.07 383 5340 (2017) 85 (2018) 984 95 144 230 272 506 1070 1250 2980 4780
2021-01-17 09:00 3.06 380 5340 (2017) 85 (2018) 984 95 144 230 272 506 1070 1250 2980 4780
2021-01-17 08:30 3.07 383 5340 (2017) 85 (2018) 984 95 144 230 272 506 1070 1250 2980 4780
2021-01-17 08:00 3.06 380 5340 (2017) 85 (2018) 984 95 144 230 272 506 1070 1250 2980 4780
2021-01-17 07:30 3.07 383 5340 (2017) 85 (2018) 984 95 144 230 272 506 1070 1250 2980 4780
2021-01-17 07:00 3.06 380 5340 (2017) 85 (2018) 984 95 144 230 272 506 1070 1250 2980 4780
2021-01-17 06:30 3.06 380 5340 (2017) 85 (2018) 984 95 144 230 272 506 1070 1250 2980 4780
2021-01-17 06:00 3.07 383 5340 (2017) 85 (2018) 984 95 144 230 272 506 1070 1250 2980 4780
2021-01-17 05:30 3.07 383 5340 (2017) 85 (2018) 984 95 144 230 272 506 1070 1250 2980 4780
2021-01-17 05:00 3.07 383 5340 (2017) 85 (2018) 984 95 144 230 272 506 1070 1250 2980 4780
2021-01-17 04:30 3.07 383 5340 (2017) 85 (2018) 984 95 144 230 272 506 1070 1250 2980 4780
2021-01-17 04:00 3.07 383 5340 (2017) 85 (2018) 984 95 144 230 272 506 1070 1250 2980 4780
2021-01-17 03:30 3.07 383 5340 (2017) 85 (2018) 984 95 144 230 272 506 1070 1250 2980 4780
2021-01-17 03:00 3.07 383 5340 (2017) 85 (2018) 984 95 144 230 272 506 1070 1250 2980 4780
2021-01-17 02:30 3.08 387 5340 (2017) 85 (2018) 984 95 144 230 272 506 1070 1250 2980 4780
2021-01-17 02:00 3.07 383 5340 (2017) 85 (2018) 984 95 144 230 272 506 1070 1250 2980 4780
2021-01-17 01:30 3.08 387 5340 (2017) 85 (2018) 984 95 144 230 272 506 1070 1250 2980 4780
2021-01-16 22:30 3.08 387 4350 (2007) 78 (1990) 827 83 147 190 236 517 1060 1190 2020 3690
2021-01-16 22:00 3.08 387 4350 (2007) 78 (1990) 827 83 147 190 236 517 1060 1190 2020 3690
2021-01-16 21:30 3.08 387 4350 (2007) 78 (1990) 827 83 147 190 236 517 1060 1190 2020 3690
2021-01-16 21:00 3.08 387 4350 (2007) 78 (1990) 827 83 147 190 236 517 1060 1190 2020 3690
2021-01-16 20:30 3.08 387 4350 (2007) 78 (1990) 827 83 147 190 236 517 1060 1190 2020 3690
2021-01-16 20:00 3.09 390 4350 (2007) 78 (1990) 827 83 147 190 236 517 1060 1190 2020 3690
2021-01-16 19:30 3.08 387 4350 (2007) 78 (1990) 827 83 147 190 236 517 1060 1190 2020 3690
2021-01-16 19:00 3.09 390 4350 (2007) 78 (1990) 827 83 147 190 236 517 1060 1190 2020 3690
2021-01-16 18:30 3.09 390 4350 (2007) 78 (1990) 827 83 147 190 236 517 1060 1190 2020 3690
2021-01-16 18:00 3.09 390 4350 (2007) 78 (1990) 827 83 147 190 236 517 1060 1190 2020 3690
2021-01-16 17:30 3.09 390 4350 (2007) 78 (1990) 827 83 147 190 236 517 1060 1190 2020 3690
2021-01-16 17:00 3.09 390 4350 (2007) 78 (1990) 827 83 147 190 236 517 1060 1190 2020 3690
2021-01-16 16:30 3.09 390 4350 (2007) 78 (1990) 827 83 147 190 236 517 1060 1190 2020 3690
2021-01-16 16:00 3.09 390 4350 (2007) 78 (1990) 827 83 147 190 236 517 1060 1190 2020 3690
2021-01-16 15:30 3.09 390 4350 (2007) 78 (1990) 827 83 147 190 236 517 1060 1190 2020 3690
2021-01-16 15:00 3.10 394 4350 (2007) 78 (1990) 827 83 147 190 236 517 1060 1190 2020 3690
2021-01-16 14:30 3.10 394 4350 (2007) 78 (1990) 827 83 147 190 236 517 1060 1190 2020 3690
2021-01-16 14:00 3.10 394 4350 (2007) 78 (1990) 827 83 147 190 236 517 1060 1190 2020 3690
2021-01-16 13:30 3.10 394 4350 (2007) 78 (1990) 827 83 147 190 236 517 1060 1190 2020 3690
2021-01-16 13:00 3.10 394 4350 (2007) 78 (1990) 827 83 147 190 236 517 1060 1190 2020 3690
2021-01-16 12:30 3.10 394 4350 (2007) 78 (1990) 827 83 147 190 236 517 1060 1190 2020 3690
2021-01-16 12:00 3.10 394 4350 (2007) 78 (1990) 827 83 147 190 236 517 1060 1190 2020 3690
2021-01-16 11:30 3.10 394 4350 (2007) 78 (1990) 827 83 147 190 236 517 1060 1190 2020 3690
2021-01-16 11:00 3.10 394 4350 (2007) 78 (1990) 827 83 147 190 236 517 1060 1190 2020 3690
2021-01-16 10:30 3.10 394 4350 (2007) 78 (1990) 827 83 147 190 236 517 1060 1190 2020 3690
2021-01-16 10:00 3.10 394 4350 (2007) 78 (1990) 827 83 147 190 236 517 1060 1190 2020 3690
2021-01-16 09:30 3.11 397 4350 (2007) 78 (1990) 827 83 147 190 236 517 1060 1190 2020 3690
2021-01-16 09:00 3.10 394 4350 (2007) 78 (1990) 827 83 147 190 236 517 1060 1190 2020 3690
2021-01-16 08:30 3.11 397 4350 (2007) 78 (1990) 827 83 147 190 236 517 1060 1190 2020 3690
2021-01-16 08:00 3.10 394 4350 (2007) 78 (1990) 827 83 147 190 236 517 1060 1190 2020 3690
2021-01-16 07:30 3.11 397 4350 (2007) 78 (1990) 827 83 147 190 236 517 1060 1190 2020 3690
2021-01-16 07:00 3.10 394 4350 (2007) 78 (1990) 827 83 147 190 236 517 1060 1190 2020 3690
2021-01-16 06:30 3.11 397 4350 (2007) 78 (1990) 827 83 147 190 236 517 1060 1190 2020 3690
2021-01-16 06:00 3.11 397 4350 (2007) 78 (1990) 827 83 147 190 236 517 1060 1190 2020 3690
2021-01-16 05:30 3.11 397 4350 (2007) 78 (1990) 827 83 147 190 236 517 1060 1190 2020 3690
2021-01-16 05:00 3.11 397 4350 (2007) 78 (1990) 827 83 147 190 236 517 1060 1190 2020 3690
2021-01-16 04:30 3.11 397 4350 (2007) 78 (1990) 827 83 147 190 236 517 1060 1190 2020 3690
2021-01-16 04:00 3.11 397 4350 (2007) 78 (1990) 827 83 147 190 236 517 1060 1190 2020 3690
2021-01-16 03:30 3.11 397 4350 (2007) 78 (1990) 827 83 147 190 236 517 1060 1190 2020 3690
2021-01-16 03:00 3.11 397 4350 (2007) 78 (1990) 827 83 147 190 236 517 1060 1190 2020 3690
2021-01-16 02:30 3.11 397 4350 (2007) 78 (1990) 827 83 147 190 236 517 1060 1190 2020 3690
2021-01-16 02:00 3.12 401 4350 (2007) 78 (1990) 827 83 147 190 236 517 1060 1190 2020 3690
2021-01-16 01:30 3.11 397 4350 (2007) 78 (1990) 827 83 147 190 236 517 1060 1190 2020 3690
2021-01-16 01:00 3.11 397 4350 (2007) 78 (1990) 827 83 147 190 236 517 1060 1190 2020 3690
2021-01-16 00:30 3.11 397 4350 (2007) 78 (1990) 827 83 147 190 236 517 1060 1190 2020 3690
2021-01-16 00:00 3.11 397 4350 (2007) 78 (1990) 827 83 147 190 236 517 1060 1190 2020 3690
2021-01-15 23:30 3.12 401 10300 (2007) 83 (1990) 1130 91 149 193 261 546 1110 1320 2420 7000
2021-01-15 23:00 3.11 397 10300 (2007) 83 (1990) 1130 91 149 193 261 546 1110 1320 2420 7000
2021-01-15 22:30 3.11 397 10300 (2007) 83 (1990) 1130 91 149 193 261 546 1110 1320 2420 7000
2021-01-15 22:00 3.11 397 10300 (2007) 83 (1990) 1130 91 149 193 261 546 1110 1320 2420 7000
2021-01-15 21:30 3.11 397 10300 (2007) 83 (1990) 1130 91 149 193 261 546 1110 1320 2420 7000
2021-01-15 21:00 3.11 397 10300 (2007) 83 (1990) 1130 91 149 193 261 546 1110 1320 2420 7000
2021-01-15 20:30 3.12 401 10300 (2007) 83 (1990) 1130 91 149 193 261 546 1110 1320 2420 7000
2021-01-15 20:00 3.12 401 10300 (2007) 83 (1990) 1130 91 149 193 261 546 1110 1320 2420 7000
2021-01-15 19:30 3.12 401 10300 (2007) 83 (1990) 1130 91 149 193 261 546 1110 1320 2420 7000
2021-01-15 19:00 3.11 397 10300 (2007) 83 (1990) 1130 91 149 193 261 546 1110 1320 2420 7000
2021-01-15 18:30 3.12 401 10300 (2007) 83 (1990) 1130 91 149 193 261 546 1110 1320 2420 7000
2021-01-15 18:00 3.12 401 10300 (2007) 83 (1990) 1130 91 149 193 261 546 1110 1320 2420 7000
2021-01-15 17:30 3.12 401 10300 (2007) 83 (1990) 1130 91 149 193 261 546 1110 1320 2420 7000
2021-01-15 17:00 3.12 401 10300 (2007) 83 (1990) 1130 91 149 193 261 546 1110 1320 2420 7000
2021-01-15 16:30 3.11 397 10300 (2007) 83 (1990) 1130 91 149 193 261 546 1110 1320 2420 7000
2021-01-15 16:00 3.12 401 10300 (2007) 83 (1990) 1130 91 149 193 261 546 1110 1320 2420 7000
2021-01-15 15:30 3.12 401 10300 (2007) 83 (1990) 1130 91 149 193 261 546 1110 1320 2420 7000
2021-01-15 15:00 3.12 401 10300 (2007) 83 (1990) 1130 91 149 193 261 546 1110 1320 2420 7000
2021-01-15 14:30 3.12 401 10300 (2007) 83 (1990) 1130 91 149 193 261 546 1110 1320 2420 7000
2021-01-15 14:00 3.11 397 10300 (2007) 83 (1990) 1130 91 149 193 261 546 1110 1320 2420 7000
2021-01-15 13:30 3.12 401 10300 (2007) 83 (1990) 1130 91 149 193 261 546 1110 1320 2420 7000
2021-01-15 13:00 3.13 404 10300 (2007) 83 (1990) 1130 91 149 193 261 546 1110 1320 2420 7000
2021-01-15 12:30 3.12 401 10300 (2007) 83 (1990) 1130 91 149 193 261 546 1110 1320 2420 7000
2021-01-15 12:00 3.13 404 10300 (2007) 83 (1990) 1130 91 149 193 261 546 1110 1320 2420 7000
2021-01-15 11:30 3.13 404 10300 (2007) 83 (1990) 1130 91 149 193 261 546 1110 1320 2420 7000
2021-01-15 11:00 3.13 404 10300 (2007) 83 (1990) 1130 91 149 193 261 546 1110 1320 2420 7000
2021-01-15 10:30 3.13 404 10300 (2007) 83 (1990) 1130 91 149 193 261 546 1110 1320 2420 7000
2021-01-15 10:00 3.12 401 10300 (2007) 83 (1990) 1130 91 149 193 261 546 1110 1320 2420 7000
2021-01-15 09:30 3.13 404 10300 (2007) 83 (1990) 1130 91 149 193 261 546 1110 1320 2420 7000
2021-01-15 09:00 3.13 404 10300 (2007) 83 (1990) 1130 91 149 193 261 546 1110 1320 2420 7000
2021-01-15 08:30 3.13 404 10300 (2007) 83 (1990) 1130 91 149 193 261 546 1110 1320 2420 7000
2021-01-15 08:00 3.13 404 10300 (2007) 83 (1990) 1130 91 149 193 261 546 1110 1320 2420 7000
2021-01-15 07:30 3.13 404 10300 (2007) 83 (1990) 1130 91 149 193 261 546 1110 1320 2420 7000
2021-01-15 07:00 3.13 404 10300 (2007) 83 (1990) 1130 91 149 193 261 546 1110 1320 2420 7000
2021-01-15 06:30 3.13 404 10300 (2007) 83 (1990) 1130 91 149 193 261 546 1110 1320 2420 7000
2021-01-15 06:00 3.13 404 10300 (2007) 83 (1990) 1130 91 149 193 261 546 1110 1320 2420 7000
2021-01-15 05:30 3.13 404 10300 (2007) 83 (1990) 1130 91 149 193 261 546 1110 1320 2420 7000
2021-01-15 05:00 3.14 408 10300 (2007) 83 (1990) 1130 91 149 193 261 546 1110 1320 2420 7000
2021-01-15 04:30 3.13 404 10300 (2007) 83 (1990) 1130 91 149 193 261 546 1110 1320 2420 7000
2021-01-15 04:00 3.13 404 10300 (2007) 83 (1990) 1130 91 149 193 261 546 1110 1320 2420 7000
2021-01-15 03:30 3.14 408 10300 (2007) 83 (1990) 1130 91 149 193 261 546 1110 1320 2420 7000
2021-01-15 03:00 3.14 408 10300 (2007) 83 (1990) 1130 91 149 193 261 546 1110 1320 2420 7000
2021-01-15 02:30 3.14 408 10300 (2007) 83 (1990) 1130 91 149 193 261 546 1110 1320 2420 7000
2021-01-15 02:00 3.14 408 10300 (2007) 83 (1990) 1130 91 149 193 261 546 1110 1320 2420 7000
2021-01-15 01:30 3.14 408 10300 (2007) 83 (1990) 1130 91 149 193 261 546 1110 1320 2420 7000
2021-01-15 01:00 3.14 408 10300 (2007) 83 (1990) 1130 91 149 193 261 546 1110 1320 2420 7000
2021-01-15 00:30 3.14 408 10300 (2007) 83 (1990) 1130 91 149 193 261 546 1110 1320 2420 7000
2021-01-15 00:00 3.14 408 10300 (2007) 83 (1990) 1130 91 149 193 261 546 1110 1320 2420 7000
2021-01-14 23:30 3.14 408 8410 (2007) 88 (1990) 1310 96 153 182 241 480 1530 1700 5570 7180
2021-01-14 23:00 3.15 412 8410 (2007) 88 (1990) 1310 96 153 182 241 480 1530 1700 5570 7180
2021-01-14 22:30 3.14 408 8410 (2007) 88 (1990) 1310 96 153 182 241 480 1530 1700 5570 7180
2021-01-14 22:00 3.14 408 8410 (2007) 88 (1990) 1310 96 153 182 241 480 1530 1700 5570 7180
2021-01-14 21:30 3.14 408 8410 (2007) 88 (1990) 1310 96 153 182 241 480 1530 1700 5570 7180
2021-01-14 21:00 3.15 412 8410 (2007) 88 (1990) 1310 96 153 182 241 480 1530 1700 5570 7180
2021-01-14 20:30 3.15 412 8410 (2007) 88 (1990) 1310 96 153 182 241 480 1530 1700 5570 7180
2021-01-14 20:00 3.15 412 8410 (2007) 88 (1990) 1310 96 153 182 241 480 1530 1700 5570 7180
2021-01-14 19:30 3.15 412 8410 (2007) 88 (1990) 1310 96 153 182 241 480 1530 1700 5570 7180
2021-01-14 19:00 3.15 412 8410 (2007) 88 (1990) 1310 96 153 182 241 480 1530 1700 5570 7180
2021-01-14 18:30 3.15 412 8410 (2007) 88 (1990) 1310 96 153 182 241 480 1530 1700 5570 7180
2021-01-14 18:00 3.16 415 8410 (2007) 88 (1990) 1310 96 153 182 241 480 1530 1700 5570 7180
2021-01-14 17:30 3.16 415 8410 (2007) 88 (1990) 1310 96 153 182 241 480 1530 1700 5570 7180
2021-01-14 17:00 3.16 415 8410 (2007) 88 (1990) 1310 96 153 182 241 480 1530 1700 5570 7180
2021-01-14 16:30 3.16 415 8410 (2007) 88 (1990) 1310 96 153 182 241 480 1530 1700 5570 7180
2021-01-14 16:00 3.16 415 8410 (2007) 88 (1990) 1310 96 153 182 241 480 1530 1700 5570 7180
2021-01-14 15:30 3.16 415 8410 (2007) 88 (1990) 1310 96 153 182 241 480 1530 1700 5570 7180
2021-01-14 15:00 3.16 415 8410 (2007) 88 (1990) 1310 96 153 182 241 480 1530 1700 5570 7180
2021-01-14 14:30 3.16 415 8410 (2007) 88 (1990) 1310 96 153 182 241 480 1530 1700 5570 7180
2021-01-14 14:00 3.16 415 8410 (2007) 88 (1990) 1310 96 153 182 241 480 1530 1700 5570 7180
2021-01-14 13:30 3.16 415 8410 (2007) 88 (1990) 1310 96 153 182 241 480 1530 1700 5570 7180
2021-01-14 13:00 3.16 415 8410 (2007) 88 (1990) 1310 96 153 182 241 480 1530 1700 5570 7180
2021-01-14 12:30 3.17 419 8410 (2007) 88 (1990) 1310 96 153 182 241 480 1530 1700 5570 7180
2021-01-14 12:00 3.17 419 8410 (2007) 88 (1990) 1310 96 153 182 241 480 1530 1700 5570 7180
2021-01-14 11:30 3.16 415 8410 (2007) 88 (1990) 1310 96 153 182 241 480 1530 1700 5570 7180
2021-01-14 11:00 3.16 415 8410 (2007) 88 (1990) 1310 96 153 182 241 480 1530 1700 5570 7180
2021-01-14 10:30 3.17 419 8410 (2007) 88 (1990) 1310 96 153 182 241 480 1530 1700 5570 7180
2021-01-14 10:00 3.17 419 8410 (2007) 88 (1990) 1310 96 153 182 241 480 1530 1700 5570 7180
2021-01-14 09:30 3.17 419 8410 (2007) 88 (1990) 1310 96 153 182 241 480 1530 1700 5570 7180
2021-01-14 09:00 3.17 419 8410 (2007) 88 (1990) 1310 96 153 182 241 480 1530 1700 5570 7180
2021-01-14 08:30 3.17 419 8410 (2007) 88 (1990) 1310 96 153 182 241 480 1530 1700 5570 7180
2021-01-14 08:00 3.17 419 8410 (2007) 88 (1990) 1310 96 153 182 241 480 1530 1700 5570 7180
2021-01-14 07:30 3.17 419 8410 (2007) 88 (1990) 1310 96 153 182 241 480 1530 1700 5570 7180
2021-01-14 07:00 3.17 419 8410 (2007) 88 (1990) 1310 96 153 182 241 480 1530 1700 5570 7180
2021-01-14 06:30 3.17 419 8410 (2007) 88 (1990) 1310 96 153 182 241 480 1530 1700 5570 7180
2021-01-14 06:00 3.18 422 8410 (2007) 88 (1990) 1310 96 153 182 241 480 1530 1700 5570 7180
2021-01-14 05:30 3.17 419 8410 (2007) 88 (1990) 1310 96 153 182 241 480 1530 1700 5570 7180
2021-01-14 05:00 3.18 422 8410 (2007) 88 (1990) 1310 96 153 182 241 480 1530 1700 5570 7180
2021-01-14 04:30 3.18 422 8410 (2007) 88 (1990) 1310 96 153 182 241 480 1530 1700 5570 7180
2021-01-14 04:00 3.17 419 8410 (2007) 88 (1990) 1310 96 153 182 241 480 1530 1700 5570 7180
2021-01-14 03:30 3.18 422 8410 (2007) 88 (1990) 1310 96 153 182 241 480 1530 1700 5570 7180
2021-01-14 03:00 3.18 422 8410 (2007) 88 (1990) 1310 96 153 182 241 480 1530 1700 5570 7180
2021-01-14 02:30 3.17 419 8410 (2007) 88 (1990) 1310 96 153 182 241 480 1530 1700 5570 7180
2021-01-14 02:00 3.18 422 8410 (2007) 88 (1990) 1310 96 153 182 241 480 1530 1700 5570 7180
2021-01-14 01:30 3.17 419 8410 (2007) 88 (1990) 1310 96 153 182 241 480 1530 1700 5570 7180
2021-01-14 01:00 3.18 422 8410 (2007) 88 (1990) 1310 96 153 182 241 480 1530 1700 5570 7180
2021-01-14 00:30 3.18 422 8410 (2007) 88 (1990) 1310 96 153 182 241 480 1530 1700 5570 7180
2021-01-14 00:00 3.18 422 8410 (2007) 88 (1990) 1310 96 153 182 241 480 1530 1700 5570 7180
2021-01-13 23:30 3.18 422 22900 (2013) 93 (1990) 1730 99 158 170 202 577 1340 1680 4280 13700
2021-01-13 23:00 3.18 422 22900 (2013) 93 (1990) 1730 99 158 170 202 577 1340 1680 4280 13700
2021-01-13 22:30 3.18 422 22900 (2013) 93 (1990) 1730 99 158 170 202 577 1340 1680 4280 13700
2021-01-13 22:00 3.18 422 22900 (2013) 93 (1990) 1730 99 158 170 202 577 1340 1680 4280 13700
2021-01-13 21:30 3.18 422 22900 (2013) 93 (1990) 1730 99 158 170 202 577 1340 1680 4280 13700
2021-01-13 21:00 3.18 422 22900 (2013) 93 (1990) 1730 99 158 170 202 577 1340 1680 4280 13700
2021-01-13 20:30 3.18 422 22900 (2013) 93 (1990) 1730 99 158 170 202 577 1340 1680 4280 13700
2021-01-13 20:00 3.18 422 22900 (2013) 93 (1990) 1730 99 158 170 202 577 1340 1680 4280 13700
2021-01-13 19:30 3.19 426 22900 (2013) 93 (1990) 1730 99 158 170 202 577 1340 1680 4280 13700
2021-01-13 19:00 3.19 426 22900 (2013) 93 (1990) 1730 99 158 170 202 577 1340 1680 4280 13700
2021-01-13 18:30 3.19 426 22900 (2013) 93 (1990) 1730 99 158 170 202 577 1340 1680 4280 13700
2021-01-13 18:00 3.19 426 22900 (2013) 93 (1990) 1730 99 158 170 202 577 1340 1680 4280 13700
2021-01-13 17:30 3.19 426 22900 (2013) 93 (1990) 1730 99 158 170 202 577 1340 1680 4280 13700
2021-01-13 17:00 3.19 426 22900 (2013) 93 (1990) 1730 99 158 170 202 577 1340 1680 4280 13700
2021-01-13 16:30 3.20 430 22900 (2013) 93 (1990) 1730 99 158 170 202 577 1340 1680 4280 13700
2021-01-13 16:00 3.20 430 22900 (2013) 93 (1990) 1730 99 158 170 202 577 1340 1680 4280 13700
2021-01-13 15:30 3.20 430 22900 (2013) 93 (1990) 1730 99 158 170 202 577 1340 1680 4280 13700
2021-01-13 15:00 3.20 430 22900 (2013) 93 (1990) 1730 99 158 170 202 577 1340 1680 4280 13700
2021-01-13 14:30 3.20 430 22900 (2013) 93 (1990) 1730 99 158 170 202 577 1340 1680 4280 13700
2021-01-13 14:00 3.21 433 22900 (2013) 93 (1990) 1730 99 158 170 202 577 1340 1680 4280 13700
2021-01-13 13:30 3.21 433 22900 (2013) 93 (1990) 1730 99 158 170 202 577 1340 1680 4280 13700
2021-01-13 13:00 3.21 433 22900 (2013) 93 (1990) 1730 99 158 170 202 577 1340 1680 4280 13700
2021-01-13 12:30 3.21 433 22900 (2013) 93 (1990) 1730 99 158 170 202 577 1340 1680 4280 13700
2021-01-13 12:00 3.22 437 22900 (2013) 93 (1990) 1730 99 158 170 202 577 1340 1680 4280 13700
2021-01-13 11:30 3.21 433 22900 (2013) 93 (1990) 1730 99 158 170 202 577 1340 1680 4280 13700
2021-01-13 11:00 3.21 433 22900 (2013) 93 (1990) 1730 99 158 170 202 577 1340 1680 4280 13700
2021-01-13 10:30 3.21 433 22900 (2013) 93 (1990) 1730 99 158 170 202 577 1340 1680 4280 13700
2021-01-13 10:00 3.22 437 22900 (2013) 93 (1990) 1730 99 158 170 202 577 1340 1680 4280 13700
2021-01-13 09:30 3.22 437 22900 (2013) 93 (1990) 1730 99 158 170 202 577 1340 1680 4280 13700
2021-01-13 09:00 3.22 437 22900 (2013) 93 (1990) 1730 99 158 170 202 577 1340 1680 4280 13700
2021-01-13 08:30 3.22 437 22900 (2013) 93 (1990) 1730 99 158 170 202 577 1340 1680 4280 13700
2021-01-13 08:00 3.22 437 22900 (2013) 93 (1990) 1730 99 158 170 202 577 1340 1680 4280 13700
2021-01-13 07:30 3.22 437 22900 (2013) 93 (1990) 1730 99 158 170 202 577 1340 1680 4280 13700
2021-01-13 07:00 3.22 437 22900 (2013) 93 (1990) 1730 99 158 170 202 577 1340 1680 4280 13700
2021-01-13 06:30 3.22 437 22900 (2013) 93 (1990) 1730 99 158 170 202 577 1340 1680 4280 13700
2021-01-13 06:00 3.23 441 22900 (2013) 93 (1990) 1730 99 158 170 202 577 1340 1680 4280 13700
2021-01-13 05:30 3.23 441 22900 (2013) 93 (1990) 1730 99 158 170 202 577 1340 1680 4280 13700
2021-01-13 05:00 3.23 441 22900 (2013) 93 (1990) 1730 99 158 170 202 577 1340 1680 4280 13700
2021-01-13 04:30 3.23 441 22900 (2013) 93 (1990) 1730 99 158 170 202 577 1340 1680 4280 13700
2021-01-13 04:00 3.23 441 22900 (2013) 93 (1990) 1730 99 158 170 202 577 1340 1680 4280 13700
2021-01-13 03:30 3.23 441 22900 (2013) 93 (1990) 1730 99 158 170 202 577 1340 1680 4280 13700
2021-01-13 03:00 3.24 445 22900 (2013) 93 (1990) 1730 99 158 170 202 577 1340 1680 4280